[[{"header":{"parameterUnit":"m.s-1","parameterCategory":1,"la1":31.0,"la2":29.5877,"lo1":-88.7671,"lo2":-86.6584,"dy":0.0162,"dx":0.0185,"nx":115,"ny":88,"refTime":"2023-08-21T06:00:00:Z","depth":0,"parameterNumber":2,"parameterNumberName":"U-component_of_WINDS"},"data":[0.0,0.0,0.0,0.0,0.0,0.0,0.0,0.0,0.0,0.0,0.0,0.0,0.0,0.0,0.0,0.0,0.0,0.0,0.0,0.0,0.0,0.0,0.0,0.0,0.0,0.0,0.0,0.0,0.0,0.0,0.0,0.0,0.0,0.0,0.0,0.0,0.0,0.0,0.0,0.0,0.0,0.0,0.0,0.0,0.0,0.0,0.0,0.0,0.0,0.0,0.0,0.0,0.0,0.0,0.0,0.0,0.0,0.0,0.0,0.0,0.0,0.0,0.0,0.0,0.0,0.0,0.0,0.0,0.0,0.0,0.0,0.0,0.0,0.0,0.0,0.0,0.0,0.0,0.0,0.0,0.0,0.0,0.0,0.0,0.0,0.0,0.0,0.0,0.0,0.0,0.0,0.0,0.0,0.0,0.0,0.0,0.0,0.0,0.0,0.0,0.0,0.0,0.0,0.0,0.0,0.0,0.0,0.0,0.0,0.0,0.0,0.0,0.0,0.0,0.0,0.0,0.0,0.0,0.0,0.0,0.0,0.0,0.0,0.0,0.0,0.0,0.0,0.0,0.0,0.0,0.0,0.0,0.0,0.0,0.0,0.0,0.0,0.0,0.0,0.0,0.0,0.0,0.0,0.0,0.0,0.0,0.0,0.0,0.0,0.0,0.0,0.0,0.0,0.0,0.0,0.0,0.0,0.0,0.0,0.0,0.0,0.0,0.0,0.0,0.0,0.0,0.0,0.0,0.0,0.0,0.0,0.0,0.0,0.0,0.0,0.0,0.0,0.0,0.0,0.0,0.0,0.0,0.0,0.0,0.0,0.0,0.0,0.0,0.0,0.0,0.0,0.0,0.0,0.0,0.0,0.0,0.0,0.0,0.0,0.0,0.0,0.0,0.0,0.0,0.0,0.0,0.0,0.0,0.0,0.0,0.0,0.0,0.0,0.0,0.0,0.0,0.0,0.0,0.0,0.0,0.0,0.0,0.0,0.0,0.0,0.0,0.0,0.0,0.0,0.0,0.0,0.0,0.0,0.0,0.0,0.0,0.0,0.0,0.0,0.0,0.0,0.0,0.0,0.0,0.0,0.0,0.0,0.0,0.0,0.0,0.0,0.0,0.0,0.0,0.0,0.0,0.0,0.0,0.0,0.0,0.0,0.0,0.0,0.0,0.0,0.0,0.0,0.0,0.0,0.0,0.0,0.0,0.0,0.0,0.0,0.0,0.0,0.0,0.0,0.0,0.0,0.0,0.0,0.0,0.0,0.0,0.0,0.0,0.0,0.0,0.0,0.0,0.0,0.0,0.0,0.0,0.0,0.0,0.0,0.0,0.0,0.0,0.0,0.0,0.0,0.0,0.0,0.0,0.0,0.0,0.0,0.0,0.0,0.0,0.0,0.0,0.0,0.0,0.0,0.0,0.0,0.0,0.0,0.0,0.0,0.0,0.0,0.0,0.0,0.0,0.0,0.0,0.0,0.0,0.0,0.0,0.0,0.0,0.0,0.0,0.0,0.0,0.0,0.0,0.0,0.0,0.0,0.0,0.0,0.0,0.0,0.0,0.0,0.0,0.0,0.0,0.0,0.0,0.0,0.0,0.0,0.0,0.0,0.0,0.0,0.0,0.0,0.0,0.0,0.0,0.0,0.0,0.0,0.0,0.0,0.0,0.0,0.0,0.0,0.0,0.0,0.0,0.0,0.0,0.0,0.0,0.0,0.0,0.0,0.0,0.0,0.0,0.0,0.0,0.0,0.0,0.0,0.0,0.0,0.0,0.0,0.0,0.0,0.0,0.0,0.0,0.0,0.0,0.0,0.0,0.0,0.0,0.0,0.0,0.0,0.0,0.0,0.0,0.0,0.0,0.0,0.0,0.0,0.0,0.0,0.0,0.0,0.0,0.0,0.0,0.0,0.0,0.0,0.0,0.0,0.0,0.0,0.0,0.0,0.0,0.0,0.0,0.0,0.0,0.0,0.0,0.0,0.0,0.0,0.0,0.0,0.0,0.0,0.0,0.0,0.0,0.0,0.0,0.0,0.0,0.0,0.0,0.0,0.0,0.0,0.0,0.0,0.0,0.0,0.0,0.0,0.0,0.0,0.0,0.0,0.0,0.0,0.0,0.0,0.0,0.0,0.0,0.0,0.0,0.0,0.0,0.0,0.0,0.0,0.0,0.0,0.0,0.0,0.0,0.0,0.0,0.0,0.0,0.0,0.0,0.0,0.0,0.0,0.0,0.0,0.0,0.0,0.0,0.0,0.0,0.0,0.0,0.0,0.0,0.0,0.0,0.0,0.0,0.0,0.0,0.0,0.0,0.0,0.0,0.0,0.0,0.0,0.0,0.0,0.0,0.0,0.0,0.0,0.0,0.0,0.0,0.0,0.0,0.0,0.0,0.0,0.0,0.0,0.0,0.0,0.0,0.0,0.0,0.0,0.0,0.0,0.0,0.0,0.0,0.0,0.0,0.0,0.0,0.0,0.0,0.0,0.0,0.0,0.0,0.0,0.0,0.0,0.0,0.0,0.0,0.0,0.0,0.0,0.0,0.0,0.0,0.0,0.0,0.0,0.0,0.0,0.0,0.0,0.0,0.0,0.0,0.0,0.0,0.0,0.0,0.0,0.0,0.0,0.0,0.0,0.0,0.0,0.0,0.0,0.0,0.0,0.0,0.0,0.0,0.0,0.0,0.0,0.0,0.0,0.0,0.0,0.0,0.0,0.0,0.0,0.0,0.0,0.0,0.0,0.0,0.0,0.0,0.0,0.0,0.0,0.0,0.0,0.0,0.0,0.0,0.0,0.0,0.0,0.0,0.0,0.0,0.0,0.0,0.0,0.0,0.0,0.0,0.0,0.0,0.0,0.0,0.0,0.0,0.0,0.0,0.0,0.0,0.0,0.0,0.0,0.0,0.0,0.0,0.0,0.0,0.0,0.0,0.0,0.0,0.0,0.0,0.0,0.0,0.0,0.0,0.0,0.0,0.0,0.0,0.0,0.0,0.0,0.0,0.0,0.0,0.0,0.0,0.0,0.0,0.0,0.0,0.0,0.0,0.0,0.0,0.0,0.0,0.0,0.0,0.0,0.0,0.0,0.0,0.0,0.0,0.0,0.0,0.0,0.0,0.0,0.0,0.0,0.0,0.0,0.0,0.0,0.0,0.0,0.0,0.0,0.0,0.0,0.0,0.0,0.0,0.0,0.0,0.0,0.0,0.0,0.0,0.0,0.0,0.0,0.0,0.0,0.0,0.0,0.0,0.0,0.0,0.0,0.0,0.0,0.0,0.0,0.0,0.0,0.0,0.0,0.0,0.0,0.0,0.0,0.0,0.0,0.0,0.0,0.0,0.0,0.0,0.0,0.0,0.0,0.0,0.0,0.0,0.0,0.0,0.0,0.0,0.0,0.0,0.0,0.0,0.0,0.0,0.0,0.0,0.0,0.0,0.0,0.0,0.0,0.0,0.0,0.0,0.0,0.0,0.0,0.0,0.0,0.0,0.0,0.0,0.0,0.0,0.0,0.0,0.0,0.0,0.0,0.0,0.0,0.0,0.0,0.0,0.0,0.0,0.0,0.0,0.0,0.0,0.0,0.0,0.0,0.0,0.0,0.0,0.0,0.0,0.0,0.0,0.0,0.0,0.0,0.0,0.0,0.0,0.0,0.0,0.0,0.0,0.0,0.0,0.0,0.0,0.0,0.0,0.0,0.0,0.0,0.0,0.0,0.0,0.0,0.0,0.0,0.0,0.0,0.0,0.0,0.0,0.0,0.0,0.0,0.0,0.0,0.0,0.0,0.0,0.0,0.0,0.0,0.0,0.0,0.0,0.0,0.0,0.0,0.0,0.0,0.0,0.0,0.0,0.0,0.0,0.0,0.0,0.0,0.0,0.0,0.0,0.0,0.0,0.0,0.0,0.0,0.0,0.0,0.0,0.0,0.0,0.0,0.0,0.0,0.0,0.0,0.0,0.0,0.0,0.0,0.0,0.0,0.0,0.0,0.0,0.0,0.0,0.0,0.0,0.0,0.0,0.0,0.0,0.0,0.0,0.0,0.0,0.0,0.0,0.0,0.0,0.0,0.0,0.0,0.0,0.0,0.0,0.0,0.0,0.0,0.0,0.0,0.0,0.0,0.0,0.0,0.0,0.0,0.0,0.0,0.0,0.0,0.0,0.0,0.0,0.0,0.0,0.0,0.0,0.0,0.0,0.0,0.0,0.0,0.0,0.0,0.0,0.0,0.0,0.0,0.0,0.0,0.0,0.0,0.0,0.0,0.0,0.0,0.0,-5.0898,0.0,0.0,0.0,0.0,0.0,0.0,0.0,0.0,0.0,0.0,0.0,0.0,0.0,0.0,0.0,0.0,0.0,0.0,0.0,0.0,0.0,0.0,0.0,0.0,0.0,0.0,0.0,0.0,0.0,0.0,0.0,0.0,0.0,0.0,0.0,0.0,0.0,0.0,0.0,0.0,0.0,0.0,0.0,0.0,0.0,0.0,0.0,0.0,0.0,0.0,0.0,0.0,0.0,0.0,0.0,0.0,0.0,0.0,0.0,0.0,0.0,0.0,0.0,0.0,0.0,0.0,0.0,0.0,0.0,0.0,0.0,0.0,0.0,0.0,0.0,0.0,0.0,0.0,0.0,0.0,0.0,0.0,0.0,0.0,0.0,0.0,0.0,0.0,0.0,0.0,0.0,0.0,0.0,0.0,0.0,0.0,0.0,0.0,0.0,0.0,0.0,0.0,0.0,0.0,0.0,0.0,0.0,0.0,0.0,0.0,-5.0625,-5.0606,-5.0797,-5.0944,-5.101,0.0,0.0,0.0,0.0,0.0,0.0,0.0,0.0,0.0,0.0,0.0,0.0,0.0,0.0,0.0,0.0,0.0,0.0,0.0,0.0,0.0,0.0,0.0,0.0,0.0,0.0,0.0,0.0,0.0,0.0,0.0,0.0,0.0,0.0,0.0,0.0,0.0,0.0,0.0,0.0,0.0,0.0,0.0,0.0,0.0,0.0,0.0,0.0,0.0,0.0,0.0,0.0,0.0,0.0,0.0,0.0,0.0,0.0,0.0,0.0,0.0,0.0,0.0,0.0,0.0,0.0,0.0,0.0,0.0,0.0,0.0,0.0,0.0,0.0,0.0,0.0,0.0,0.0,0.0,0.0,0.0,0.0,0.0,0.0,0.0,0.0,0.0,0.0,0.0,0.0,0.0,0.0,0.0,0.0,0.0,0.0,0.0,0.0,0.0,0.0,0.0,0.0,0.0,0.0,0.0,0.0,0.0,0.0,0.0,0.0,0.0,0.0,-5.0898,-5.1004,-5.1137,0.0,0.0,0.0,0.0,0.0,0.0,0.0,0.0,0.0,0.0,0.0,0.0,0.0,0.0,0.0,0.0,0.0,0.0,0.0,0.0,0.0,0.0,0.0,0.0,0.0,0.0,0.0,0.0,0.0,0.0,0.0,0.0,0.0,0.0,0.0,0.0,0.0,0.0,0.0,0.0,0.0,0.0,0.0,0.0,0.0,0.0,0.0,0.0,0.0,0.0,0.0,0.0,0.0,0.0,0.0,0.0,0.0,0.0,0.0,0.0,0.0,0.0,0.0,0.0,0.0,0.0,0.0,0.0,0.0,0.0,0.0,0.0,0.0,0.0,0.0,0.0,0.0,0.0,0.0,0.0,0.0,0.0,0.0,0.0,0.0,0.0,0.0,0.0,0.0,0.0,0.0,0.0,0.0,0.0,0.0,0.0,0.0,0.0,0.0,0.0,0.0,0.0,0.0,0.0,0.0,0.0,0.0,0.0,0.0,0.0,-5.0838,-5.0899,-5.1023,0.0,-5.1277,0.0,0.0,0.0,0.0,0.0,0.0,0.0,0.0,0.0,0.0,0.0,0.0,0.0,0.0,0.0,0.0,0.0,0.0,0.0,0.0,0.0,0.0,0.0,0.0,0.0,0.0,0.0,0.0,0.0,0.0,0.0,0.0,0.0,0.0,0.0,0.0,0.0,0.0,0.0,0.0,0.0,0.0,0.0,0.0,0.0,0.0,0.0,0.0,0.0,0.0,0.0,0.0,0.0,0.0,0.0,0.0,0.0,0.0,0.0,0.0,0.0,0.0,0.0,0.0,0.0,0.0,0.0,0.0,0.0,0.0,0.0,0.0,0.0,0.0,0.0,0.0,0.0,0.0,0.0,0.0,0.0,0.0,0.0,0.0,0.0,0.0,0.0,0.0,0.0,0.0,0.0,0.0,0.0,0.0,0.0,0.0,0.0,0.0,0.0,0.0,0.0,0.0,0.0,0.0,0.0,0.0,0.0,0.0,0.0,0.0,-5.0893,-5.0969,-5.1138,-5.1232,0.0,0.0,0.0,0.0,0.0,0.0,0.0,0.0,0.0,0.0,0.0,0.0,0.0,0.0,0.0,0.0,0.0,0.0,0.0,0.0,0.0,0.0,0.0,0.0,0.0,0.0,0.0,0.0,0.0,0.0,0.0,0.0,0.0,0.0,0.0,0.0,0.0,0.0,0.0,0.0,0.0,0.0,0.0,0.0,0.0,0.0,0.0,0.0,0.0,0.0,0.0,0.0,0.0,0.0,0.0,0.0,0.0,0.0,0.0,0.0,0.0,0.0,0.0,0.0,0.0,0.0,0.0,0.0,0.0,0.0,0.0,0.0,0.0,0.0,0.0,0.0,0.0,0.0,0.0,0.0,0.0,0.0,0.0,0.0,0.0,0.0,0.0,0.0,0.0,0.0,0.0,0.0,0.0,0.0,0.0,0.0,0.0,0.0,0.0,0.0,0.0,0.0,0.0,0.0,0.0,0.0,0.0,0.0,0.0,0.0,-5.0801,-5.0998,-5.1093,-5.1232,-5.1302,-5.1331,0.0,0.0,0.0,0.0,0.0,0.0,0.0,0.0,0.0,0.0,0.0,0.0,0.0,0.0,0.0,0.0,0.0,0.0,0.0,0.0,0.0,0.0,0.0,0.0,0.0,0.0,0.0,0.0,0.0,0.0,0.0,0.0,0.0,0.0,0.0,0.0,0.0,0.0,0.0,0.0,0.0,0.0,0.0,0.0,0.0,0.0,0.0,0.0,0.0,0.0,0.0,0.0,0.0,0.0,0.0,0.0,0.0,0.0,0.0,0.0,0.0,0.0,0.0,0.0,0.0,0.0,0.0,0.0,0.0,0.0,0.0,0.0,0.0,0.0,0.0,0.0,0.0,0.0,0.0,0.0,0.0,0.0,0.0,0.0,0.0,0.0,0.0,0.0,0.0,0.0,0.0,0.0,0.0,0.0,0.0,0.0,0.0,0.0,0.0,0.0,0.0,0.0,0.0,0.0,0.0,0.0,0.0,0.0,-4.977,-5.063,-5.1152,-5.1267,-5.1295,-5.1333,0.0,0.0,0.0,0.0,0.0,0.0,0.0,0.0,0.0,0.0,0.0,0.0,0.0,0.0,0.0,0.0,0.0,0.0,0.0,0.0,0.0,0.0,0.0,0.0,0.0,0.0,0.0,0.0,0.0,0.0,0.0,0.0,0.0,0.0,0.0,0.0,0.0,0.0,0.0,0.0,0.0,0.0,0.0,0.0,0.0,0.0,0.0,0.0,0.0,0.0,0.0,0.0,0.0,0.0,0.0,0.0,0.0,0.0,0.0,0.0,0.0,0.0,0.0,0.0,0.0,0.0,0.0,0.0,0.0,0.0,0.0,0.0,0.0,0.0,0.0,0.0,0.0,0.0,0.0,0.0,0.0,0.0,0.0,0.0,0.0,0.0,0.0,0.0,0.0,0.0,0.0,0.0,0.0,0.0,0.0,0.0,0.0,0.0,0.0,0.0,0.0,0.0,0.0,0.0,0.0,0.0,0.0,0.0,0.0,-4.9839,-5.0757,-5.1255,-5.1297,-5.1337,-5.1365,0.0,0.0,0.0,0.0,0.0,0.0,0.0,0.0,0.0,0.0,0.0,0.0,0.0,0.0,0.0,0.0,0.0,0.0,0.0,0.0,0.0,0.0,0.0,0.0,0.0,0.0,0.0,0.0,0.0,0.0,0.0,0.0,0.0,0.0,0.0,0.0,0.0,0.0,0.0,0.0,0.0,0.0,0.0,0.0,0.0,0.0,0.0,0.0,0.0,0.0,0.0,0.0,0.0,0.0,0.0,0.0,0.0,0.0,0.0,0.0,0.0,0.0,0.0,0.0,0.0,0.0,0.0,0.0,0.0,0.0,0.0,0.0,0.0,0.0,0.0,0.0,0.0,0.0,0.0,0.0,0.0,0.0,0.0,0.0,0.0,0.0,0.0,0.0,0.0,0.0,0.0,0.0,0.0,0.0,0.0,0.0,0.0,0.0,0.0,0.0,0.0,0.0,0.0,0.0,0.0,0.0,0.0,0.0,0.0,-4.9956,0.0,-5.1333,-5.1334,-5.1385,-5.1387,0.0,0.0,0.0,0.0,0.0,0.0,0.0,0.0,0.0,0.0,0.0,0.0,0.0,0.0,0.0,0.0,0.0,0.0,0.0,0.0,0.0,0.0,0.0,0.0,0.0,0.0,0.0,0.0,0.0,0.0,0.0,0.0,0.0,0.0,0.0,0.0,0.0,0.0,0.0,0.0,0.0,0.0,0.0,0.0,0.0,0.0,0.0,0.0,0.0,0.0,0.0,0.0,0.0,0.0,0.0,0.0,0.0,0.0,0.0,0.0,0.0,0.0,0.0,0.0,0.0,0.0,0.0,0.0,0.0,0.0,0.0,0.0,0.0,0.0,0.0,0.0,0.0,0.0,0.0,0.0,0.0,0.0,0.0,0.0,0.0,0.0,0.0,0.0,0.0,0.0,0.0,0.0,0.0,0.0,0.0,0.0,0.0,0.0,0.0,0.0,0.0,0.0,0.0,0.0,0.0,0.0,0.0,0.0,-4.8206,-5.0117,-5.0976,-5.1387,-5.1387,-5.1387,-5.1387,0.0,0.0,0.0,0.0,0.0,0.0,0.0,0.0,0.0,0.0,0.0,0.0,0.0,0.0,0.0,0.0,0.0,0.0,0.0,0.0,0.0,0.0,0.0,0.0,0.0,0.0,0.0,0.0,0.0,0.0,0.0,0.0,0.0,0.0,0.0,0.0,0.0,0.0,0.0,0.0,0.0,0.0,0.0,0.0,0.0,0.0,0.0,0.0,0.0,0.0,0.0,0.0,0.0,0.0,0.0,0.0,0.0,0.0,0.0,0.0,0.0,0.0,0.0,0.0,0.0,0.0,0.0,0.0,0.0,0.0,0.0,0.0,0.0,0.0,0.0,0.0,0.0,0.0,0.0,0.0,0.0,0.0,0.0,0.0,0.0,0.0,0.0,0.0,0.0,0.0,0.0,0.0,0.0,0.0,0.0,0.0,0.0,0.0,0.0,0.0,0.0,0.0,0.0,0.0,0.0,0.0,0.0,0.0,0.0,-4.9297,-5.0683,-5.1387,-5.1387,-5.1387,-5.1387,0.0,0.0,0.0,0.0,0.0,0.0,0.0,0.0,0.0,0.0,0.0,0.0,0.0,0.0,0.0,0.0,0.0,0.0,0.0,0.0,0.0,0.0,0.0,0.0,0.0,0.0,0.0,0.0,0.0,0.0,0.0,0.0,0.0,0.0,0.0,0.0,0.0,0.0,0.0,0.0,0.0,0.0,0.0,0.0,0.0,0.0,0.0,0.0,0.0,0.0,0.0,0.0,0.0,0.0,0.0,0.0,0.0,0.0,0.0,0.0,0.0,0.0,0.0,0.0,0.0,0.0,0.0,0.0,0.0,0.0,0.0,0.0,0.0,0.0,0.0,0.0,0.0,0.0,0.0,0.0,0.0,0.0,0.0,0.0,0.0,0.0,0.0,0.0,0.0,0.0,0.0,0.0,0.0,0.0,0.0,0.0,0.0,0.0,0.0,0.0,0.0,0.0,0.0,0.0,0.0,0.0,0.0,0.0,0.0,-4.9414,-5.0703,-5.1387,-5.1387,-5.1387,-5.1387,-5.1387,0.0,0.0,0.0,0.0,0.0,0.0,0.0,0.0,0.0,0.0,0.0,0.0,0.0,0.0,0.0,0.0,0.0,0.0,0.0,0.0,0.0,0.0,0.0,0.0,0.0,0.0,0.0,0.0,0.0,0.0,0.0,0.0,0.0,0.0,0.0,0.0,0.0,0.0,0.0,0.0,0.0,0.0,0.0,0.0,0.0,0.0,0.0,0.0,0.0,0.0,0.0,0.0,0.0,0.0,0.0,0.0,0.0,0.0,0.0,0.0,0.0,0.0,0.0,0.0,0.0,0.0,0.0,0.0,0.0,0.0,0.0,0.0,0.0,0.0,0.0,0.0,0.0,0.0,0.0,0.0,0.0,0.0,0.0,0.0,0.0,0.0,0.0,0.0,0.0,0.0,0.0,0.0,0.0,0.0,0.0,0.0,0.0,0.0,0.0,0.0,0.0,0.0,0.0,0.0,0.0,0.0,0.0,0.0,-5.0195,-5.0976,-5.1387,-5.1387,-5.1348,-5.1328,0.0,0.0,0.0,0.0,0.0,0.0,0.0,0.0,0.0,0.0,0.0,0.0,0.0,0.0,0.0,0.0,0.0,0.0,0.0,0.0,0.0,0.0,0.0,0.0,0.0,0.0,0.0,0.0,0.0,0.0,0.0,0.0,0.0,0.0,0.0,0.0,0.0,0.0,0.0,0.0,0.0,0.0,0.0,0.0,0.0,0.0,0.0,0.0,0.0,0.0,0.0,0.0,0.0,0.0,0.0,0.0,0.0,0.0,0.0,0.0,0.0,0.0,0.0,0.0,0.0,0.0,0.0,0.0,0.0,0.0,0.0,0.0,0.0,0.0,0.0,0.0,0.0,0.0,0.0,0.0,0.0,0.0,0.0,0.0,0.0,0.0,0.0,0.0,0.0,0.0,0.0,0.0,0.0,0.0,0.0,0.0,0.0,0.0,0.0,0.0,0.0,0.0,0.0,0.0,0.0,0.0,0.0,0.0,0.0,-5.0195,-5.0996,-5.1387,-5.1387,-5.082,-5.0508,0.0,0.0,0.0,0.0,0.0,0.0,0.0,0.0,0.0,0.0,0.0,0.0,0.0,0.0,0.0,0.0,0.0,0.0,0.0,0.0,0.0,0.0,0.0,0.0,0.0,0.0,0.0,0.0,0.0,0.0,0.0,0.0,0.0,0.0,0.0,0.0,0.0,0.0,0.0,0.0,0.0,0.0,0.0,0.0,0.0,0.0,0.0,0.0,0.0,0.0,0.0,0.0,0.0,0.0,0.0,0.0,0.0,0.0,0.0,0.0,0.0,0.0,0.0,0.0,0.0,0.0,0.0,0.0,0.0,0.0,0.0,0.0,0.0,0.0,0.0,0.0,0.0,0.0,0.0,0.0,0.0,0.0,0.0,0.0,0.0,0.0,0.0,0.0,0.0,0.0,0.0,0.0,0.0,0.0,0.0,0.0,0.0,0.0,0.0,0.0,0.0,0.0,0.0,0.0,0.0,0.0,0.0,0.0,-4.9492,-5.0683,-5.1172,-5.1387,-5.1387,-5.0935,-5.0505,0.0,0.0,0.0,0.0,0.0,0.0,0.0,0.0,0.0,0.0,0.0,0.0,0.0,0.0,0.0,0.0,0.0,0.0,0.0,0.0,0.0,0.0,0.0,0.0,0.0,0.0,0.0,0.0,0.0,0.0,0.0,0.0,0.0,0.0,0.0,0.0,0.0,0.0,0.0,0.0,0.0,0.0,0.0,0.0,0.0,0.0,0.0,0.0,0.0,0.0,0.0,0.0,0.0,0.0,0.0,0.0,0.0,0.0,0.0,0.0,0.0,0.0,0.0,0.0,0.0,0.0,0.0,0.0,0.0,0.0,0.0,0.0,0.0,0.0,0.0,0.0,0.0,0.0,0.0,0.0,0.0,0.0,0.0,0.0,0.0,0.0,0.0,0.0,0.0,0.0,0.0,0.0,0.0,0.0,0.0,0.0,0.0,0.0,0.0,0.0,0.0,0.0,0.0,0.0,0.0,0.0,0.0,0.0,-4.9805,-5.1367,-5.1387,-5.1387,-5.1387,-5.1236,-5.0825,0.0,0.0,0.0,0.0,0.0,0.0,0.0,0.0,0.0,0.0,0.0,0.0,0.0,0.0,0.0,0.0,0.0,0.0,0.0,0.0,0.0,0.0,0.0,0.0,0.0,0.0,0.0,0.0,0.0,0.0,0.0,0.0,0.0,0.0,0.0,0.0,0.0,0.0,0.0,0.0,0.0,0.0,0.0,0.0,0.0,0.0,0.0,0.0,0.0,0.0,0.0,0.0,0.0,0.0,0.0,0.0,0.0,0.0,0.0,0.0,0.0,0.0,0.0,0.0,0.0,0.0,0.0,0.0,0.0,0.0,0.0,0.0,0.0,0.0,0.0,0.0,0.0,0.0,0.0,0.0,0.0,0.0,0.0,0.0,0.0,0.0,0.0,0.0,0.0,0.0,0.0,0.0,0.0,0.0,0.0,0.0,0.0,0.0,0.0,0.0,0.0,0.0,0.0,0.0,0.0,0.0,0.0,0.0,-5.039,-5.1348,-5.1387,-5.1387,-5.1387,-5.067,-4.9927,0.0,0.0,0.0,0.0,0.0,0.0,0.0,0.0,0.0,0.0,0.0,0.0,0.0,0.0,0.0,0.0,0.0,0.0,0.0,0.0,0.0,0.0,0.0,0.0,0.0,0.0,0.0,0.0,0.0,0.0,0.0,0.0,0.0,0.0,0.0,0.0,0.0,0.0,0.0,0.0,0.0,0.0,0.0,0.0,0.0,0.0,0.0,0.0,-5.0905,0.0,0.0,0.0,0.0,0.0,0.0,0.0,0.0,0.0,0.0,0.0,0.0,0.0,0.0,0.0,0.0,0.0,0.0,0.0,0.0,0.0,0.0,0.0,0.0,0.0,0.0,0.0,0.0,0.0,0.0,0.0,0.0,0.0,0.0,0.0,0.0,0.0,0.0,0.0,0.0,0.0,0.0,0.0,0.0,0.0,0.0,0.0,0.0,0.0,0.0,0.0,0.0,0.0,0.0,0.0,0.0,0.0,0.0,0.0,-5.0585,-5.1367,-5.1387,-5.1387,-5.1367,-5.0461,-4.9618,0.0,0.0,0.0,0.0,0.0,0.0,0.0,0.0,0.0,0.0,0.0,0.0,0.0,0.0,0.0,0.0,0.0,0.0,0.0,0.0,0.0,0.0,0.0,0.0,0.0,0.0,0.0,0.0,0.0,0.0,0.0,0.0,0.0,0.0,0.0,0.0,0.0,0.0,0.0,0.0,0.0,0.0,0.0,0.0,0.0,0.0,0.0,0.0,0.0,0.0,0.0,0.0,0.0,0.0,0.0,0.0,0.0,0.0,0.0,0.0,0.0,0.0,0.0,0.0,0.0,0.0,0.0,0.0,0.0,0.0,0.0,0.0,0.0,0.0,0.0,0.0,0.0,0.0,0.0,0.0,0.0,0.0,0.0,0.0,0.0,0.0,0.0,0.0,0.0,0.0,0.0,0.0,0.0,0.0,0.0,0.0,0.0,0.0,0.0,0.0,0.0,0.0,0.0,0.0,0.0,0.0,0.0,-4.98,-5.0583,-5.1365,-5.1386,-5.1387,-5.1386,-5.043,-4.9586,-4.8926,0.0,0.0,0.0,0.0,0.0,0.0,0.0,0.0,0.0,0.0,0.0,0.0,0.0,0.0,0.0,0.0,0.0,0.0,0.0,0.0,0.0,0.0,0.0,0.0,0.0,0.0,0.0,0.0,0.0,0.0,0.0,0.0,0.0,0.0,0.0,0.0,0.0,0.0,-5.0908,-5.0935,0.0,0.0,0.0,0.0,0.0,0.0,0.0,0.0,-5.0748,0.0,0.0,0.0,0.0,0.0,0.0,0.0,0.0,0.0,0.0,0.0,0.0,0.0,0.0,0.0,0.0,0.0,0.0,0.0,0.0,0.0,0.0,0.0,0.0,0.0,0.0,0.0,0.0,0.0,0.0,0.0,0.0,0.0,0.0,0.0,0.0,0.0,0.0,0.0,0.0,0.0,0.0,0.0,0.0,0.0,0.0,0.0,0.0,0.0,0.0,0.0,0.0,0.0,0.0,0.0,0.0,-4.9906,-5.0044,-5.0536,-5.1381,-5.1384,-5.1385,-5.1363,-5.048,-4.9659,-4.8903,0.0,0.0,0.0,0.0,0.0,0.0,0.0,0.0,0.0,0.0,0.0,0.0,0.0,0.0,0.0,0.0,0.0,0.0,0.0,0.0,0.0,0.0,0.0,0.0,0.0,0.0,0.0,0.0,0.0,0.0,0.0,0.0,0.0,0.0,0.0,0.0,0.0,0.0,0.0,-4.9158,-4.9064,0.0,0.0,0.0,0.0,0.0,0.0,0.0,0.0,-5.0731,0.0,0.0,0.0,0.0,0.0,0.0,0.0,0.0,0.0,0.0,0.0,0.0,0.0,0.0,0.0,0.0,0.0,0.0,0.0,0.0,0.0,0.0,0.0,0.0,0.0,0.0,0.0,0.0,0.0,0.0,0.0,0.0,0.0,0.0,0.0,0.0,0.0,0.0,0.0,0.0,0.0,0.0,0.0,0.0,0.0,0.0,0.0,0.0,0.0,0.0,0.0,0.0,0.0,0.0,0.0,-5.0094,-5.0547,-5.0962,-5.1374,-5.1399,-5.1186,-5.0734,-5.0253,-4.9452,0.0,0.0,0.0,0.0,0.0,0.0,0.0,0.0,0.0,0.0,0.0,0.0,0.0,0.0,0.0,0.0,0.0,0.0,0.0,0.0,0.0,0.0,0.0,0.0,0.0,0.0,0.0,0.0,0.0,0.0,0.0,0.0,0.0,0.0,0.0,0.0,0.0,0.0,0.0,0.0,-4.8315,-4.807,-4.8322,0.0,0.0,0.0,0.0,0.0,0.0,-5.02,-4.9932,0.0,0.0,0.0,0.0,0.0,0.0,0.0,0.0,0.0,0.0,0.0,0.0,0.0,0.0,0.0,0.0,0.0,0.0,0.0,0.0,0.0,0.0,0.0,0.0,0.0,0.0,0.0,0.0,0.0,0.0,0.0,0.0,0.0,0.0,0.0,0.0,0.0,0.0,0.0,0.0,0.0,0.0,0.0,0.0,0.0,0.0,0.0,0.0,0.0,0.0,0.0,0.0,0.0,0.0,0.0,-4.987,-5.0699,-5.1231,-5.1387,-5.1394,-5.0967,-5.0126,-4.9902,-4.9101,0.0,0.0,0.0,0.0,0.0,0.0,0.0,0.0,0.0,0.0,0.0,0.0,0.0,0.0,0.0,0.0,0.0,0.0,0.0,0.0,0.0,0.0,0.0,0.0,0.0,0.0,0.0,0.0,0.0,0.0,0.0,0.0,0.0,0.0,0.0,0.0,0.0,0.0,0.0,0.0,0.0,-4.6945,-4.7421,-4.7527,0.0,0.0,0.0,0.0,-5.001,-4.9637,0.0,0.0,0.0,0.0,0.0,0.0,0.0,0.0,0.0,0.0,0.0,0.0,0.0,0.0,0.0,0.0,0.0,0.0,0.0,0.0,0.0,0.0,0.0,0.0,0.0,0.0,0.0,0.0,0.0,0.0,0.0,0.0,0.0,0.0,0.0,0.0,0.0,0.0,0.0,0.0,0.0,0.0,0.0,0.0,0.0,0.0,0.0,0.0,0.0,0.0,0.0,0.0,0.0,0.0,0.0,0.0,-4.8974,-4.9794,-5.0614,-5.1357,-5.1387,-5.0977,-5.0127,-4.9417,-4.8578,0.0,0.0,0.0,0.0,0.0,0.0,0.0,0.0,0.0,0.0,0.0,0.0,0.0,0.0,0.0,0.0,0.0,0.0,0.0,0.0,0.0,0.0,0.0,0.0,0.0,0.0,0.0,0.0,0.0,0.0,0.0,0.0,0.0,0.0,0.0,0.0,0.0,0.0,0.0,0.0,0.0,-4.4935,-4.4773,-4.5312,-4.6272,0.0,0.0,-4.9007,-4.9237,-4.9222,0.0,0.0,0.0,0.0,0.0,0.0,0.0,0.0,0.0,0.0,0.0,0.0,0.0,0.0,0.0,0.0,0.0,0.0,0.0,0.0,0.0,0.0,0.0,0.0,0.0,0.0,0.0,0.0,0.0,0.0,0.0,0.0,0.0,0.0,0.0,0.0,0.0,0.0,0.0,0.0,0.0,0.0,0.0,0.0,0.0,0.0,0.0,0.0,0.0,0.0,0.0,0.0,0.0,0.0,0.0,-4.8798,-4.8818,-4.9169,-4.9792,-5.0612,-5.0168,-4.9741,-4.9364,-4.9036,-4.8216,0.0,0.0,0.0,0.0,0.0,0.0,0.0,0.0,0.0,0.0,0.0,0.0,0.0,0.0,0.0,0.0,0.0,0.0,0.0,0.0,0.0,0.0,0.0,0.0,0.0,0.0,0.0,0.0,0.0,0.0,0.0,0.0,0.0,0.0,0.0,0.0,0.0,0.0,0.0,0.0,0.0,0.0,-4.4254,-4.4834,0.0,0.0,0.0,-4.7002,-4.7535,0.0,0.0,0.0,0.0,0.0,0.0,0.0,0.0,0.0,0.0,0.0,0.0,0.0,0.0,0.0,0.0,0.0,0.0,0.0,0.0,0.0,0.0,0.0,0.0,0.0,0.0,0.0,0.0,0.0,0.0,0.0,0.0,0.0,0.0,0.0,0.0,0.0,0.0,0.0,0.0,0.0,0.0,0.0,0.0,0.0,0.0,0.0,0.0,0.0,0.0,0.0,0.0,0.0,0.0,0.0,0.0,0.0,-4.8505,-4.8701,-4.913,-4.9733,-4.915,-4.872,-4.8505,-4.8505,0.0,0.0,0.0,0.0,0.0,0.0,0.0,0.0,0.0,0.0,0.0,0.0,0.0,0.0,0.0,0.0,0.0,0.0,0.0,0.0,0.0,0.0,0.0,0.0,0.0,0.0,0.0,-4.4754,0.0,0.0,0.0,0.0,0.0,0.0,0.0,0.0,0.0,0.0,0.0,0.0,0.0,0.0,-4.4039,-4.4144,-4.4611,-4.5314,0.0,0.0,-4.5695,-4.6383,-4.5984,-4.5239,0.0,0.0,0.0,0.0,0.0,0.0,0.0,0.0,0.0,0.0,0.0,0.0,0.0,0.0,0.0,0.0,0.0,0.0,0.0,0.0,0.0,0.0,0.0,0.0,0.0,0.0,0.0,0.0,0.0,0.0,0.0,0.0,0.0,0.0,0.0,0.0,0.0,0.0,0.0,0.0,0.0,0.0,0.0,0.0,0.0,0.0,0.0,0.0,0.0,0.0,0.0,0.0,0.0,0.0,0.0,-4.7703,-4.8408,-4.8798,-4.8876,-4.8837,-4.8447,-4.7703,-4.7664,-4.7237,0.0,0.0,0.0,0.0,0.0,0.0,0.0,0.0,0.0,0.0,0.0,0.0,0.0,0.0,0.0,0.0,0.0,0.0,0.0,0.0,0.0,0.0,0.0,0.0,0.0,0.0,0.0,0.0,0.0,0.0,0.0,0.0,0.0,0.0,0.0,0.0,0.0,0.0,0.0,0.0,0.0,-4.34,-4.402,-4.4144,-4.4736,0.0,0.0,-4.6432,-4.6481,-4.6443,-4.587,-4.4255,0.0,0.0,0.0,0.0,0.0,0.0,0.0,0.0,0.0,0.0,0.0,0.0,0.0,0.0,0.0,0.0,0.0,0.0,0.0,0.0,0.0,0.0,0.0,0.0,0.0,0.0,0.0,0.0,0.0,0.0,0.0,0.0,0.0,0.0,0.0,0.0,0.0,0.0,0.0,0.0,0.0,0.0,0.0,0.0,0.0,0.0,0.0,0.0,0.0,0.0,0.0,0.0,0.0,-4.6798,-4.6798,-4.7098,-4.751,-4.8016,-4.7549,-4.7354,-4.7606,-4.7081,-4.6632,0.0,0.0,0.0,0.0,0.0,0.0,0.0,0.0,0.0,0.0,0.0,0.0,0.0,0.0,0.0,0.0,0.0,0.0,0.0,0.0,0.0,0.0,0.0,0.0,0.0,0.0,0.0,0.0,-4.5723,-4.5814,-4.6027,0.0,0.0,0.0,0.0,0.0,0.0,0.0,0.0,0.0,0.0,-4.3925,-4.4603,-4.5068,0.0,0.0,-4.6663,-4.6161,-4.581,-4.5243,-4.4446,-4.331,-4.2701,0.0,0.0,0.0,0.0,0.0,0.0,0.0,0.0,0.0,0.0,0.0,0.0,0.0,0.0,0.0,0.0,0.0,0.0,0.0,0.0,0.0,0.0,0.0,0.0,0.0,0.0,0.0,0.0,0.0,0.0,0.0,0.0,0.0,0.0,0.0,0.0,0.0,0.0,0.0,0.0,0.0,0.0,0.0,0.0,0.0,0.0,0.0,0.0,0.0,0.0,0.0,0.0,-4.626,-4.626,-4.6269,-4.6564,-4.7168,-4.6583,-4.6566,-4.7129,-4.6353,-4.5906,0.0,0.0,0.0,0.0,0.0,0.0,0.0,0.0,0.0,0.0,0.0,0.0,0.0,0.0,0.0,0.0,0.0,0.0,0.0,0.0,0.0,0.0,0.0,0.0,0.0,0.0,0.0,0.0,-4.4996,-4.5124,-4.5319,0.0,0.0,0.0,0.0,0.0,0.0,0.0,0.0,0.0,0.0,-4.4315,-4.53,-4.584,-4.6436,-4.739,-4.672,-4.5961,-4.5605,-4.4775,-4.3923,-4.3093,0.0,0.0,0.0,0.0,0.0,0.0,0.0,0.0,0.0,0.0,0.0,0.0,0.0,0.0,0.0,0.0,0.0,0.0,0.0,0.0,0.0,0.0,0.0,0.0,0.0,0.0,0.0,0.0,0.0,0.0,0.0,0.0,0.0,0.0,0.0,0.0,0.0,0.0,0.0,0.0,0.0,0.0,0.0,0.0,0.0,0.0,0.0,0.0,0.0,0.0,0.0,0.0,0.0,-4.6209,-4.6209,-4.6209,-4.6209,-4.6228,-4.6209,-4.617,-4.6189,-4.5438,-4.5033,-4.5033,0.0,0.0,0.0,0.0,0.0,0.0,0.0,0.0,0.0,0.0,0.0,0.0,0.0,0.0,0.0,0.0,0.0,0.0,0.0,0.0,0.0,0.0,0.0,0.0,0.0,0.0,-4.3288,-4.3439,-4.3617,0.0,0.0,0.0,0.0,0.0,0.0,0.0,0.0,0.0,0.0,-4.3916,-4.4398,-4.6031,-4.6182,-4.6455,-4.7308,-4.6702,-4.6089,-4.6064,-4.5497,-4.4779,0.0,0.0,0.0,0.0,0.0,0.0,0.0,0.0,0.0,0.0,0.0,0.0,0.0,0.0,0.0,0.0,0.0,0.0,0.0,0.0,0.0,0.0,0.0,0.0,0.0,0.0,0.0,-4.9948,-4.8066,0.0,0.0,0.0,0.0,0.0,0.0,0.0,0.0,0.0,0.0,0.0,-4.6735,-4.6309,0.0,0.0,0.0,0.0,0.0,0.0,0.0,0.0,0.0,0.0,0.0,0.0,-4.6212,-4.6212,-4.6201,-4.5916,-4.535,-4.5331,-4.5077,-4.4553,-4.4282,-4.4146,-4.4146,0.0,0.0,0.0,0.0,0.0,0.0,0.0,0.0,0.0,0.0,0.0,0.0,0.0,0.0,0.0,0.0,0.0,0.0,0.0,0.0,0.0,0.0,0.0,0.0,0.0,-4.2464,0.0,0.0,0.0,0.0,0.0,0.0,0.0,0.0,0.0,0.0,0.0,-4.2395,-4.3828,-4.3895,-4.4593,-4.6739,-4.6915,-4.7138,0.0,0.0,0.0,0.0,0.0,0.0,0.0,0.0,0.0,0.0,0.0,0.0,0.0,0.0,-4.1174,-4.2008,-4.1503,-4.0958,-4.0981,0.0,0.0,0.0,0.0,0.0,0.0,0.0,0.0,0.0,0.0,0.0,0.0,0.0,0.0,0.0,0.0,-4.7096,0.0,0.0,0.0,0.0,0.0,0.0,0.0,0.0,-4.6933,-4.681,-4.7081,-4.6627,-4.6246,0.0,-4.6096,-4.6151,0.0,0.0,0.0,0.0,0.0,0.0,0.0,0.0,-4.5748,-4.5748,-4.5445,-4.5022,-4.4476,-4.4437,-4.4184,-4.3677,-4.339,-4.31,-4.2807,-4.3592,-4.3534,0.0,0.0,0.0,0.0,0.0,0.0,0.0,0.0,0.0,0.0,0.0,0.0,0.0,0.0,0.0,0.0,0.0,0.0,0.0,0.0,0.0,0.0,0.0,-4.1732,0.0,0.0,0.0,0.0,0.0,0.0,0.0,0.0,0.0,-4.2385,-4.2537,-4.3069,-4.4244,-4.4257,-4.4834,-4.6631,0.0,0.0,0.0,0.0,0.0,0.0,0.0,-4.4719,-4.4827,-4.444,-4.4072,-4.3909,-4.285,-4.2039,-4.2113,0.0,0.0,-4.124,-4.0849,-4.0523,-4.0565,-4.0595,-4.0771,-4.1333,-4.1489,-4.153,0.0,0.0,0.0,0.0,0.0,0.0,0.0,0.0,-4.9279,-4.8043,0.0,-4.7076,0.0,0.0,0.0,0.0,0.0,0.0,0.0,0.0,-4.7988,-4.7625,-4.6931,-4.6924,-4.6513,-4.5745,-4.5952,-4.6041,-4.594,-4.6068,0.0,0.0,0.0,0.0,0.0,0.0,-4.4851,-4.4835,-4.4052,-4.3601,-4.3562,-4.3562,-4.3543,-4.3465,-4.276,-4.1992,-4.1231,-4.2044,-4.2473,-4.2457,-4.2493,0.0,0.0,0.0,0.0,0.0,0.0,0.0,0.0,0.0,0.0,0.0,0.0,0.0,0.0,0.0,0.0,0.0,0.0,0.0,0.0,-4.0487,0.0,0.0,0.0,0.0,0.0,0.0,0.0,0.0,0.0,0.0,-4.3142,-4.3774,-4.4401,-4.5006,0.0,0.0,0.0,0.0,-4.6017,-4.6843,-4.6242,-4.5697,-4.566,-4.5114,-4.468,-4.4712,0.0,0.0,-4.4119,-4.3357,-4.2814,-4.2841,-4.2169,-4.1447,-4.0654,-4.0527,-4.0496,-4.0504,-4.0564,-4.0588,-4.0621,-4.0784,-4.0868,-5.1145,0.0,0.0,0.0,0.0,-4.9067,-4.8239,-4.7512,-4.8242,-4.765,-4.6213,-4.6825,0.0,0.0,0.0,0.0,0.0,0.0,-4.6505,-4.7234,-4.6613,-4.6509,-4.6874,-4.6383,-4.5984,-4.5712,-4.5828,-4.5547,-4.4962,-4.5064,-4.5495,-4.6157,0.0,0.0,0.0,0.0,-4.3971,-4.3952,-4.3718,-4.3289,-4.2685,-4.2666,-4.2393,-4.1828,-4.1601,-4.1623,-4.1955,-4.2796,-4.3201,-4.3119,-4.3718,0.0,0.0,0.0,0.0,0.0,0.0,0.0,0.0,0.0,0.0,0.0,0.0,0.0,0.0,0.0,0.0,0.0,0.0,0.0,-4.037,-4.0503,-4.0735,0.0,0.0,0.0,0.0,0.0,0.0,0.0,0.0,0.0,-4.4014,-4.4021,-4.4274,0.0,0.0,-4.5034,-4.5787,-4.5796,-4.5791,-4.6035,0.0,0.0,0.0,-4.4693,-4.4619,-4.4808,-4.508,-4.4959,-4.414,-4.3796,-4.3301,-4.2276,-4.1853,-4.1447,-4.0704,-4.0496,-4.0512,-4.0564,-4.0581,-4.0628,-4.072,-4.0784,-4.0797,-5.13,-5.1222,-5.0346,-4.9937,-4.9718,-4.9011,-4.8263,-4.7589,-4.8237,-4.7669,-4.6348,-4.6864,-4.6631,-4.5807,-4.5807,0.0,0.0,0.0,-4.6703,-4.7433,-4.6889,-4.6719,-4.6855,-4.6428,-4.6012,-4.561,-4.5699,-4.5457,-4.4908,-4.435,-4.4586,-4.5454,0.0,0.0,-4.4304,-4.3502,-4.3066,-4.3035,-4.27,-4.2272,-4.1766,-4.1747,-4.1521,-4.1087,-4.1019,-4.1225,-4.1743,-4.2838,-4.3238,-4.2826,-4.3635,-4.3562,0.0,0.0,0.0,0.0,0.0,0.0,0.0,0.0,0.0,0.0,0.0,-4.1361,0.0,0.0,0.0,0.0,-4.0253,-4.0291,-4.0398,-4.0495,0.0,0.0,0.0,0.0,0.0,0.0,0.0,-4.5244,-4.4884,-4.4601,-4.4778,-4.4547,-4.4538,-4.4969,-4.4833,-4.4855,-4.5273,0.0,-4.5228,-4.5228,-4.5228,-4.5059,-4.4576,-4.4482,-4.4578,-4.4846,-4.5061,-4.5082,-4.4637,-4.4275,-4.3732,-4.288,-4.215,-4.1552,-4.1088,-4.0773,-4.0546,-4.0598,-4.0581,-4.0635,-4.0746,-4.0765,-4.0797,-5.1292,-5.1219,-5.0435,-5.0517,-5.1024,-4.9419,-4.9114,-4.9726,-4.8858,-4.7959,-4.7103,-4.7096,-4.6619,-4.5807,-4.5807,0.0,0.0,-4.6986,-4.7352,-4.81,-4.8022,-4.7584,-4.6817,-4.6797,-4.6301,-4.541,-4.559,-4.5577,-4.5288,-4.3901,-4.3555,-4.4253,-4.3675,-4.337,-4.3342,-4.2606,-4.2138,-4.2097,-4.1315,-4.0903,-4.0878,-4.0878,-4.0917,-4.0971,-4.0849,-4.0798,-4.0903,-4.2297,-4.2711,-4.1957,-4.2705,-4.3086,-4.2863,0.0,0.0,0.0,0.0,0.0,0.0,0.0,0.0,0.0,0.0,0.0,0.0,0.0,0.0,0.0,-4.0196,0.0,-4.0389,-4.0537,0.0,0.0,0.0,-4.3066,-4.4718,-4.4252,-4.4418,-4.5944,0.0,0.0,0.0,0.0,-4.5049,-4.4907,-4.4757,-4.4632,-4.4528,-4.4533,-4.4482,-4.4538,-4.4501,-4.4501,-4.4501,-4.4524,-4.4576,-4.4707,-4.4919,-4.4979,-4.4923,-4.4439,-4.403,-4.38,-4.2705,-4.1654,-4.1684,-4.1039,-4.0588,-4.0595,-4.0605,-4.0628,-4.07,-4.0771,-4.0797,-5.1225,-5.1205,-5.1011,-5.0702,-5.0225,-4.9166,-4.8788,-4.8891,-4.8606,-4.7979,-4.7103,-4.7096,-4.6612,-4.5807,-4.5807,-4.5904,-4.6109,-4.6063,-4.6121,-4.6298,-4.6262,-4.6103,-4.5913,-4.5902,-4.5733,-4.541,-4.5457,-4.5074,-4.4336,-4.3466,-4.2807,-4.2341,-4.1648,-4.1693,-4.2368,-4.1646,-4.1228,-4.1199,-4.1005,-4.084,-4.0751,-4.0732,-4.0709,-4.061,-4.0578,-4.0591,-4.063,-4.1569,-4.1989,-4.1716,-4.2513,-4.262,-4.1876,-4.1083,0.0,0.0,0.0,0.0,0.0,0.0,0.0,0.0,0.0,-3.9671,-4.0177,0.0,-4.0196,0.0,-4.0157,-4.0225,-4.0316,-4.102,0.0,0.0,-4.3319,-4.437,-4.4838,-4.5351,-4.5781,-4.613,-4.5866,-4.5605,-4.5496,-4.5254,-4.5015,-4.4783,-4.4632,-4.4524,-4.4482,-4.4482,-4.4482,-4.4482,-4.4482,-4.4482,-4.4439,-4.4685,-4.4562,-4.4011,-4.4121,-4.4052,-4.3501,-4.3254,-4.2929,-4.2439,-4.2014,-4.1489,-4.0923,-4.0681,-4.0615,-4.0612,-4.0647,-4.07,-4.0759,-4.079,-4.0797,-5.115,-5.115,-5.115,-5.0899,-5.0456,-4.9934,-4.9501,-4.9096,-4.8657,-4.7944,-4.7076,-4.6697,-4.6252,-4.5826,-4.5807,-4.5807,-4.58,-4.5761,-4.5723,-4.568,-4.5654,-4.5631,-4.5594,-4.5594,-4.5522,-4.5391,-4.5036,-4.4556,-4.3959,-4.2881,-4.2064,-4.1567,-4.0833,-4.0727,-4.1217,-4.0862,-4.0686,-4.0717,-4.0655,-4.061,-4.0523,-4.0523,-4.0489,-4.0441,-4.0392,-4.0369,-4.0408,-4.0806,-4.0827,-4.0413,-4.0843,-4.0701,-3.9824,-3.9357,-3.8718,0.0,0.0,0.0,0.0,0.0,0.0,0.0,0.0,0.0,0.0,0.0,-4.0128,0.0,-4.0489,0.0,-4.0872,-4.1763,-4.2545,-4.3066,-4.4104,-4.4945,-4.5429,-4.5975,-4.6269,-4.6208,-4.6105,-4.5905,-4.5595,-4.5418,-4.5182,-4.4789,-4.436,-4.4199,-4.4453,-4.4482,-4.4482,-4.4482,-4.4195,-4.382,-4.3468,-4.3624,-4.3644,-4.3201,-4.3287,-4.3291,-4.2881,-4.2508,-4.2171,-4.1775,-4.1415,-4.1061,-4.0646,-4.0569,-4.0605,-4.0647,-4.07,-4.0765,-4.079,-4.0797,-4.0797,-5.1087,-5.1087,-5.1093,-5.1093,-5.1087,-5.1037,-5.0583,-4.9872,-4.8854,-4.785,-4.689,-4.6136,-4.5807,-4.5807,-4.5807,-4.5807,-4.58,-4.5776,-4.5758,-4.57,-4.569,-4.5648,-4.5594,-4.5594,-4.5541,-4.5371,-4.4576,-4.4193,-4.4112,-4.2374,-4.1514,-4.1512,-4.0711,-4.0243,-4.0195,-4.0281,-4.038,-4.0488,-4.0348,-4.0281,-4.0264,-4.0283,-4.029,-4.0321,-4.0232,-4.0129,-4.0095,-3.9977,-3.9517,-3.8689,-3.8699,-3.8375,-3.7661,-3.7604,-3.7271,0.0,-3.7833,0.0,0.0,0.0,0.0,0.0,0.0,0.0,0.0,-4.0096,-4.0124,-4.0229,-4.0935,-4.1501,-4.1724,-4.2591,-4.3525,-4.4387,-4.4702,-4.5244,-4.6081,-4.6254,-4.6288,-4.6219,-4.605,-4.5799,-4.5445,-4.534,-4.5054,-4.4479,-4.3881,-4.3658,-4.4094,-4.4105,-4.405,-4.4182,-4.3595,-4.29,-4.2357,-4.2322,-4.2431,-4.2352,-4.246,-4.2603,-4.2422,-4.1913,-4.1536,-4.1464,-4.0995,-4.0562,-4.058,-4.0579,-4.0621,-4.0674,-4.0746,-4.081,-4.0797,-4.0797,-4.0797,-5.1017,-5.1017,-5.1017,-5.1017,-5.101,-5.094,-5.0862,-5.0648,-4.9086,-4.7521,-4.6058,-4.5884,-4.5807,-4.5807,-4.5807,-4.5807,-4.58,-4.5754,-4.5715,-4.568,-4.5646,-4.5603,-4.5594,-4.5594,-4.5541,-4.5352,-4.4595,-4.448,-4.501,-4.266,-4.1819,-4.2399,-4.092,-4.0158,-4.0196,0.0,0.0,0.0,-4.0317,-4.0248,-4.0148,-4.0139,-4.0091,-4.0,-3.9977,0.0,-3.9029,-3.8998,-3.859,-3.7813,-3.7756,0.0,0.0,0.0,0.0,0.0,0.0,0.0,0.0,0.0,0.0,0.0,-3.9659,-3.9954,-4.0007,-3.9984,-4.0257,-4.0994,-4.1276,-4.17,-4.2409,-4.3388,-4.4113,-4.4467,-4.5239,-4.5885,-4.6178,-4.6234,-4.6288,-4.6199,-4.5524,-4.4924,-4.4597,-4.3944,-4.3427,-4.3165,-4.2893,-4.2845,-4.2944,-4.2761,-4.2506,-4.2455,-4.2361,-4.2232,-4.2184,-4.2219,-4.2037,-4.1719,-4.1625,-4.1514,-4.0949,-4.0764,-4.0673,-4.0705,-4.06,-4.0492,-4.058,-4.0586,-4.0628,-4.0674,-4.0752,-4.0797,-4.0797,-4.0797,-4.0797,-5.0959,0.0,-5.0959,-5.0959,0.0,-5.0894,-5.0697,-5.0262,-4.8967,-4.7424,-4.5826,-4.5807,-4.5807,-4.5807,-4.5807,-4.5807,-4.58,-4.5746,-4.5688,-4.568,-4.5637,-4.5594,-4.5594,-4.5568,-4.5504,-4.5352,-4.4116,-4.3905,-4.4494,-4.2125,-4.1303,-4.2015,-4.0736,-4.0087,-4.0059,-3.9935,-3.9967,-4.0101,-4.0101,-4.0041,-3.9908,-3.9916,-3.9654,-3.9139,0.0,0.0,0.0,0.0,0.0,0.0,0.0,0.0,0.0,0.0,0.0,-3.692,-3.7679,-3.8125,-3.8124,-3.8801,-3.9223,-3.9191,-3.9501,-3.977,-3.9933,-3.9922,-4.01,-4.058,-4.1083,-4.1575,-4.2037,-4.2948,-4.3626,-4.3861,-4.4368,-4.4768,-4.4889,-4.4984,-4.4999,-4.4894,-4.4481,-4.4069,-4.3879,-4.3482,-4.3081,-4.2811,-4.241,-4.2134,-4.2038,-4.2105,-4.2002,-4.1518,-4.1404,-4.1286,-4.1047,-4.1071,-4.1119,-4.08,-4.0816,-4.0548,-3.9855,-3.9783,-3.9843,-3.9892,-3.9892,-4.0015,-4.0514,-4.0626,-4.0687,-4.0739,-4.0784,-4.0797,-4.0797,-4.0797,-4.0797,-5.0882,-5.0898,-5.0898,-5.0898,-5.0879,-5.0743,-5.0117,-4.9154,0.0,0.0,0.0,-4.5807,-4.5807,-4.5807,-4.5807,-4.5807,-4.58,-4.5746,-4.5688,-4.568,-4.5618,-4.5594,-4.5594,-4.5531,-4.5466,-4.5333,-4.381,-4.3388,-4.3892,-4.1638,-4.0816,-4.1279,-4.0535,-4.0045,-3.99,-3.99,-3.9889,-3.9848,-3.9867,-3.9758,-3.9497,-3.9455,-3.902,-3.8099,-3.8192,-3.786,-3.706,-3.6344,-3.5941,-3.5891,-3.5167,-3.479,-3.4869,-3.5806,-3.6374,-3.6431,-3.7907,-3.8853,-3.8853,-3.935,-3.9651,-3.967,-3.9556,-3.9611,-3.9878,-3.9878,-3.9935,-4.0127,-4.09,-4.145,-4.1588,-4.2355,-4.2968,-4.313,-4.331,-4.3466,-4.3596,-4.3656,-4.3749,-4.3606,-4.3442,-4.3261,-4.317,-4.2924,-4.28,-4.2541,-4.1952,-4.1453,-4.135,-4.1546,-4.1541,-4.0892,-4.0731,-4.0462,-3.9993,-3.9757,-3.9777,-3.9937,-3.9881,-3.9616,-3.9092,-3.8914,-3.9039,-3.9361,-3.9314,-3.9697,-4.0421,-4.0661,-4.0713,-4.0771,-4.0803,-4.0803,-4.0809,-4.0809,-4.0809,-5.0799,-5.0898,-5.0898,-5.0898,-5.084,-5.0144,-4.8871,-4.7304,-4.7283,-4.6728,-4.5826,-4.5807,-4.5807,-4.5807,-4.5807,-4.5807,-4.58,-4.5739,-4.5688,0.0,-4.5618,-4.5594,-4.5594,-4.5605,-4.5532,-4.5333,-4.4432,-4.3991,-4.3806,-4.2202,-4.1351,-4.1279,-4.0516,-4.0036,-3.99,-3.99,-3.9856,-3.9728,-3.9728,-3.9388,-3.8678,-3.8557,-3.8103,-3.7321,-3.7276,-3.6893,-3.6054,-3.5885,-3.5509,-3.4862,-3.469,-3.4626,-3.4693,-3.6103,-3.6968,-3.7062,-3.8491,-3.9394,-3.9375,-3.9476,-3.9539,-3.9539,-3.9495,-3.9611,-3.9848,-3.9792,-4.0065,-4.0912,-4.1141,-4.1635,-4.2326,-4.2584,-4.2754,-4.2956,-4.3228,-4.3428,-4.3413,-4.3533,-4.3554,-4.3468,-4.2929,-4.2423,-4.2255,-4.1689,-4.1273,-4.1139,-4.0919,-4.0808,-4.0596,-4.0535,-4.0444,-4.0301,-4.0175,-4.0146,-3.9939,-3.9452,-3.9119,-3.9211,-3.8672,-3.8328,-3.8132,-3.8159,-3.8439,-3.9141,-3.9259,-3.9673,-4.0487,-4.0694,-4.0746,-4.0796,-4.0808,-4.08,-4.0804,-4.0809,-4.0804,-5.0577,-5.0615,-5.0625,-5.0374,-4.9883,-4.8612,-4.7594,-4.677,-4.6371,-4.6015,-4.5712,-4.5759,-4.5807,-4.5807,-4.5807,-4.5812,-4.5771,-4.5295,-4.5036,-4.4993,-4.4927,-4.4902,-4.4932,-4.5302,-4.5467,-4.5343,-4.4518,-4.4057,-4.3902,-4.2794,-4.1923,-4.1383,-4.0454,-3.9954,-3.9881,-3.9391,-3.912,-3.9056,-3.9056,-3.8799,-3.8281,-3.7802,-3.7123,-3.6247,-3.6269,-3.5892,-3.5075,-3.5038,-3.4903,-3.462,-3.4547,-3.4517,-3.4639,-3.6049,-3.6888,-3.6925,-3.8281,-3.9122,-3.9122,-3.9059,-3.9017,-3.8999,-3.8933,-3.9017,-3.9281,-3.9477,-3.9774,-4.0248,-4.0401,-4.0642,-4.1035,-4.1273,-4.1445,-4.1574,-4.1795,-4.1995,-4.211,-4.2217,-4.2265,-4.2163,-4.1828,-4.1501,-4.1405,-4.1058,-4.0589,-4.0196,-3.9768,-3.9435,-3.9297,-3.9211,-3.9246,-3.9404,-3.9087,-3.8856,-3.8969,-3.8668,-3.8404,-3.8541,-3.8234,-3.7805,-3.7513,-3.7614,-3.814,-3.8567,-3.8999,-3.9675,-4.0526,-4.0733,-4.0764,-4.0782,-4.0798,-4.0809,-4.0807,-4.0818,-4.0856,-5.0391,-5.0385,-5.0212,-4.9552,-4.8536,-4.7261,-4.6579,-4.63,-4.5659,-4.5457,-4.5519,-4.5653,-4.5723,-4.5745,-4.5764,-4.566,-4.5433,-4.4797,-4.4353,-4.4113,-4.4245,-4.4316,-4.4385,-4.5091,-4.5429,-4.5323,-4.4661,-4.4209,-4.394,-4.3195,-4.2209,-4.1174,-4.0496,-4.0089,-3.99,-3.898,-3.8478,-3.8437,-3.8075,-3.7753,-3.753,-3.6907,-3.6143,-3.5281,-3.5261,-3.4974,-3.4407,-3.4351,-3.4386,-3.4495,-3.4363,-3.4328,-3.4465,-3.5585,-3.6361,-3.6607,-3.7576,-3.8247,-3.8435,-3.8517,-3.8566,-3.8551,-3.846,-3.8491,-3.8715,-3.9027,-3.9292,-3.9338,-3.9502,-3.9642,-3.9785,-3.9975,-4.0148,-4.0353,-4.0584,-4.0863,-4.0967,-4.0885,-4.0781,-4.0723,-4.0506,-4.0322,-4.0242,-4.0236,-3.9942,-3.9282,-3.8683,-3.8315,-3.8236,-3.8141,-3.8148,-3.8274,-3.8066,-3.7982,-3.7933,-3.7763,-3.7726,-3.7814,-3.7613,-3.7295,-3.7027,-3.7477,-3.809,-3.8415,-3.9007,-3.9752,-4.0527,-4.0784,-4.0832,-4.0814,-4.0833,-4.0837,-4.0828,-4.0863,-4.0883,-5.0279,-5.0278,-4.9608,-4.8363,-4.7011,-4.6752,-4.6164,-4.5428,-4.538,-4.5331,-4.5258,-4.5362,-4.5502,-4.5613,-4.5621,-4.5268,-4.4665,-4.4546,-4.4018,-4.3346,-4.3976,-4.4316,-4.4327,-4.5173,-4.5513,-4.541,-4.5275,-4.4766,-4.3987,-4.3147,-4.1932,-4.0497,-4.08,-4.062,-3.9889,-3.8961,-3.8414,-3.8291,-3.6759,-3.5939,-3.5923,-3.5727,-3.5206,-3.4358,-3.4339,-3.4296,-3.4221,-3.4221,-3.4221,-3.4221,-3.4049,-3.3947,-3.4039,-3.4605,-3.5297,-3.5977,-3.6197,-3.6562,-3.7277,-3.8011,-3.8346,-3.8415,-3.8312,-3.8293,-3.8323,-3.8405,-3.8576,-3.8707,-3.8812,-3.9072,-3.9383,-3.9526,-3.9726,-4.002,-4.0344,-4.0752,-4.0676,-4.0309,-3.9922,-3.9912,-3.9301,-3.8673,-3.8756,-3.8695,-3.8554,-3.8456,-3.817,-3.8001,-3.7957,-3.7507,-3.7153,-3.7311,-3.763,-3.802,-3.7928,-3.7394,-3.7041,-3.6966,-3.6459,-3.6451,-3.6864,-3.7234,-3.7541,-3.901,-3.9536,-4.0007,-4.0544,-4.0894,-4.0874,-4.0886,-4.0876,-4.0873,-4.0893,-4.0898,-4.0883,-4.9778,-4.9377,-4.9046,-4.7929,-4.6443,-4.5883,-4.5399,-4.5045,-4.5095,-4.5065,-4.5026,-4.5076,-4.5241,-4.5455,-4.54,-4.4921,-4.4133,-4.3652,-4.2899,-4.2059,-4.2891,-4.3359,-4.3484,-4.471,-4.5313,-4.54,-4.5409,-4.4919,-4.3911,-4.2638,-4.1824,-4.1495,-4.0856,-4.026,-3.9832,-3.8882,-3.8138,-3.7554,-3.6266,-3.5336,-3.487,-3.4754,-3.4562,-3.4253,-3.4216,-3.4216,-3.4204,-3.4086,-3.4023,-3.4011,-3.3716,-3.355,-3.3569,-3.4006,-3.4411,-3.4753,-3.5052,-3.5362,-3.5719,-3.6434,-3.6684,-3.6255,-3.6631,-3.6684,-3.6273,-3.6323,-3.6443,-3.668,-3.7838,-3.8604,-3.8303,-3.845,-3.8536,-3.8443,-3.8595,-3.8868,-3.899,-3.8934,-3.8859,-3.8885,-3.8649,-3.8413,-3.8277,-3.7909,-3.7618,-3.7463,-3.7182,-3.6914,-3.6823,-3.6502,-3.6354,-3.6374,-3.6649,-3.6811,-3.6839,-3.6569,-3.6354,-3.6375,-3.6505,-3.6774,-3.7105,-3.8079,-3.8867,-3.961,-4.0012,-4.0388,-4.0775,-4.0922,-4.0953,-4.0875,-4.0926,-4.0953,-4.0964,-4.0928,-4.0883,-4.9189,-4.8666,-4.8225,-4.7169,-4.5805,-4.5179,-4.4895,-4.4895,-4.4895,-4.4889,-4.4852,-4.4833,-4.4948,-4.5135,-4.5107,-4.4639,-4.3778,-4.2992,-4.207,-4.1252,-4.1905,-4.2368,-4.2713,-4.4005,-4.4865,-4.5161,-4.5269,-4.4734,-4.3652,-4.2444,-4.1821,-4.1743,-4.0781,-4.0127,-3.9821,-3.8859,-3.7927,-3.7073,-3.6018,-3.5014,-3.4235,-3.4061,-3.4061,-3.4111,-3.4049,-3.3999,-3.3954,-3.3752,-3.3657,-3.3662,-3.3317,-3.3157,-3.3144,-3.3351,-3.3454,-3.3543,-3.4252,-3.4584,-3.4408,-3.5076,-3.5269,-3.4812,-3.5217,-3.5287,-3.4849,-3.4835,-3.4942,-3.5173,-3.6615,-3.7296,-3.7118,-3.723,-3.719,-3.6892,-3.7181,-3.7472,-3.7689,-3.7785,-3.7825,-3.7895,-3.7704,-3.7695,-3.762,-3.7158,-3.6746,-3.6644,-3.6241,-3.581,-3.5815,-3.5877,-3.5864,-3.5892,-3.5921,-3.594,-3.5901,-3.5989,-3.599,-3.637,-3.683,-3.7292,-3.7732,-3.9078,-3.9891,-4.0213,-4.0673,-4.0712,-4.051,-4.059,-4.0478,-4.0352,-4.0313,-4.0312,-4.0079,-4.0231,-4.0209,-4.8564,-4.8458,-4.698,-4.583,-4.4971,-4.4902,-4.4883,-4.487,-4.4883,-4.4821,-4.4725,-4.4712,-4.4659,-4.4573,-4.4801,-4.4429,-4.3582,-4.2815,-4.1984,-4.1192,-4.1275,-4.1628,-4.2348,-4.3251,-4.4044,-4.4688,-4.4858,-4.4271,-4.2906,-4.2595,-4.1734,-4.0333,-4.0718,-4.0617,-3.9845,-3.895,-3.8045,-3.712,-3.5982,-3.4894,-3.4037,-3.3758,-3.3739,-3.3855,-3.372,-3.3556,-3.3375,-3.3145,-3.3036,-3.3054,-3.2842,-3.2734,-3.2702,-3.2506,-3.2423,-3.2546,-3.3775,-3.432,-3.374,-3.4249,-3.4653,-3.4618,-3.4599,-3.4707,-3.446,-3.4461,-3.4551,-3.4907,-3.503,-3.5358,-3.5719,-3.5944,-3.621,-3.646,-3.688,-3.7129,-3.7356,-3.6901,-3.6838,-3.6823,-3.6486,-3.6257,-3.6111,-3.597,-3.6026,-3.6019,-3.5931,-3.5877,-3.5853,-3.5873,-3.588,-3.5885,-3.5897,-3.5919,-3.5941,-3.6157,-3.6467,-3.6887,-3.7351,-3.7868,-3.8983,-3.9961,-4.0371,-4.0644,-4.0781,-4.0625,-4.0153,-3.9765,-3.9469,-3.9265,-3.9061,-3.8993,-3.9247,-3.8816,-3.8879,-4.8449,-4.741,-4.5776,-4.4909,-4.4665,-4.4646,-4.4627,-4.4646,-4.4646,-4.4619,-4.4578,-4.4584,-4.4515,-4.4373,-4.4477,-4.4044,-4.3216,-4.2994,-4.2383,-4.1568,-4.2126,-4.2611,-4.2913,-4.3678,-4.4212,-4.4504,-4.4153,-4.3377,-4.2307,-4.1593,-4.0954,-4.0384,-3.9952,-3.9632,-3.9307,-3.891,-3.825,-3.7357,-3.6325,-3.5367,-3.443,-3.3885,-3.353,-3.3321,-3.3375,-3.3314,-3.3118,-3.2903,-3.2811,-3.2829,-3.2487,-3.2318,-3.2301,-3.2108,-3.1983,-3.2053,-3.254,-3.2714,-3.2539,-3.3074,-3.3301,-3.2921,-3.3247,-3.3301,-3.2957,-3.2963,-3.3071,-3.3195,-3.337,-3.3555,-3.3825,-3.4436,-3.4809,-3.4613,-3.4883,-3.5254,-3.5375,-3.5465,-3.5621,-3.5782,-3.5754,-3.5811,-3.5783,-3.5821,-3.5812,-3.578,-3.58,-3.5818,-3.578,-3.5815,-3.5831,-3.5858,-3.5896,-3.6108,-3.6716,-3.6803,-3.7035,-3.7491,-3.8005,-3.8828,-3.9844,-4.0331,-4.0741,-4.0603,-4.0716,-4.0186,-3.9579,-3.8994,-3.8671,-3.8534,-3.83,-3.8141,-3.8531,-3.8156,-3.8244,-4.7804,-4.6396,-4.5064,-4.4482,-4.4482,-4.4482,-4.4482,-4.4482,-4.4482,-4.4487,-4.4444,-4.4444,-4.434,-4.4222,-4.4226,-4.3912,-4.333,-4.3156,-4.2673,-4.2066,-4.2464,-4.2805,-4.3119,-4.36,-4.3857,-4.3751,-4.2822,-4.2047,-4.1542,-4.0587,-4.0147,-4.004,-3.9337,-3.9008,-3.898,-3.8896,-3.8426,-3.7503,-3.6538,-3.5604,-3.4654,-3.3818,-3.3175,-3.2864,-3.291,-3.2908,-3.2713,-3.2519,-3.2403,-3.2369,-3.2144,-3.2018,-3.1983,-3.1837,-3.1744,-3.1727,-3.1763,-3.1709,-3.174,-3.213,-3.22,-3.183,-3.2118,-3.2187,-3.1834,-3.1928,-3.2019,-3.2126,-3.2335,-3.2522,-3.2744,-3.3364,-3.3663,-3.3352,-3.3545,-3.3842,-3.4068,-3.4494,-3.4878,-3.5261,-3.5548,-3.5668,-3.5705,-3.5739,-3.5736,-3.5717,-3.5757,-3.5783,-3.5738,-3.5768,-3.5792,-3.5835,-3.6137,-3.649,-3.7131,-3.7547,-3.8105,-3.8613,-3.875,-3.9628,-4.0116,-4.0583,-4.0679,-4.0558,-4.0165,-3.9556,-3.8926,-3.8316,-3.8003,-3.7866,-3.7525,-3.7204,-3.7421,-3.7558,-3.7538,-4.6532,-4.5729,-4.4838,-4.4454,-4.444,-4.4458,-4.4468,-4.4454,-4.4473,-4.4401,-4.43,-4.4281,-4.4192,-4.4036,-4.4036,-4.3983,-4.3813,-4.3252,-4.2921,-4.2775,-4.2214,-4.2307,-4.2936,-4.2939,-4.2699,-4.2474,-4.1067,-4.05,-4.057,-3.9752,-3.933,-3.9288,-3.9069,-3.89,-3.8966,-3.8863,-3.8473,-3.7522,-3.6562,-3.5545,-3.4447,-3.356,-3.2859,-3.2421,-3.2352,-3.2318,-3.2144,-3.1947,-3.1874,-3.1856,-3.1837,-3.18,-3.1818,-3.169,-3.1598,-3.1598,-3.1598,-3.1578,-3.1519,-3.1568,-3.1641,-3.1596,-3.1632,-3.1756,-3.1797,-3.18,-3.1874,-3.2055,-3.2284,-3.244,-3.259,-3.2948,-3.3142,-3.3101,-3.3375,-3.3633,-3.3863,-3.4153,-3.4538,-3.5105,-3.5406,-3.5543,-3.5649,-3.567,-3.5659,-3.5689,-3.5737,-3.5772,-3.5752,-3.5769,-3.5775,-3.598,-3.6384,-3.6908,-3.7614,-3.8371,-3.914,-3.9775,-3.9796,-4.0147,-4.0207,-4.0499,-4.0065,-3.9846,-3.912,-3.8509,-3.7764,-3.7173,-3.6822,-3.6627,-3.636,-3.6422,-3.6588,-3.6731,-3.6513,-4.6488,-4.6081,-4.4736,-4.4177,-4.4158,-4.4158,-4.4158,-4.4158,-4.4158,-4.4128,-4.4082,-4.4082,-4.407,-4.402,-4.4005,-4.4005,-4.3986,-4.3726,-4.3633,-4.3559,-4.3336,-4.3299,-4.3414,-4.2931,-4.1991,-4.0854,-4.028,-3.9752,-3.9327,-3.8892,-3.8691,-3.8628,-3.8541,-3.8446,-3.8478,-3.8428,-3.817,-3.7736,-3.693,-3.5987,-3.4981,-3.4148,-3.3256,-3.2422,-3.2301,-3.2179,-3.1928,-3.1819,-3.18,-3.18,-3.18,-3.18,-3.1764,-3.1671,-3.1598,-3.1598,-3.1557,-3.1519,-3.1517,-3.1462,-3.1462,-3.1519,-3.1519,-3.1576,-3.1653,-3.1635,-3.1691,-3.1943,-3.2472,-3.2826,-3.2615,-3.3103,-3.3287,-3.3082,-3.3229,-3.3452,-3.3707,-3.413,-3.4569,-3.4925,-3.5138,-3.528,-3.5379,-3.5451,-3.5507,-3.5562,-3.5623,-3.5635,-3.5654,-3.5664,-3.596,-3.6386,-3.6871,-3.7368,-3.8112,-3.869,-3.9249,-3.9739,-3.9938,-4.0014,-4.0122,-3.9715,-3.9361,-3.8814,-3.8087,-3.748,-3.6713,-3.6304,-3.6068,-3.599,-3.613,-3.6116,-3.6041,-3.6006,-3.6007,-4.6773,-4.6364,-4.5045,-4.4283,-4.4023,-4.4005,-4.4005,-4.4005,-4.4005,-4.4005,-4.4005,-4.4005,-4.4005,-4.4005,-4.4005,-4.4005,-4.4005,-4.4005,-4.4005,-4.4005,-4.4005,-4.3875,-4.3414,-4.2236,-4.1153,-4.0089,-3.9604,-3.9203,-3.8728,-3.853,-3.843,-3.8382,-3.8289,-3.8224,-3.8209,-3.8192,-3.8089,-3.7808,-3.7108,-3.6341,-3.5595,-3.4616,-3.3715,-3.2948,-3.2493,-3.2197,-3.1946,-3.1855,-3.18,-3.18,-3.1746,-3.1727,-3.1709,-3.1615,-3.1559,-3.1521,-3.1312,-3.1157,-3.1157,-3.0938,-3.0882,-3.0902,-3.0905,-3.0945,-3.1027,-3.1123,-3.1237,-3.1417,-3.192,-3.2267,-3.2032,-3.2458,-3.2739,-3.2489,-3.293,-3.3316,-3.3629,-3.4036,-3.442,-3.4682,-3.4832,-3.5006,-3.5141,-3.5205,-3.5307,-3.539,-3.5463,-3.5496,-3.5509,-3.5534,-3.6029,-3.6614,-3.716,-3.779,-3.8594,-3.9038,-3.9358,-3.9597,-3.9781,-3.9758,-3.9786,-3.8796,-3.8131,-3.7514,-3.6832,-3.6752,-3.6126,-3.6075,-3.594,-3.596,-3.5955,-3.5968,-3.5976,-3.6001,-3.6004,-4.7218,-4.6438,-4.5621,-4.4748,-4.4061,-4.4005,-4.4005,-4.4005,-4.4005,-4.4005,-4.4005,-4.4005,-4.4005,-4.4005,-4.4005,-4.4005,-4.4005,-4.4005,-4.3912,-4.3856,-4.3782,-4.3395,-4.2365,-4.1021,-4.0213,-3.9752,-3.9105,-3.8762,-3.8692,-3.8559,-3.8462,-3.8382,-3.8322,-3.8276,-3.8209,-3.8209,-3.8089,-3.7826,-3.718,-3.6716,-3.631,-3.5079,-3.4085,-3.3721,-3.2914,-3.2337,-3.209,-3.1838,-3.1763,-3.1781,-3.1671,-3.1543,-3.1542,-3.1483,-3.1329,-3.1271,-3.0861,-3.0605,-3.046,-3.0251,-2.9995,-3.0048,-3.0091,-2.9962,-3.0201,-3.0481,-3.0642,-3.0679,-3.1116,-3.1295,-3.1291,-3.1604,-3.1724,-3.1697,-3.2452,-3.3081,-3.3522,-3.3757,-3.3999,-3.4321,-3.4524,-3.4684,-3.4916,-3.4971,-3.5066,-3.52,-3.5293,-3.5308,-3.5417,-3.558,-3.5933,-3.6587,-3.7386,-3.7959,-3.8669,-3.8519,-3.8768,-3.8728,-3.885,-3.8731,-3.8748,-3.7834,-3.7077,-3.6429,-3.6043,-3.5915,-3.5849,-3.5843,-3.5855,-3.5861,-3.5892,-3.5934,-3.5966,-3.597,-3.5974,-4.7237,-4.6438,-4.5621,-4.4804,-4.4061,-4.4005,-4.4005,-4.4005,-4.4005,-4.3989,-4.4005,-4.4005,-4.4005,-4.4005,-4.3989,-4.4005,-4.3989,-4.3968,-4.3633,-4.3188,-4.3113,-4.2183,-4.1051,-4.0362,-3.9721,-3.9102,-3.8851,-3.8707,-3.8692,-3.8578,-3.846,-3.8399,-3.8338,-3.8257,-3.8209,-3.8209,-3.8072,-3.7916,-3.772,-3.7165,-3.647,-3.6042,-3.51,-3.3861,-3.3371,-3.2792,-3.216,-3.1654,-3.1578,-3.1763,-3.1523,-3.1261,-3.1106,-3.0828,-3.0605,-3.0423,-3.0187,-3.0016,-2.9995,-2.9892,-2.9832,-2.9843,-2.9767,-2.9903,-2.9967,-3.0208,-3.0393,-3.0618,-3.1215,-3.1517,-3.1303,-3.1681,-3.1912,-3.182,-3.2092,-3.2451,-3.2763,-3.2968,-3.3281,-3.3688,-3.3906,-3.4188,-3.4497,-3.4655,-3.4755,-3.4935,-3.5025,-3.5119,-3.5285,-3.5744,-3.6156,-3.6952,-3.7687,-3.8136,-3.8404,-3.8159,-3.8006,-3.7832,-3.7613,-3.7175,-3.7114,-3.67,-3.6197,-3.5728,-3.5766,-3.5679,-3.5679,-3.565,-3.57,-3.5737,-3.5764,-3.5778,-3.5875,-3.5914,-3.5938,-4.7327,-4.6271,-4.5943,-4.5101,-4.4063,-4.3876,-4.3892,-4.3974,-4.3876,-4.3892,-4.3974,-4.4005,-4.3923,-4.3844,-4.3958,-4.3923,-4.3841,-4.3587,-4.3225,-4.2779,-4.2092,-4.1167,-4.0248,-3.9834,-3.9264,-3.8778,-3.8707,-3.8707,-3.8692,-3.8559,-3.8462,-3.8417,-3.8338,-3.8276,-3.8209,-3.8192,-3.8089,-3.7934,-3.7881,-3.7541,-3.6952,-3.6542,-3.583,-3.4588,-3.3862,-3.2857,-3.1793,-3.1259,-3.1198,-3.1295,-3.1198,-3.1004,-3.0808,-3.0502,-3.023,-3.0064,-2.9717,-2.9512,-2.9489,-2.94,-2.9257,-2.9227,-2.9241,-2.9264,-2.9287,-2.9506,-2.9705,-2.993,-3.0587,-3.0752,-3.0759,-3.1161,-3.1372,-3.131,-3.1454,-3.1734,-3.2213,-3.2517,-3.2777,-3.3069,-3.3288,-3.3501,-3.3913,-3.4031,-3.4228,-3.4408,-3.4566,-3.4852,-3.5186,-3.5806,-3.63,-3.686,-3.7014,-3.7138,-3.7053,-3.6806,-3.672,-3.6615,-3.6575,-3.6058,-3.596,-3.5791,-3.5669,-3.547,-3.5477,-3.5476,-3.5501,-3.5518,-3.554,-3.5587,-3.5597,-3.5659,-3.5729,-3.5817,-3.5849,-4.7371,-4.5955,-4.6198,-4.5372,-4.3955,-4.3664,-4.3664,-4.3828,-4.3664,-4.3681,-4.3828,-4.3892,-4.373,-4.3562,-4.3562,-4.3629,-4.341,-4.2762,-4.2471,-4.1826,-4.0925,-3.9896,-3.9645,-3.9254,-3.8936,-3.8723,-3.8707,-3.8643,-3.8562,-3.8462,-3.8348,-3.8185,-3.8119,-3.8105,-3.7951,-3.7968,-3.7933,-3.7685,-3.7613,-3.745,-3.7106,-3.6625,-3.5998,-3.526,-3.3742,-3.2531,-3.1478,-3.0888,-3.0764,-3.0686,-3.0727,-3.0683,-3.0613,-3.0351,-3.014,-2.993,-2.94,-2.9097,-2.9051,-2.8732,-2.8493,-2.8525,-2.8517,-2.8411,-2.8573,-2.8803,-2.9059,-2.9243,-2.938,-2.9847,-3.0044,-3.0195,-3.0471,-3.0716,-3.0736,-3.1167,-3.179,-3.2179,-3.2334,-3.25,-3.2614,-3.2773,-3.2985,-3.3223,-3.3538,-3.4205,-3.4377,-3.473,-3.5157,-3.572,-3.5956,-3.6087,-3.604,-3.5777,-3.5593,-3.5318,-3.5294,-3.5268,-3.5429,-3.5267,-3.5314,-3.5225,-3.5256,-3.5231,-3.53,-3.5321,-3.5339,-3.5367,-3.54,-3.5449,-3.5473,-3.5519,-3.5586,-3.5664,-3.5715,-4.6557,-4.5643,-4.5077,-4.429,-4.3448,-4.3304,-4.3322,-4.3375,-4.3322,-4.3321,-4.3356,-4.3392,-4.332,-4.3213,-4.2732,-4.2488,-4.2481,-4.1695,-4.0934,-4.015,-3.9163,-3.8556,-3.8536,-3.864,-3.8795,-3.8673,-3.8692,-3.8515,-3.8285,-3.8152,-3.7948,-3.7542,-3.7524,-3.7358,-3.7264,-3.7282,-3.7092,-3.6919,-3.69,-3.6821,-3.6643,-3.6409,-3.5928,-3.5175,-3.3536,-3.2334,-3.1525,-3.0791,-3.0326,-3.0199,-3.0267,-3.0351,-3.0177,-2.9897,-2.9589,-2.9273,-2.902,-2.8771,-2.8621,-2.8525,-2.8411,-2.842,-2.8468,-2.8411,-2.842,-2.8771,-2.9006,-2.9183,-2.9509,-2.9814,-2.9968,-3.0103,-3.0274,-3.0443,-3.0609,-3.0757,-3.1024,-3.1315,-3.162,-3.186,-3.2074,-3.2299,-3.2627,-3.2844,-3.3278,-3.3888,-3.4331,-3.4685,-3.5096,-3.554,-3.5353,-3.5164,-3.4823,-3.4543,-3.4371,-3.4279,-3.454,-3.4497,-3.458,-3.4651,-3.4682,-3.4802,-3.487,-3.501,-3.5145,-3.5174,-3.5165,-3.5184,-3.5208,-3.528,-3.5353,-3.5406,-3.547,-3.5537,-3.5328,-4.5517,-4.4792,-4.4508,-4.3926,-4.3269,-4.3032,-4.3068,-4.316,-4.3013,-4.305,-4.3087,-4.2849,-4.2577,-4.2395,-4.1775,-4.1477,-4.1279,-4.0638,-3.9768,-3.9011,-3.8315,-3.8017,-3.7825,-3.8064,-3.8214,-3.817,-3.8118,-3.8,-3.7861,-3.7774,-3.7578,-3.7247,-3.7152,-3.7113,-3.6919,-3.688,-3.686,-3.6759,-3.662,-3.6481,-3.6316,-3.6215,-3.5702,-3.4751,-3.3343,-3.2274,-3.1935,-3.0783,-3.0359,-3.0276,-3.0234,-3.0087,-2.9935,-2.9687,-2.9357,-2.9152,-2.892,-2.8865,-2.8763,-2.8732,-2.8684,-2.8549,-2.8645,-2.8645,-2.8645,-2.8889,-2.9144,-2.9305,-2.9531,-2.9776,-2.9973,-3.0038,-3.0189,-3.0359,-3.048,-3.0547,-3.0651,-3.0875,-3.1114,-3.137,-3.1543,-3.1714,-3.1985,-3.2529,-3.2914,-3.3493,-3.4382,-3.4729,-3.4503,-3.4778,-3.4209,-3.3911,-3.3528,-3.3267,-3.3136,-3.3335,-3.3924,-3.4,-3.4079,-3.4176,-3.4242,-3.4398,-3.4551,-3.4703,-3.485,-3.4955,-3.4964,-3.4993,-3.5011,-3.5124,-3.5192,-3.5289,-3.534,-3.5362,-3.4999,-4.4455,-4.3842,-4.4028,-4.3686,-4.3104,-4.2768,-4.2787,-4.2957,-4.2711,-4.2621,-4.2686,-4.2105,-4.1649,-4.125,-4.0673,-4.0257,-3.9806,-3.9478,-3.8683,-3.8024,-3.7828,-3.7578,-3.7469,-3.7396,-3.7378,-3.7339,-3.7542,-3.7523,-3.745,-3.7339,-3.7189,-3.7036,-3.6937,-3.6719,-3.6681,-3.6681,-3.6557,-3.643,-3.6367,-3.6228,-3.6118,-3.5994,-3.5453,-3.4633,-3.3495,-3.2743,-3.2331,-3.1377,-3.0618,-3.0969,-3.0522,-3.022,-2.9982,-2.9742,-2.9531,-2.9493,-2.9259,-2.9121,-2.9045,-2.9045,-2.8959,-2.8779,-2.8936,-2.8982,-2.8889,-2.8873,-2.9059,-2.9238,-2.9407,-2.951,-2.9726,-2.9842,-2.9911,-3.0011,-3.0087,-3.021,-3.0295,-3.0539,-3.0755,-3.1009,-3.139,-3.1723,-3.201,-3.2443,-3.2737,-3.3145,-3.4029,-3.4566,-3.4318,-3.3932,-3.3424,-3.3048,-3.2782,-3.2762,-3.266,-3.2754,-3.3306,-3.3455,-3.3574,-3.366,-3.3732,-3.388,-3.4074,-3.4371,-3.4513,-3.4596,-3.4628,-3.458,-3.4663,-3.4879,-3.4992,-3.5034,-3.5096,-3.5168,-3.4628,-4.3692,-4.3531,-4.2895,-4.2559,-4.247,-4.2391,-4.2394,-4.2391,-4.2118,-4.1798,-4.1445,-4.1109,-4.0612,-4.0076,-3.925,-3.8457,-3.8012,-3.7897,-3.7664,-3.726,-3.7108,-3.697,-3.6913,-3.6759,-3.6635,-3.6719,-3.7055,-3.7246,-3.7055,-3.6958,-3.6759,-3.6346,-3.6259,-3.6152,-3.5963,-3.581,-3.5898,-3.591,-3.5839,-3.5672,-3.5515,-3.5385,-3.526,-3.4712,-3.3809,-3.3383,-3.3095,-3.2383,-3.186,-3.1801,-3.1704,-3.1292,-3.0706,-3.0113,-2.9765,-2.9576,-2.9486,-2.935,-2.916,-2.9114,-2.9075,-2.9052,-2.9029,-2.9029,-2.8943,-2.8889,-2.8865,-2.9006,-2.9192,-2.9211,-2.8653,-2.9241,-2.9225,-2.9108,-2.916,-2.9282,-2.9391,-2.9806,-3.0269,-3.0525,-3.1162,-3.1692,-3.1817,-3.2013,-3.2336,-3.2682,-3.3382,-3.3758,-3.3638,-3.3218,-3.2713,-3.2439,-3.2214,-3.2283,-3.2349,-3.2512,-3.2809,-3.2919,-3.3006,-3.3079,-3.3204,-3.3328,-3.3542,-3.3723,-3.3969,-3.4123,-3.4147,-3.4176,-3.4323,-3.4518,-3.4643,-3.4763,-3.4775,-3.4718,-3.4058,-4.2753,-4.284,-4.2448,-4.2308,-4.2308,-4.2308,-4.1976,-4.1535,-4.1374,-4.089,-4.0176,-3.9655,-3.9264,-3.8812,-3.8102,-3.7402,-3.7156,-3.7126,-3.705,-3.6846,-3.6742,-3.6602,-3.6523,-3.6343,-3.6322,-3.6388,-3.6698,-3.6821,-3.6597,-3.6577,-3.6388,-3.6148,-3.5997,-3.5866,-3.5667,-3.5644,-3.5577,-3.5543,-3.5498,-3.5423,-3.5198,-3.5088,-3.4947,-3.47,-3.4223,-3.3881,-3.3862,-3.2835,-3.2441,-3.2416,-3.1903,-3.1422,-3.0935,-3.0466,-2.9958,-2.9746,-2.9707,-2.9525,-2.919,-2.9082,-2.8928,-2.8511,-2.8629,-2.8598,-2.8535,-2.8479,-2.8688,-2.9027,-2.9456,-2.949,-2.895,-2.9141,-2.9009,-2.8735,-2.8831,-2.8958,-2.9085,-2.9508,-2.9773,-2.9998,-3.0421,-3.0819,-3.1089,-3.138,-3.1797,-3.2287,-3.278,-3.2824,-3.2778,-3.2354,-3.1784,-3.1319,-3.1121,-3.1489,-3.1649,-3.1914,-3.2092,-3.2213,-3.2368,-3.2467,-3.2599,-3.2731,-3.2811,-3.2916,-3.3201,-3.3597,-3.3828,-3.3913,-3.4037,-3.4152,-3.4258,-3.4371,-3.4387,-3.4172,-3.3478,-4.1956,-4.2163,-4.2145,-4.2074,-4.1949,-4.1935,-4.1366,-4.0618,-4.045,-3.9926,-3.9044,-3.8403,-3.8053,-3.774,-3.7316,-3.6908,-3.6888,-3.6851,-3.6731,-3.6647,-3.6602,-3.6482,-3.6343,-3.6284,-3.6284,-3.6305,-3.6364,-3.6284,-3.6346,-3.6346,-3.6195,-3.6062,-3.5997,-3.5866,-3.5667,-3.5616,-3.5616,-3.5594,-3.5566,-3.5469,-3.5268,-3.5041,-3.4899,-3.4883,-3.4319,-3.4242,-3.421,-3.3403,-3.2854,-3.2657,-3.2133,-3.1379,-3.1095,-3.0675,-3.0304,-3.0027,-2.9948,-2.971,-2.9485,-2.9367,-2.9213,-2.8811,-2.8652,-2.8587,-2.8534,-2.8782,-2.8778,-2.9205,-2.9637,-2.9584,-2.8923,-2.9041,-2.8834,-2.8499,-2.8595,-2.8857,-2.8808,-2.8975,-2.9132,-2.9372,-2.9664,-3.0022,-3.0398,-3.1032,-3.1521,-3.1271,-3.1758,-3.1468,-3.1401,-3.1195,-3.0697,-3.0065,-2.9947,-3.0484,-3.0811,-3.1128,-3.1249,-3.1365,-3.1568,-3.1716,-3.1914,-3.2092,-3.2196,-3.2316,-3.2747,-3.313,-3.3389,-3.3556,-3.3565,-3.3633,-3.3836,-3.3876,-3.375,-3.3478,-3.2916,-4.1648,-4.1692,-4.1692,-4.1323,-4.0785,-4.0732,-4.0253,-3.9504,-3.9301,-3.8846,-3.819,-3.7923,-3.7542,-3.7169,-3.689,-3.6606,-3.6468,-3.643,-3.6447,-3.6402,-3.6402,-3.6381,-3.6301,-3.6284,-3.6259,-3.6199,-3.622,-3.6284,-3.6262,-3.6262,-3.6195,-3.6041,-3.5993,-3.5883,-3.5644,-3.5616,-3.5616,-3.5583,-3.5554,-3.5458,-3.5228,-3.497,-3.4811,-3.4754,-3.4624,-3.4365,-3.4043,-3.3546,-3.3326,-3.2693,-3.2527,-3.1986,-3.1435,-3.1259,-3.0791,-3.0397,-3.0176,-3.0135,-2.9961,-2.9853,-2.9736,-2.9463,-2.9617,-2.9858,-2.9514,-2.926,-2.9098,-2.8772,-2.9343,-2.9237,-2.8584,-2.8548,-2.8332,-2.8057,-2.7843,-2.7932,-2.7995,-2.8464,-2.8631,-2.8531,-2.8757,-2.9359,-2.9872,-3.0601,-3.1174,-3.0852,-3.0537,-3.0293,-3.0105,-2.9951,-3.0069,-2.963,-2.927,-2.9722,-3.0188,-3.046,-3.0551,-3.0616,-3.0794,-3.0991,-3.1167,-3.138,-3.1658,-3.1878,-3.2248,-3.2384,-3.2414,-3.2577,-3.2867,-3.3156,-3.3375,-3.3251,-3.2988,-3.262,-3.2212,-4.0695,-4.0994,-4.0994,-4.0537,-3.9852,-3.9817,-3.9277,-3.8559,-3.837,-3.7833,-3.7179,-3.6974,-3.6804,-3.6623,-3.6506,-3.6423,-3.6305,-3.6262,-3.6284,-3.6262,-3.6262,-3.6262,-3.6259,-3.6131,-3.6023,-3.5963,-3.5832,-3.581,-3.5963,-3.6174,-3.6212,-3.6041,-3.5975,-3.5866,-3.556,-3.56,-3.5616,-3.5487,-3.5201,-3.4897,-3.4682,-3.4284,-3.396,-3.3977,-3.4002,-3.3799,-3.3594,-3.3413,-3.324,-3.2718,-3.2434,-3.1954,-3.1516,-3.1144,-3.0711,-3.0504,-3.0443,-3.021,-2.978,-2.9788,-2.9711,-2.9438,-2.9399,-2.9255,-2.9332,-2.9491,-2.9487,-2.9275,-2.945,-2.9102,-2.8492,-2.8536,-2.7984,-2.7619,-2.76,-2.7479,-2.7606,-2.7847,-2.8086,-2.7947,-2.7884,-2.8485,-2.8922,-2.915,-2.953,-2.945,-2.9343,-2.9312,-2.9157,-2.9028,-2.9273,-2.9538,-2.9232,-2.914,-2.9588,-2.9919,-3.0005,-3.0074,-3.0143,-3.0327,-3.0448,-3.0673,-3.0934,-3.103,-3.1097,-3.123,-3.1359,-3.1896,-3.2451,-3.2713,-3.2937,-3.2607,-3.2224,-3.1662,-3.1097,-3.9432,-3.9626,-3.9905,-3.9577,-3.886,-3.8842,-3.8304,-3.7474,-3.744,-3.7005,-3.6464,-3.6339,-3.6318,-3.6284,-3.6322,-3.6276,-3.6174,-3.6174,-3.6174,-3.6174,-3.6092,-3.6049,-3.5985,-3.5832,-3.5633,-3.5633,-3.5413,-3.543,-3.5633,-3.5771,-3.5854,-3.5975,-3.5932,-3.5694,-3.547,-3.5316,-3.527,-3.4998,-3.4529,-3.426,-3.4095,-3.3614,-3.3355,-3.3251,-3.3198,-3.313,-3.3002,-3.2922,-3.2841,-3.2379,-3.1977,-3.1578,-3.1318,-3.0984,-3.069,-3.0572,-3.0572,-3.0382,-3.0038,-2.9842,-2.9513,-2.9302,-2.9174,-2.9491,-2.942,-2.9639,-2.9682,-2.9581,-2.9552,-2.929,-2.8869,-2.8694,-2.836,-2.8013,-2.7924,-2.7659,-2.7409,-2.7453,-2.7545,-2.7512,-2.744,-2.7443,-2.772,-2.7634,-2.7725,-2.7846,-2.8008,-2.8295,-2.8326,-2.8293,-2.8489,-2.888,-2.8801,-2.8595,-2.8837,-2.918,-2.9339,-2.947,-2.952,-2.9641,-2.9745,-2.994,-3.0201,-3.0197,-3.0089,-3.0406,-3.0754,-3.1418,-3.2021,-3.2057,-3.2019,-3.1788,-3.1388,-3.0767,-3.0136,-3.7797,-3.7251,-3.8286,-3.8299,-3.7608,-3.7625,-3.7154,-3.6469,-3.6439,-3.6404,-3.6276,-3.6241,-3.6199,-3.622,-3.6135,-3.6045,-3.5832,-3.581,-3.581,-3.57,-3.5521,-3.5588,-3.5588,-3.5459,-3.5247,-3.5247,-3.5062,-3.5085,-3.5161,-3.5052,-3.5436,-3.5888,-3.5588,-3.5339,-3.5045,-3.484,-3.4649,-3.4342,-3.3894,-3.37,-3.3572,-3.3287,-3.3093,-3.3077,-3.3093,-3.2975,-3.2508,-3.2425,-3.2216,-3.168,-3.1495,-3.1278,-3.1073,-3.0866,-3.0717,-3.0628,-3.0477,-3.0335,-3.0176,-3.0163,-3.0367,-3.0424,-3.0234,-2.9929,-2.9813,-3.0234,-3.019,-2.9522,-2.9319,-2.9088,-2.8785,-2.8623,-2.8297,-2.7839,-2.7483,-2.7282,-2.6965,-2.6782,-2.6859,-2.6995,-2.6948,-2.6788,-2.68,-2.6759,-2.7229,-2.7473,-2.765,-2.7919,-2.7919,-2.7902,-2.7905,-2.8082,-2.8122,-2.807,-2.8085,-2.8326,-2.8598,-2.8639,-2.8654,-2.8818,-2.8966,-2.9171,-2.8954,-2.9301,-2.9232,-2.968,-2.9981,-3.0149,-3.0425,-3.0942,-3.1034,-3.0663,-3.012,-2.944,-2.8998,-3.6582,-3.5908,-3.6332,-3.6486,-3.6442,-3.6186,-3.5904,-3.5711,-3.5893,-3.6002,-3.598,-3.5744,-3.5616,-3.5655,-3.5633,-3.5566,-3.543,-3.543,-3.543,-3.5391,-3.5299,-3.5316,-3.5293,-3.5108,-3.489,-3.4818,-3.4699,-3.4602,-3.4602,-3.4423,-3.4536,-3.48,-3.4847,-3.4633,-3.4366,-3.4268,-3.4136,-3.3894,-3.3469,-3.3209,-3.3013,-3.2586,-3.2272,-3.216,-3.2145,-3.2076,-3.1853,-3.1853,-3.1653,-3.1481,-3.1336,-3.1102,-3.0881,-3.0791,-3.0613,-3.0389,-3.0119,-2.9922,-2.9897,-2.9907,-2.9842,-2.9479,-2.9406,-2.945,-2.9493,-2.9436,-2.9318,-2.8941,-2.8579,-2.8208,-2.81,-2.7957,-2.7758,-2.7248,-2.6916,-2.682,-2.6455,-2.6198,-2.6071,-2.615,-2.6001,-2.5851,-2.5892,-2.5973,-2.6575,-2.7167,-2.7346,-2.7448,-2.7382,-2.7382,-2.7331,-2.7423,-2.7473,-2.765,-2.7715,-2.779,-2.7896,-2.7917,-2.7911,-2.806,-2.8205,-2.7304,-2.7223,-2.7729,-2.8119,-2.811,-2.8233,-2.8409,-2.8972,-2.9876,-2.9848,-2.9365,-2.8763,-2.8213,-2.8067,-3.5561,-3.5055,-3.492,-3.5178,-3.5543,-3.5316,-3.5201,-3.5247,-3.5498,-3.5627,-3.5588,-3.5316,-3.5201,-3.5201,-3.5201,-3.5131,-3.5085,-3.5055,-3.5055,-3.4991,-3.492,-3.4944,-3.4873,-3.4723,-3.4456,-3.4374,-3.4176,-3.405,-3.4,-3.3822,-3.379,-3.3783,-3.3726,-3.3624,-3.3751,-3.3604,-3.3553,-3.3355,-3.3082,-3.268,-3.2492,-3.2122,-3.1741,-3.1626,-3.1611,-3.1611,-3.1582,-3.1582,-3.1553,-3.1409,-3.1219,-3.094,-3.0703,-3.0448,-3.012,-2.9732,-2.9358,-2.9007,-2.8879,-2.9073,-2.895,-2.8576,-2.8479,-2.8451,-2.8368,-2.8268,-2.8046,-2.7684,-2.7299,-2.7079,-2.7128,-2.7148,-2.7021,-2.655,-2.6795,-2.6646,-2.5808,-2.5384,-2.53,-2.5259,-2.5203,-2.5287,-2.5315,-2.5453,-2.5728,-2.6256,-2.639,-2.6496,-2.6522,-2.6534,-2.6613,-2.6733,-2.689,-2.7111,-2.7357,-2.7448,-2.759,-2.776,-2.7699,-2.7515,-2.7308,-2.6395,-2.6057,-2.6738,-2.6918,-2.6503,-2.6579,-2.6948,-2.795,-2.9103,-2.8727,-2.8185,-2.8032,-2.7593,-2.7555,-3.4732,-3.4667,-3.4276,-3.4512,-3.5138,-3.5201,-3.5155,-3.5085,-3.5155,-3.5201,-3.5201,-3.5131,-3.5108,-3.5085,-3.5015,-3.4873,-3.4739,-3.4691,-3.4691,-3.4643,-3.444,-3.4448,-3.4472,-3.4349,-3.4126,-3.3797,-3.3745,-3.3668,-3.3388,-3.3256,-3.3096,-3.2947,-3.2926,-3.2868,-3.3119,-3.2722,-3.2465,-3.2437,-3.237,-3.2274,-3.2094,-3.1927,-3.1756,-3.1539,-3.1496,-3.1496,-3.1307,-3.1307,-3.1248,-3.1058,-3.0703,-3.0359,-3.0056,-2.9451,-2.8872,-2.8174,-2.7896,-2.7516,-2.708,-2.7917,-2.7898,-2.7542,-2.7308,-2.7384,-2.7495,-2.7215,-2.6752,-2.6426,-2.6079,-2.5995,-2.6126,-2.6283,-2.6069,-2.5945,-2.6109,-2.5878,-2.5007,-2.4553,-2.4467,-2.441,-2.4724,-2.4951,-2.4951,-2.4979,-2.5035,-2.5259,-2.537,-2.5522,-2.5701,-2.5864,-2.6027,-2.6108,-2.6295,-2.6402,-2.6654,-2.7063,-2.7269,-2.7458,-2.7289,-2.6835,-2.6589,-2.608,-2.5943,-2.6086,-2.5699,-2.5285,-2.5379,-2.5567,-2.6246,-2.6793,-2.7331,-2.7123,-2.7041,-2.6962,-2.6843,-3.3893,-3.4202,-3.3161,-3.3388,-3.4399,-3.4464,-3.4464,-3.448,-3.4505,-3.4626,-3.4771,-3.4626,-3.448,-3.448,-3.4505,-3.4456,-3.4349,-3.43,-3.43,-3.4275,-3.4109,-3.4201,-3.4226,-3.4126,-3.394,-3.3761,-3.3668,-3.3424,-3.3058,-3.2897,-3.2746,-3.2594,-3.2336,-3.2492,-3.2586,-3.2437,-3.2425,-3.2382,-3.2342,-3.2231,-3.201,-3.1912,-3.1741,-3.1438,-3.1409,-3.119,-3.0808,-3.0793,-3.0616,-3.0259,-2.9809,-2.9549,-2.9201,-2.864,-2.813,-2.7443,-2.7077,-2.5954,-2.547,-2.563,-2.5954,-2.5949,-2.6004,-2.6045,-2.5891,-2.5768,-2.547,-2.5305,-2.5177,-2.5169,-2.5275,-2.5216,-2.5019,-2.4672,-2.4602,-2.4303,-2.3791,-2.3667,-2.359,-2.356,-2.3725,-2.3842,-2.3901,-2.4047,-2.415,-2.431,-2.4454,-2.4965,-2.5245,-2.5425,-2.5591,-2.5591,-2.5701,-2.5728,-2.5892,-2.6229,-2.6404,-2.6428,-2.6052,-2.5517,-2.5343,-2.5475,-2.528,-2.5157,-2.4614,-2.4123,-2.435,-2.4425,-2.3977,-2.4212,-2.5202,-2.5863,-2.5829,-2.5858,-2.5934,-3.2967,-3.3259,-3.2384,-3.2514,-3.3356,-3.3647,-3.3858,-3.4052,-3.4101,-3.4234,-3.4399,-3.4201,-3.4126,-3.4126,-3.4101,-3.4101,-3.4101,-3.4101,-3.4101,-3.4075,-3.3991,-3.3975,-3.3949,-3.3832,-3.3591,-3.3487,-3.3372,-3.3176,-3.2746,-3.2718,-3.2511,-3.2158,-3.1777,-3.1513,-3.1658,-3.1918,-3.2398,-3.2327,-3.2231,-3.1923,-3.1638,-3.1408,-3.1146,-3.0866,-3.0659,-3.0452,-3.0054,-2.9787,-2.9595,-2.9073,-2.87,-2.8439,-2.804,-2.7538,-2.6987,-2.6268,-2.5484,-2.4476,-2.4102,-2.4047,-2.4381,-2.438,-2.4495,-2.4657,-2.4575,-2.4498,-2.4347,-2.4253,-2.4335,-2.4328,-2.4261,-2.4172,-2.4128,-2.381,-2.3661,-2.3399,-2.3217,-2.3115,-2.3065,-2.3005,-2.2975,-2.2975,-2.2914,-2.3017,-2.3185,-2.3382,-2.3535,-2.4066,-2.4555,-2.4682,-2.4781,-2.4809,-2.4894,-2.4951,-2.5091,-2.5398,-2.5481,-2.5425,-2.5094,-2.4737,-2.4723,-2.491,-2.4568,-2.4253,-2.397,-2.3681,-2.3497,-2.3349,-2.332,-2.3429,-2.3903,-2.4368,-2.4508,-2.4902,-2.5258,-3.1979,-3.1972,-3.1963,-3.1947,-3.2134,-3.2886,-3.3501,-3.4036,-3.4084,-3.4126,-3.4101,-3.4061,-3.3914,-3.3978,-3.3995,-3.3896,-3.3894,-3.3935,-3.3975,-3.3949,-3.3771,-3.3688,-3.3505,-3.3344,-3.3056,-3.2917,-3.2745,-3.2528,-3.2351,-3.2048,-3.1825,-3.1453,-3.0675,-3.044,-3.0683,-3.1144,-3.172,-3.1607,-3.1298,-3.1019,-3.0777,-3.0498,-3.0199,-2.994,-2.9813,-2.9523,-2.9144,-2.8813,-2.8418,-2.7871,-2.7237,-2.6776,-2.6263,-2.5678,-2.4873,-2.4172,-2.3581,-2.3382,-2.3288,-2.3358,-2.3339,-2.3518,-2.3649,-2.3847,-2.3869,-2.3688,-2.3564,-2.3479,-2.3495,-2.3371,-2.3228,-2.3399,-2.3499,-2.3368,-2.33,-2.309,-2.2868,-2.2757,-2.2744,-2.2671,-2.2628,-2.2567,-2.2384,-2.2396,-2.2242,-2.2249,-2.2378,-2.2488,-2.296,-2.3344,-2.3475,-2.3695,-2.3842,-2.4147,-2.4337,-2.4496,-2.4582,-2.4525,-2.4739,-2.4508,-2.4498,-2.4293,-2.4116,-2.3849,-2.3554,-2.329,-2.3016,-2.3022,-2.3133,-2.3264,-2.3397,-2.3487,-2.3861,-2.461,-2.5015,-3.1526,-3.1882,-3.0911,-3.1073,-3.2044,-3.2773,-3.321,-3.342,-3.3858,-3.4101,-3.4084,-3.3582,-3.3249,-3.3108,-3.3067,-3.2942,-3.3032,-3.3242,-3.3465,-3.3429,-3.3144,-3.3012,-3.276,-3.2514,-3.2358,-3.2095,-3.1832,-3.1641,-3.1622,-3.1289,-3.0761,-3.0432,-2.9687,-2.9451,-2.952,-2.9876,-3.0061,-3.0093,-2.9814,-2.9839,-2.9682,-2.9399,-2.9179,-2.9159,-2.9149,-2.8799,-2.8367,-2.7992,-2.7551,-2.6974,-2.6383,-2.5941,-2.5597,-2.5016,-2.4338,-2.3538,-2.3226,-2.3108,-2.3095,-2.3095,-2.3005,-2.2811,-2.2825,-2.2936,-2.3088,-2.3112,-2.2944,-2.2854,-2.2781,-2.2689,-2.2598,-2.2653,-2.2713,-2.2632,-2.2563,-2.2373,-2.2161,-2.2056,-2.2044,-2.197,-2.1959,-2.171,-2.1553,-2.1439,-2.1282,-2.1219,-2.1207,-2.127,-2.151,-2.199,-2.2341,-2.2567,-2.2768,-2.3058,-2.3292,-2.3458,-2.3577,-2.3679,-2.3758,-2.3787,-2.3621,-2.3473,-2.3551,-2.3376,-2.2989,-2.274,-2.2497,-2.2565,-2.2745,-2.2979,-2.3128,-2.312,-2.3273,-2.4,-2.4396,-3.0765,-3.1008,-3.0269,-3.0309,-3.0899,-3.155,-3.1757,-3.1835,-3.2971,-3.353,-3.3433,-3.2707,-3.2263,-3.2123,-3.2058,-3.1999,-3.1921,-3.1964,-3.2117,-3.2065,-3.2075,-3.175,-3.1491,-3.1294,-3.1064,-3.0887,-3.0694,-3.0406,-3.044,-2.976,-2.9123,-2.9402,-2.8706,-2.8347,-2.8275,-2.8233,-2.7976,-2.8063,-2.8137,-2.8412,-2.8365,-2.8136,-2.8052,-2.8116,-2.8136,-2.7786,-2.7301,-2.6854,-2.6374,-2.5795,-2.5236,-2.4992,-2.454,-2.3968,-2.3214,-2.2432,-2.2211,-2.2187,-2.2156,-2.2199,-2.2292,-2.2218,-2.197,-2.1982,-2.2099,-2.2161,-2.2137,-2.2137,-2.2125,-2.2113,-2.2021,-2.1939,-2.1877,-2.1796,-2.1651,-2.1537,-2.1388,-2.125,-2.1207,-2.1144,-2.0974,-2.0719,-2.0537,-2.0409,-2.0376,-2.0441,-2.0409,-2.0376,-2.0655,-2.1132,-2.1396,-2.1616,-2.1772,-2.1978,-2.2218,-2.2372,-2.239,-2.2347,-2.22,-2.2274,-2.2445,-2.2512,-2.2402,-2.2402,-2.2351,-2.2217,-2.2185,-2.2237,-2.236,-2.2634,-2.2856,-2.2837,-2.2958,-2.334,-2.3557,-2.9764,-2.9774,-2.9732,-2.9476,-2.9217,-2.9752,-2.9741,-2.9469,-3.1423,-3.2394,-3.2208,-3.1431,-3.0982,-3.0833,-3.0792,-3.0782,-3.0699,-3.0675,-3.0731,-3.0505,-3.0285,-3.0135,-3.0,-2.9625,-2.9726,-2.9646,-2.9466,-2.9156,-2.8814,-2.8318,-2.8037,-2.8296,-2.7385,-2.6933,-2.6989,-2.6919,-2.6694,-2.6441,-2.6834,-2.7254,-2.7085,-2.6657,-2.6069,-2.6033,-2.5988,-2.5808,-2.5419,-2.5048,-2.4739,-2.4413,-2.4132,-2.4066,-2.3432,-2.2678,-2.1882,-2.1514,-2.1408,-2.1408,-2.1439,-2.1439,-2.1345,-2.125,-2.1071,-2.1092,-2.1187,-2.1396,-2.1491,-2.1459,-2.1447,-2.1385,-2.129,-2.1132,-2.1037,-2.0974,-2.089,-2.0773,-2.0709,-2.0473,-2.0139,-2.0074,-1.9846,-1.9595,-1.9595,-1.9497,-1.9408,-1.9606,-1.9606,-1.9474,-1.9671,-2.0107,-2.0494,-2.0698,-2.1049,-2.1227,-2.1215,-2.1322,-2.1164,-2.1037,-2.0994,-2.1152,-2.1604,-2.1459,-2.1167,-2.1463,-2.1839,-2.1949,-2.1958,-2.1991,-2.2093,-2.2457,-2.2634,-2.2605,-2.2724,-2.2932,-2.3069,-2.8528,-2.8528,-2.8432,-2.8565,-2.8937,-2.9072,-2.9373,-2.9739,-2.9571,-2.9986,-3.0402,-2.9833,-2.9409,-2.9322,-2.9271,-2.921,-2.9094,-2.9335,-2.9499,-2.9454,-2.9154,-2.8825,-2.8806,-2.8483,-2.8525,-2.8412,-2.8207,-2.792,-2.7867,-2.7385,-2.7003,-2.7145,-2.6456,-2.6161,-2.6134,-2.6036,-2.5702,-2.541,-2.5389,-2.5821,-2.5813,-2.5665,-2.5363,-2.5558,-2.5675,-2.5579,-2.5266,-2.5049,-2.4949,-2.4783,-2.4321,-2.3739,-2.2902,-2.1865,-2.1345,-2.1123,-2.0967,-2.0926,-2.0926,-2.0916,-2.0973,-2.0818,-2.0667,-2.0463,-2.0441,-2.0719,-2.0835,-2.0771,-2.0675,-2.0579,-2.0483,-2.029,-2.0139,-2.0107,-2.0085,-2.002,-1.9998,-1.9606,-1.9177,-1.8944,-1.8721,-1.8687,-1.8687,-1.862,-1.8529,-1.8462,-1.8438,-1.8405,-1.8496,-1.8844,-1.9562,-1.989,-2.0473,-2.0623,-2.0451,-2.029,-2.0171,-2.0365,-2.0451,-2.0611,-2.0771,-2.0666,-2.0581,-2.1028,-2.1365,-2.1345,-2.1396,-2.1639,-2.1842,-2.217,-2.2437,-2.2388,-2.2396,-2.2544,-2.2734,-2.8021,-2.8021,-2.7947,-2.7971,-2.8055,-2.8023,-2.8129,-2.8131,-2.7642,-2.7671,-2.8175,-2.8099,-2.8028,-2.7939,-2.7888,-2.7854,-2.7759,-2.7876,-2.7905,-2.7954,-2.7966,-2.7686,-2.7511,-2.7378,-2.7443,-2.7345,-2.6993,-2.6791,-2.6905,-2.6708,-2.6385,-2.6288,-2.591,-2.5661,-2.5633,-2.5425,-2.5173,-2.5005,-2.4423,-2.4373,-2.4626,-2.4601,-2.467,-2.4997,-2.4896,-2.483,-2.4548,-2.4248,-2.4007,-2.3783,-2.3299,-2.2506,-2.1698,-2.0985,-2.0516,-2.0346,-2.0293,-2.0457,-2.0402,-2.05,-2.0588,-2.0293,-2.0259,-2.0003,-1.9594,-1.9802,-1.9661,-1.9606,-1.9431,-1.9332,-1.9266,-1.911,-1.9011,-1.8954,-1.8954,-1.8921,-1.8888,-1.8721,-1.8529,-1.8428,-1.8303,-1.8293,-1.8293,-1.8293,-1.8202,-1.8202,-1.8042,-1.8008,-1.8008,-1.7896,-1.8519,-1.8934,-1.9387,-1.9584,-1.9332,-1.9233,-1.921,-1.9497,-1.9835,-1.9748,-1.9694,-1.9901,-2.0074,-2.0291,-2.0452,-2.0452,-2.0602,-2.089,-2.1345,-2.1685,-2.1986,-2.2189,-2.2153,-2.2147,-2.2372,-2.7625,-2.765,-2.7625,-2.7363,-2.6967,-2.6837,-2.6566,-2.6207,-2.5989,-2.5976,-2.621,-2.6767,-2.6916,-2.6941,-2.6941,-2.6941,-2.6925,-2.6866,-2.6644,-2.6508,-2.6279,-2.6548,-2.6564,-2.6299,-2.6509,-2.6536,-2.6284,-2.602,-2.5911,-2.5786,-2.573,-2.5619,-2.5453,-2.5244,-2.5159,-2.492,-2.4523,-2.4221,-2.3842,-2.3531,-2.3599,-2.3645,-2.3824,-2.3752,-2.3569,-2.333,-2.3138,-2.2944,-2.2677,-2.2433,-2.2242,-2.1491,-2.0803,-2.0215,-1.9802,-1.9559,-1.9661,-1.9596,-1.9496,-1.9834,-1.9685,-1.951,-1.9627,-1.9499,-1.9135,-1.8875,-1.8774,-1.8607,-1.8428,-1.8337,-1.8303,-1.8269,-1.8178,-1.8144,-1.81,-1.81,-1.81,-1.8076,-1.8008,-1.7974,-1.794,-1.794,-1.794,-1.794,-1.794,-1.7974,-1.7974,-1.8008,-1.794,-1.7759,-1.791,-1.7935,-1.8017,-1.8094,-1.8259,-1.8395,-1.8452,-1.8654,-1.8944,-1.8754,-1.8731,-1.9164,-1.9363,-1.9264,-1.9386,-1.9682,-1.9835,-2.0085,-2.057,-2.104,-2.106,-2.1239,-2.1635,-2.1689,-2.2022,-2.6392,-2.627,-2.627,-2.6231,-2.615,-2.6138,-2.6015,-2.5934,-2.5921,-2.5893,-2.5948,-2.6002,-2.6138,-2.6138,-2.6123,-2.6177,-2.6312,-2.6096,-2.6042,-2.5989,-2.5948,-2.6019,-2.6006,-2.5924,-2.5978,-2.5909,-2.5785,-2.5619,-2.5244,-2.5132,-2.4836,-2.4352,-2.4266,-2.4092,-2.3904,-2.3699,-2.3564,-2.3357,-2.3135,-2.2829,-2.2786,-2.2859,-2.2859,-2.2829,-2.2816,-2.2756,-2.2695,-2.2677,-2.2634,-2.2317,-2.1635,-2.0867,-2.0236,-1.9715,-1.9351,-1.9333,-1.9399,-1.9399,-1.9458,-1.9592,-1.9482,-1.9336,-1.9406,-1.9256,-1.8916,-1.8573,-1.8428,-1.8226,-1.809,-1.8032,-1.7998,-1.8076,-1.8042,-1.8042,-1.8042,-1.8042,-1.8042,-1.7964,-1.7862,-1.7828,-1.7769,-1.7725,-1.7681,-1.7691,-1.7691,-1.7657,-1.7657,-1.7657,-1.7554,-1.7442,-1.7295,-1.7123,-1.6872,-1.7329,-1.7784,-1.7784,-1.7886,-1.8032,-1.8134,-1.8124,-1.8293,-1.8674,-1.8808,-1.8774,-1.8931,-1.9264,-1.9386,-1.9441,-1.9682,-2.0053,-1.9955,-2.0118,-2.0656,-2.1135,-2.1459]},{"header":{"parameterUnit":"m.s-1","parameterCategory":1,"la1":31.0,"la2":29.5877,"lo1":-88.7671,"lo2":-86.6584,"dy":0.0162,"dx":0.0185,"nx":115,"ny":88,"refTime":"2023-08-21T06:00:00:Z","depth":0,"parameterNumber":3,"parameterNumberName":"V-component_of_WINDS"},"data":[0.0,0.0,0.0,0.0,0.0,0.0,0.0,0.0,0.0,0.0,0.0,0.0,0.0,0.0,0.0,0.0,0.0,0.0,0.0,0.0,0.0,0.0,0.0,0.0,0.0,0.0,0.0,0.0,0.0,0.0,0.0,0.0,0.0,0.0,0.0,0.0,0.0,0.0,0.0,0.0,0.0,0.0,0.0,0.0,0.0,0.0,0.0,0.0,0.0,0.0,0.0,0.0,0.0,0.0,0.0,0.0,0.0,0.0,0.0,0.0,0.0,0.0,0.0,0.0,0.0,0.0,0.0,0.0,0.0,0.0,0.0,0.0,0.0,0.0,0.0,0.0,0.0,0.0,0.0,0.0,0.0,0.0,0.0,0.0,0.0,0.0,0.0,0.0,0.0,0.0,0.0,0.0,0.0,0.0,0.0,0.0,0.0,0.0,0.0,0.0,0.0,0.0,0.0,0.0,0.0,0.0,0.0,0.0,0.0,0.0,0.0,0.0,0.0,0.0,0.0,0.0,0.0,0.0,0.0,0.0,0.0,0.0,0.0,0.0,0.0,0.0,0.0,0.0,0.0,0.0,0.0,0.0,0.0,0.0,0.0,0.0,0.0,0.0,0.0,0.0,0.0,0.0,0.0,0.0,0.0,0.0,0.0,0.0,0.0,0.0,0.0,0.0,0.0,0.0,0.0,0.0,0.0,0.0,0.0,0.0,0.0,0.0,0.0,0.0,0.0,0.0,0.0,0.0,0.0,0.0,0.0,0.0,0.0,0.0,0.0,0.0,0.0,0.0,0.0,0.0,0.0,0.0,0.0,0.0,0.0,0.0,0.0,0.0,0.0,0.0,0.0,0.0,0.0,0.0,0.0,0.0,0.0,0.0,0.0,0.0,0.0,0.0,0.0,0.0,0.0,0.0,0.0,0.0,0.0,0.0,0.0,0.0,0.0,0.0,0.0,0.0,0.0,0.0,0.0,0.0,0.0,0.0,0.0,0.0,0.0,0.0,0.0,0.0,0.0,0.0,0.0,0.0,0.0,0.0,0.0,0.0,0.0,0.0,0.0,0.0,0.0,0.0,0.0,0.0,0.0,0.0,0.0,0.0,0.0,0.0,0.0,0.0,0.0,0.0,0.0,0.0,0.0,0.0,0.0,0.0,0.0,0.0,0.0,0.0,0.0,0.0,0.0,0.0,0.0,0.0,0.0,0.0,0.0,0.0,0.0,0.0,0.0,0.0,0.0,0.0,0.0,0.0,0.0,0.0,0.0,0.0,0.0,0.0,0.0,0.0,0.0,0.0,0.0,0.0,0.0,0.0,0.0,0.0,0.0,0.0,0.0,0.0,0.0,0.0,0.0,0.0,0.0,0.0,0.0,0.0,0.0,0.0,0.0,0.0,0.0,0.0,0.0,0.0,0.0,0.0,0.0,0.0,0.0,0.0,0.0,0.0,0.0,0.0,0.0,0.0,0.0,0.0,0.0,0.0,0.0,0.0,0.0,0.0,0.0,0.0,0.0,0.0,0.0,0.0,0.0,0.0,0.0,0.0,0.0,0.0,0.0,0.0,0.0,0.0,0.0,0.0,0.0,0.0,0.0,0.0,0.0,0.0,0.0,0.0,0.0,0.0,0.0,0.0,0.0,0.0,0.0,0.0,0.0,0.0,0.0,0.0,0.0,0.0,0.0,0.0,0.0,0.0,0.0,0.0,0.0,0.0,0.0,0.0,0.0,0.0,0.0,0.0,0.0,0.0,0.0,0.0,0.0,0.0,0.0,0.0,0.0,0.0,0.0,0.0,0.0,0.0,0.0,0.0,0.0,0.0,0.0,0.0,0.0,0.0,0.0,0.0,0.0,0.0,0.0,0.0,0.0,0.0,0.0,0.0,0.0,0.0,0.0,0.0,0.0,0.0,0.0,0.0,0.0,0.0,0.0,0.0,0.0,0.0,0.0,0.0,0.0,0.0,0.0,0.0,0.0,0.0,0.0,0.0,0.0,0.0,0.0,0.0,0.0,0.0,0.0,0.0,0.0,0.0,0.0,0.0,0.0,0.0,0.0,0.0,0.0,0.0,0.0,0.0,0.0,0.0,0.0,0.0,0.0,0.0,0.0,0.0,0.0,0.0,0.0,0.0,0.0,0.0,0.0,0.0,0.0,0.0,0.0,0.0,0.0,0.0,0.0,0.0,0.0,0.0,0.0,0.0,0.0,0.0,0.0,0.0,0.0,0.0,0.0,0.0,0.0,0.0,0.0,0.0,0.0,0.0,0.0,0.0,0.0,0.0,0.0,0.0,0.0,0.0,0.0,0.0,0.0,0.0,0.0,0.0,0.0,0.0,0.0,0.0,0.0,0.0,0.0,0.0,0.0,0.0,0.0,0.0,0.0,0.0,0.0,0.0,0.0,0.0,0.0,0.0,0.0,0.0,0.0,0.0,0.0,0.0,0.0,0.0,0.0,0.0,0.0,0.0,0.0,0.0,0.0,0.0,0.0,0.0,0.0,0.0,0.0,0.0,0.0,0.0,0.0,0.0,0.0,0.0,0.0,0.0,0.0,0.0,0.0,0.0,0.0,0.0,0.0,0.0,0.0,0.0,0.0,0.0,0.0,0.0,0.0,0.0,0.0,0.0,0.0,0.0,0.0,0.0,0.0,0.0,0.0,0.0,0.0,0.0,0.0,0.0,0.0,0.0,0.0,0.0,0.0,0.0,0.0,0.0,0.0,0.0,0.0,0.0,0.0,0.0,0.0,0.0,0.0,0.0,0.0,0.0,0.0,0.0,0.0,0.0,0.0,0.0,0.0,0.0,0.0,0.0,0.0,0.0,0.0,0.0,0.0,0.0,0.0,0.0,0.0,0.0,0.0,0.0,0.0,0.0,0.0,0.0,0.0,0.0,0.0,0.0,0.0,0.0,0.0,0.0,0.0,0.0,0.0,0.0,0.0,0.0,0.0,0.0,0.0,0.0,0.0,0.0,0.0,0.0,0.0,0.0,0.0,0.0,0.0,0.0,0.0,0.0,0.0,0.0,0.0,0.0,0.0,0.0,0.0,0.0,0.0,0.0,0.0,0.0,0.0,0.0,0.0,0.0,0.0,0.0,0.0,0.0,0.0,0.0,0.0,0.0,0.0,0.0,0.0,0.0,0.0,0.0,0.0,0.0,0.0,0.0,0.0,0.0,0.0,0.0,0.0,0.0,0.0,0.0,0.0,0.0,0.0,0.0,0.0,0.0,0.0,0.0,0.0,0.0,0.0,0.0,0.0,0.0,0.0,0.0,0.0,0.0,0.0,0.0,0.0,0.0,0.0,0.0,0.0,0.0,0.0,0.0,0.0,0.0,0.0,0.0,0.0,0.0,0.0,0.0,0.0,0.0,0.0,0.0,0.0,0.0,0.0,0.0,0.0,0.0,0.0,0.0,0.0,0.0,0.0,0.0,0.0,0.0,0.0,0.0,0.0,0.0,0.0,0.0,0.0,0.0,0.0,0.0,0.0,0.0,0.0,0.0,0.0,0.0,0.0,0.0,0.0,0.0,0.0,0.0,0.0,0.0,0.0,0.0,0.0,0.0,0.0,0.0,0.0,0.0,0.0,0.0,0.0,0.0,0.0,0.0,0.0,0.0,0.0,0.0,0.0,0.0,0.0,0.0,0.0,0.0,0.0,0.0,0.0,0.0,0.0,0.0,0.0,0.0,0.0,0.0,0.0,0.0,0.0,0.0,0.0,0.0,0.0,0.0,0.0,0.0,0.0,0.0,0.0,0.0,0.0,0.0,0.0,0.0,0.0,0.0,0.0,0.0,0.0,0.0,0.0,0.0,0.0,0.0,0.0,0.0,0.0,0.0,0.0,0.0,0.0,0.0,0.0,0.0,0.0,0.0,0.0,0.0,0.0,0.0,0.0,0.0,0.0,0.0,0.0,0.0,0.0,0.0,0.0,0.0,0.0,0.0,0.0,0.0,0.0,0.0,0.0,0.0,0.0,0.0,0.0,0.0,0.0,0.0,0.0,0.0,0.0,0.0,0.0,0.0,0.0,0.0,0.0,0.0,0.0,0.0,0.0,0.0,0.0,0.0,0.0,0.0,0.0,0.0,0.0,0.0,0.0,0.0,0.0,0.0,0.0,0.0,0.0,0.0,0.0,0.0,0.0,0.0,0.0,0.0,0.0,0.0,0.0,0.0,0.0,0.0,0.0,0.0,0.0,0.0,0.0,0.0,0.0,0.0,0.0,0.0,0.0,0.0,0.0,0.0,0.0,0.0,0.0,0.0,0.0,0.0,0.0,0.0,0.721,0.0,0.0,0.0,0.0,0.0,0.0,0.0,0.0,0.0,0.0,0.0,0.0,0.0,0.0,0.0,0.0,0.0,0.0,0.0,0.0,0.0,0.0,0.0,0.0,0.0,0.0,0.0,0.0,0.0,0.0,0.0,0.0,0.0,0.0,0.0,0.0,0.0,0.0,0.0,0.0,0.0,0.0,0.0,0.0,0.0,0.0,0.0,0.0,0.0,0.0,0.0,0.0,0.0,0.0,0.0,0.0,0.0,0.0,0.0,0.0,0.0,0.0,0.0,0.0,0.0,0.0,0.0,0.0,0.0,0.0,0.0,0.0,0.0,0.0,0.0,0.0,0.0,0.0,0.0,0.0,0.0,0.0,0.0,0.0,0.0,0.0,0.0,0.0,0.0,0.0,0.0,0.0,0.0,0.0,0.0,0.0,0.0,0.0,0.0,0.0,0.0,0.0,0.0,0.0,0.0,0.0,0.0,0.0,0.0,0.0,0.8813,0.8809,0.7762,0.6877,0.6207,0.0,0.0,0.0,0.0,0.0,0.0,0.0,0.0,0.0,0.0,0.0,0.0,0.0,0.0,0.0,0.0,0.0,0.0,0.0,0.0,0.0,0.0,0.0,0.0,0.0,0.0,0.0,0.0,0.0,0.0,0.0,0.0,0.0,0.0,0.0,0.0,0.0,0.0,0.0,0.0,0.0,0.0,0.0,0.0,0.0,0.0,0.0,0.0,0.0,0.0,0.0,0.0,0.0,0.0,0.0,0.0,0.0,0.0,0.0,0.0,0.0,0.0,0.0,0.0,0.0,0.0,0.0,0.0,0.0,0.0,0.0,0.0,0.0,0.0,0.0,0.0,0.0,0.0,0.0,0.0,0.0,0.0,0.0,0.0,0.0,0.0,0.0,0.0,0.0,0.0,0.0,0.0,0.0,0.0,0.0,0.0,0.0,0.0,0.0,0.0,0.0,0.0,0.0,0.0,0.0,0.0,0.0,0.0,0.0,0.0,0.0,0.0,0.721,0.6093,0.4643,0.0,0.0,0.0,0.0,0.0,0.0,0.0,0.0,0.0,0.0,0.0,0.0,0.0,0.0,0.0,0.0,0.0,0.0,0.0,0.0,0.0,0.0,0.0,0.0,0.0,0.0,0.0,0.0,0.0,0.0,0.0,0.0,0.0,0.0,0.0,0.0,0.0,0.0,0.0,0.0,0.0,0.0,0.0,0.0,0.0,0.0,0.0,0.0,0.0,0.0,0.0,0.0,0.0,0.0,0.0,0.0,0.0,0.0,0.0,0.0,0.0,0.0,0.0,0.0,0.0,0.0,0.0,0.0,0.0,0.0,0.0,0.0,0.0,0.0,0.0,0.0,0.0,0.0,0.0,0.0,0.0,0.0,0.0,0.0,0.0,0.0,0.0,0.0,0.0,0.0,0.0,0.0,0.0,0.0,0.0,0.0,0.0,0.0,0.0,0.0,0.0,0.0,0.0,0.0,0.0,0.0,0.0,0.0,0.0,0.0,0.7881,0.7607,0.6265,0.0,0.2295,0.0,0.0,0.0,0.0,0.0,0.0,0.0,0.0,0.0,0.0,0.0,0.0,0.0,0.0,0.0,0.0,0.0,0.0,0.0,0.0,0.0,0.0,0.0,0.0,0.0,0.0,0.0,0.0,0.0,0.0,0.0,0.0,0.0,0.0,0.0,0.0,0.0,0.0,0.0,0.0,0.0,0.0,0.0,0.0,0.0,0.0,0.0,0.0,0.0,0.0,0.0,0.0,0.0,0.0,0.0,0.0,0.0,0.0,0.0,0.0,0.0,0.0,0.0,0.0,0.0,0.0,0.0,0.0,0.0,0.0,0.0,0.0,0.0,0.0,0.0,0.0,0.0,0.0,0.0,0.0,0.0,0.0,0.0,0.0,0.0,0.0,0.0,0.0,0.0,0.0,0.0,0.0,0.0,0.0,0.0,0.0,0.0,0.0,0.0,0.0,0.0,0.0,0.0,0.0,0.0,0.0,0.0,0.0,0.0,0.0,0.7379,0.6541,0.4418,0.2797,0.0,0.0,0.0,0.0,0.0,0.0,0.0,0.0,0.0,0.0,0.0,0.0,0.0,0.0,0.0,0.0,0.0,0.0,0.0,0.0,0.0,0.0,0.0,0.0,0.0,0.0,0.0,0.0,0.0,0.0,0.0,0.0,0.0,0.0,0.0,0.0,0.0,0.0,0.0,0.0,0.0,0.0,0.0,0.0,0.0,0.0,0.0,0.0,0.0,0.0,0.0,0.0,0.0,0.0,0.0,0.0,0.0,0.0,0.0,0.0,0.0,0.0,0.0,0.0,0.0,0.0,0.0,0.0,0.0,0.0,0.0,0.0,0.0,0.0,0.0,0.0,0.0,0.0,0.0,0.0,0.0,0.0,0.0,0.0,0.0,0.0,0.0,0.0,0.0,0.0,0.0,0.0,0.0,0.0,0.0,0.0,0.0,0.0,0.0,0.0,0.0,0.0,0.0,0.0,0.0,0.0,0.0,0.0,0.0,0.0,0.6914,0.598,0.4695,0.2797,0.1623,0.1288,0.0,0.0,0.0,0.0,0.0,0.0,0.0,0.0,0.0,0.0,0.0,0.0,0.0,0.0,0.0,0.0,0.0,0.0,0.0,0.0,0.0,0.0,0.0,0.0,0.0,0.0,0.0,0.0,0.0,0.0,0.0,0.0,0.0,0.0,0.0,0.0,0.0,0.0,0.0,0.0,0.0,0.0,0.0,0.0,0.0,0.0,0.0,0.0,0.0,0.0,0.0,0.0,0.0,0.0,0.0,0.0,0.0,0.0,0.0,0.0,0.0,0.0,0.0,0.0,0.0,0.0,0.0,0.0,0.0,0.0,0.0,0.0,0.0,0.0,0.0,0.0,0.0,0.0,0.0,0.0,0.0,0.0,0.0,0.0,0.0,0.0,0.0,0.0,0.0,0.0,0.0,0.0,0.0,0.0,0.0,0.0,0.0,0.0,0.0,0.0,0.0,0.0,0.0,0.0,0.0,0.0,0.0,0.0,0.6056,0.4819,0.3465,0.207,0.1847,0.1232,0.0,0.0,0.0,0.0,0.0,0.0,0.0,0.0,0.0,0.0,0.0,0.0,0.0,0.0,0.0,0.0,0.0,0.0,0.0,0.0,0.0,0.0,0.0,0.0,0.0,0.0,0.0,0.0,0.0,0.0,0.0,0.0,0.0,0.0,0.0,0.0,0.0,0.0,0.0,0.0,0.0,0.0,0.0,0.0,0.0,0.0,0.0,0.0,0.0,0.0,0.0,0.0,0.0,0.0,0.0,0.0,0.0,0.0,0.0,0.0,0.0,0.0,0.0,0.0,0.0,0.0,0.0,0.0,0.0,0.0,0.0,0.0,0.0,0.0,0.0,0.0,0.0,0.0,0.0,0.0,0.0,0.0,0.0,0.0,0.0,0.0,0.0,0.0,0.0,0.0,0.0,0.0,0.0,0.0,0.0,0.0,0.0,0.0,0.0,0.0,0.0,0.0,0.0,0.0,0.0,0.0,0.0,0.0,0.0,0.447,0.3216,0.235,0.1791,0.1064,0.0448,0.0,0.0,0.0,0.0,0.0,0.0,0.0,0.0,0.0,0.0,0.0,0.0,0.0,0.0,0.0,0.0,0.0,0.0,0.0,0.0,0.0,0.0,0.0,0.0,0.0,0.0,0.0,0.0,0.0,0.0,0.0,0.0,0.0,0.0,0.0,0.0,0.0,0.0,0.0,0.0,0.0,0.0,0.0,0.0,0.0,0.0,0.0,0.0,0.0,0.0,0.0,0.0,0.0,0.0,0.0,0.0,0.0,0.0,0.0,0.0,0.0,0.0,0.0,0.0,0.0,0.0,0.0,0.0,0.0,0.0,0.0,0.0,0.0,0.0,0.0,0.0,0.0,0.0,0.0,0.0,0.0,0.0,0.0,0.0,0.0,0.0,0.0,0.0,0.0,0.0,0.0,0.0,0.0,0.0,0.0,0.0,0.0,0.0,0.0,0.0,0.0,0.0,0.0,0.0,0.0,0.0,0.0,0.0,0.0,0.2509,0.0,0.1232,0.1176,0.0448,0.0,0.0,0.0,0.0,0.0,0.0,0.0,0.0,0.0,0.0,0.0,0.0,0.0,0.0,0.0,0.0,0.0,0.0,0.0,0.0,0.0,0.0,0.0,0.0,0.0,0.0,0.0,0.0,0.0,0.0,0.0,0.0,0.0,0.0,0.0,0.0,0.0,0.0,0.0,0.0,0.0,0.0,0.0,0.0,0.0,0.0,0.0,0.0,0.0,0.0,0.0,0.0,0.0,0.0,0.0,0.0,0.0,0.0,0.0,0.0,0.0,0.0,0.0,0.0,0.0,0.0,0.0,0.0,0.0,0.0,0.0,0.0,0.0,0.0,0.0,0.0,0.0,0.0,0.0,0.0,0.0,0.0,0.0,0.0,0.0,0.0,0.0,0.0,0.0,0.0,0.0,0.0,0.0,0.0,0.0,0.0,0.0,0.0,0.0,0.0,0.0,0.0,0.0,0.0,0.0,0.0,0.0,0.0,0.0,0.2685,0.0,0.0,0.0,0.0,0.0,0.0,0.0,0.0,0.0,0.0,0.0,0.0,0.0,0.0,0.0,0.0,0.0,0.0,0.0,0.0,0.0,0.0,0.0,0.0,0.0,0.0,0.0,0.0,0.0,0.0,0.0,0.0,0.0,0.0,0.0,0.0,0.0,0.0,0.0,0.0,0.0,0.0,0.0,0.0,0.0,0.0,0.0,0.0,0.0,0.0,0.0,0.0,0.0,0.0,0.0,0.0,0.0,0.0,0.0,0.0,0.0,0.0,0.0,0.0,0.0,0.0,0.0,0.0,0.0,0.0,0.0,0.0,0.0,0.0,0.0,0.0,0.0,0.0,0.0,0.0,0.0,0.0,0.0,0.0,0.0,0.0,0.0,0.0,0.0,0.0,0.0,0.0,0.0,0.0,0.0,0.0,0.0,0.0,0.0,0.0,0.0,0.0,0.0,0.0,0.0,0.0,0.0,0.0,0.0,0.0,0.0,0.0,0.0,0.0,0.0,0.0,0.0,0.0,0.0,0.0,0.0,0.0,0.0,0.0,0.0,0.0,0.0,0.0,0.0,0.0,0.0,0.0,0.0,0.0,0.0,0.0,0.0,0.0,0.0,0.0,0.0,0.0,0.0,0.0,0.0,0.0,0.0,0.0,0.0,0.0,0.0,0.0,0.0,0.0,0.0,0.0,0.0,0.0,0.0,0.0,0.0,0.0,0.0,0.0,0.0,0.0,0.0,0.0,0.0,0.0,0.0,0.0,0.0,0.0,0.0,0.0,0.0,0.0,0.0,0.0,0.0,0.0,0.0,0.0,0.0,0.0,0.0,0.0,0.0,0.0,0.0,0.0,0.0,0.0,0.0,0.0,0.0,0.0,0.0,0.0,0.0,0.0,0.0,0.0,0.0,0.0,0.0,0.0,0.0,0.0,0.0,0.0,0.0,0.0,0.0,0.0,0.0,0.0,0.0,0.0,0.0,0.0,0.0,0.0,0.0,0.0,0.0,0.0,0.0,0.0,0.0,0.0,0.0,0.0,0.0,0.0,0.0,0.0,0.0,0.0,0.0,0.0,0.0,0.0,0.0,0.0,0.0,0.0,0.0,0.0,0.0,0.0,0.0,0.0,0.0,0.0,0.0,0.0,0.0,0.0,0.0,0.0,0.0,0.0,0.0,0.0,0.0,0.0,0.0,0.0,0.0,0.0,0.0,0.0,0.0,0.0,0.0,0.0,0.0,0.0,0.0,0.0,0.0,0.0,0.0,0.0,0.0,0.0,0.0,0.0,0.0,0.0,0.0,0.0,0.0,0.0,0.0,0.0,0.0,0.0,0.0,0.0,0.0,0.0,0.0,0.0,0.0,0.0,0.0,0.0,0.0,0.0,0.0,0.0,0.0,0.0,0.0,0.0,0.0,0.0,0.0,0.0,0.0,0.0,0.0,0.0,0.0,0.0,0.0,0.0,0.0,0.0,0.0,0.0,0.0,0.0,0.0,0.0,0.0,0.0,0.0,0.0,0.0,0.0,0.0,0.0,0.0,0.0,0.0,0.0,0.0,0.0,0.0,0.0,0.0,0.0,0.0,0.0,0.0,0.0,0.0,0.0,0.0,0.0,0.0,0.0,0.0,0.0,0.0,0.0,0.0,0.0,0.0,0.0,0.0,0.0,0.0,0.0,0.0,0.0,0.0,0.0,0.0,0.0,0.0,0.0,0.0,0.0,0.0,0.0,0.0,0.0,0.0,0.0,0.0,0.0,0.0,0.0,0.0,0.0,0.0,0.0,0.0,0.0,0.0,0.0,0.0,0.0,0.0,0.0,0.0,0.0,0.0,0.0,0.0,0.0,0.0,0.0,0.0,0.0,0.0,0.0,0.0,0.0,0.0,0.0,0.0,0.0,0.0,0.0,0.0,0.0,0.0,0.0,0.0,0.0,0.0,0.0,0.0,0.0,0.0,0.0,0.0,0.0,0.0,0.0,0.0,0.0,0.0,0.0,0.0,0.0,0.0,0.0,0.0,0.0,0.0,0.0,0.0,0.0,0.0,0.0,0.0,0.0,0.0,0.0,0.0,0.0,0.0,0.0,0.0,0.0,0.0,0.0,0.0,0.0,0.0,0.0,0.0,0.0,0.0,0.0,0.0,0.0,0.0,0.0,0.0,0.0,0.0,0.0,0.0,0.0,0.0,0.0,0.0,0.0,0.0,0.0,0.0,0.0,0.0,0.0,0.0,0.0,0.0,0.0,0.0,0.0,0.0,0.0,0.0,0.0,0.0,0.0,0.0,0.0,0.0,0.0,0.0,0.0,0.0,0.0,0.0,0.0,0.0,0.0,0.0,0.0,0.0,0.0,0.0,0.0,0.0,0.0,0.0,0.0,0.0,0.0,0.0,0.0,0.0,0.0,0.0,0.0,0.0,0.0,0.0,0.0,0.0,0.0,0.0,0.0,0.0,0.0,0.0,0.0,0.0,0.0,0.0,0.0,0.0,0.0,0.0,0.0,0.0,0.0,0.0,0.0,0.0,0.0,0.0,0.0,0.0,0.0,0.0,0.0,0.0,0.0,0.0,-0.05,-0.0496,0.0,0.0,0.0,0.0,0.0,0.0,0.0,0.0,0.0,0.0,0.0,0.0,0.0,0.0,0.0,0.0,0.0,0.0,0.0,0.0,0.0,0.0,0.0,0.0,0.0,0.0,0.0,0.0,0.0,0.0,0.0,0.0,0.0,0.0,0.0,0.0,0.0,0.0,0.0,0.0,0.0,0.0,0.0,0.0,0.0,0.0,0.0,0.0,0.0,0.0,0.0,0.0,0.0,0.0,0.0,0.0,0.0,0.0,0.0,0.0,0.0,0.0,0.0,0.0,0.0,0.0,0.0,0.0,0.0,0.0,0.0,0.0,0.0,0.0,0.0,0.0,0.0,0.0,0.0,0.0,0.0,0.0,0.0,0.0,0.0,0.0,0.0,0.0,0.0,0.0,0.0,0.0,0.0,0.0,0.0,0.0,0.0,0.0,0.0,0.0,0.0,0.0,0.0,0.0,0.0,0.0,0.0,0.0,0.0,0.0,0.0,0.0,0.0,-0.1174,-0.122,0.0,0.0,0.0,0.0,0.0,0.0,0.0,0.0,0.0,0.0,0.0,0.0,0.0,0.0,0.0,0.0,0.0,0.0,0.0,0.0,0.0,0.0,0.0,0.0,0.0,0.0,0.0,0.0,0.0,0.0,0.0,0.0,0.0,0.0,0.0,0.0,0.0,0.0,0.0,0.0,0.0,0.0,0.0,0.0,0.0,0.0,0.0,0.0,0.0,0.0,0.0,0.0,0.0,0.0,0.0,0.0,0.0,0.0,0.0,0.0,0.0,0.0,0.0,0.0,0.0,0.0,0.0,0.0,0.0,0.0,0.0,0.0,0.0,0.0,0.0,0.0,0.0,0.0,0.0,0.0,0.0,0.0,0.0,0.0,0.0,0.0,0.0,0.0,0.0,0.0,0.0,0.0,0.0,0.0,0.0,0.0,0.0,0.0,0.0,0.0,0.0,0.0,0.0,0.0,0.0,0.0,0.0,0.0,0.022,0.0,0.0,0.0,0.0,-0.1161,-0.1198,0.0,0.0,0.0,0.0,0.0,0.0,0.0,0.0,0.0,0.0,0.0,0.0,0.0,0.0,0.0,0.0,0.0,0.0,0.0,0.0,0.0,0.0,0.0,0.0,0.0,0.0,0.0,0.0,0.0,0.0,0.0,0.0,0.0,0.0,0.0,0.0,0.0,0.0,0.0,0.0,0.0,0.0,0.0,0.0,0.0,0.0,0.0,0.0,-0.7438,0.0,0.0,0.0,0.0,0.0,0.0,0.0,0.0,0.0,0.0,0.0,0.0,0.0,0.0,0.0,0.0,0.0,0.0,0.0,0.0,0.0,0.0,0.0,0.0,0.0,0.0,0.0,0.0,0.0,0.0,0.0,0.0,0.0,0.0,0.0,0.0,0.0,0.0,0.0,0.0,0.0,0.0,0.0,0.0,0.0,0.0,0.0,0.0,0.0,0.0,0.0,0.0,0.0,0.0,0.0,0.0,0.0,0.0,0.0,0.0331,0.0168,0.0056,0.0,0.0,-0.1652,-0.1733,0.0,0.0,0.0,0.0,0.0,0.0,0.0,0.0,0.0,0.0,0.0,0.0,0.0,0.0,0.0,0.0,0.0,0.0,0.0,0.0,0.0,0.0,0.0,0.0,0.0,0.0,0.0,0.0,0.0,0.0,0.0,0.0,0.0,0.0,0.0,0.0,0.0,0.0,0.0,0.0,0.0,0.0,0.0,0.0,0.0,0.0,0.0,0.0,0.0,0.0,0.0,0.0,0.0,0.0,0.0,0.0,0.0,0.0,0.0,0.0,0.0,0.0,0.0,0.0,0.0,0.0,0.0,0.0,0.0,0.0,0.0,0.0,0.0,0.0,0.0,0.0,0.0,0.0,0.0,0.0,0.0,0.0,0.0,0.0,0.0,0.0,0.0,0.0,0.0,0.0,0.0,0.0,0.0,0.0,0.0,0.0,0.0,0.0,0.0,0.0,0.0,0.0,0.0,0.0,0.0,0.0,0.0,0.0706,0.0497,0.0448,0.0224,0.0056,0.0112,-0.1981,-0.2057,0.0,0.0,0.0,0.0,0.0,0.0,0.0,0.0,0.0,0.0,0.0,0.0,0.0,0.0,0.0,0.0,0.0,0.0,0.0,0.0,0.0,0.0,0.0,0.0,0.0,0.0,0.0,0.0,0.0,0.0,0.0,0.0,0.0,0.0,0.0,0.0,0.0,0.0,0.0,0.1,-0.0445,0.0,0.0,0.0,0.0,0.0,0.0,0.0,0.0,-0.8322,0.0,0.0,0.0,0.0,0.0,0.0,0.0,0.0,0.0,0.0,0.0,0.0,0.0,0.0,0.0,0.0,0.0,0.0,0.0,0.0,0.0,0.0,0.0,0.0,0.0,0.0,0.0,0.0,0.0,0.0,0.0,0.0,0.0,0.0,0.0,0.0,0.0,0.0,0.0,0.0,0.0,0.0,0.0,0.0,0.0,0.0,0.0,0.0,0.0,0.0,0.0,0.0,0.0,0.0,0.0,0.0,0.1252,0.1201,0.1048,0.0785,0.0504,0.0448,0.0672,-0.0881,-0.0921,0.0533,0.0,0.0,0.0,0.0,0.0,0.0,0.0,0.0,0.0,0.0,0.0,0.0,0.0,0.0,0.0,0.0,0.0,0.0,0.0,0.0,0.0,0.0,0.0,0.0,0.0,0.0,0.0,0.0,0.0,0.0,0.0,0.0,0.0,0.0,0.0,0.0,0.0,0.0,0.0,-0.1448,-0.2732,0.0,0.0,0.0,0.0,0.0,0.0,0.0,0.0,-0.866,0.0,0.0,0.0,0.0,0.0,0.0,0.0,0.0,0.0,0.0,0.0,0.0,0.0,0.0,0.0,0.0,0.0,0.0,0.0,0.0,0.0,0.0,0.0,0.0,0.0,0.0,0.0,0.0,0.0,0.0,0.0,0.0,0.0,0.0,0.0,0.0,0.0,0.0,0.0,0.0,0.0,0.0,0.0,0.0,0.0,0.0,0.0,0.0,0.0,0.0,0.0,0.0,0.0,0.0,0.0,0.1531,0.1379,0.1223,0.1121,0.0841,0.0726,0.0886,-0.0329,-0.0378,0.0,0.0,0.0,0.0,0.0,0.0,0.0,0.0,0.0,0.0,0.0,0.0,0.0,0.0,0.0,0.0,0.0,0.0,0.0,0.0,0.0,0.0,0.0,0.0,0.0,0.0,0.0,0.0,0.0,0.0,0.0,0.0,0.0,0.0,0.0,0.0,0.0,0.0,0.0,0.0,-0.2479,-0.3836,-0.5826,0.0,0.0,0.0,0.0,0.0,0.0,-0.9304,-0.9142,0.0,0.0,0.0,0.0,0.0,0.0,0.0,0.0,0.0,0.0,0.0,0.0,0.0,0.0,0.0,0.0,0.0,0.0,0.0,0.0,0.0,0.0,0.0,0.0,0.0,0.0,0.0,0.0,0.0,0.0,0.0,0.0,0.0,0.0,0.0,0.0,0.0,0.0,0.0,0.0,0.0,0.0,0.0,0.0,0.0,0.0,0.0,0.0,0.0,0.0,0.0,0.0,0.0,0.0,0.0,0.1796,0.1549,0.1397,0.1402,0.1121,0.1001,0.1039,0.0163,0.0214,0.0,0.0,0.0,0.0,0.0,0.0,0.0,0.0,0.0,0.0,0.0,0.0,0.0,0.0,0.0,0.0,0.0,0.0,0.0,0.0,0.0,0.0,0.0,0.0,0.0,0.0,0.0,0.0,0.0,0.0,0.0,0.0,0.0,0.0,0.0,0.0,0.0,0.0,0.0,0.0,0.0,-0.4779,-0.6401,-0.7687,0.0,0.0,0.0,0.0,-0.9778,-0.9649,0.0,0.0,0.0,0.0,0.0,0.0,0.0,0.0,0.0,0.0,0.0,0.0,0.0,0.0,0.0,0.0,0.0,0.0,0.0,0.0,0.0,0.0,0.0,0.0,0.0,0.0,0.0,0.0,0.0,0.0,0.0,0.0,0.0,0.0,0.0,0.0,0.0,0.0,0.0,0.0,0.0,0.0,0.0,0.0,0.0,0.0,0.0,0.0,0.0,0.0,0.0,0.0,0.0,0.0,0.0,0.0,0.171,0.1739,0.1767,0.1737,0.1402,0.1391,0.1696,0.1294,0.1219,0.0,0.0,0.0,0.0,0.0,0.0,0.0,0.0,0.0,0.0,0.0,0.0,0.0,0.0,0.0,0.0,0.0,0.0,0.0,0.0,0.0,0.0,0.0,0.0,0.0,0.0,0.0,0.0,0.0,0.0,0.0,0.0,0.0,0.0,0.0,0.0,0.0,0.0,0.0,0.0,0.0,-0.502,-0.7342,-0.8347,-0.9047,0.0,0.0,-0.9915,-0.9961,-0.9735,0.0,0.0,0.0,0.0,0.0,0.0,0.0,0.0,0.0,0.0,0.0,0.0,0.0,0.0,0.0,0.0,0.0,0.0,0.0,0.0,0.0,0.0,0.0,0.0,0.0,0.0,0.0,0.0,0.0,0.0,0.0,0.0,0.0,0.0,0.0,0.0,0.0,0.0,0.0,0.0,0.0,0.0,0.0,0.0,0.0,0.0,0.0,0.0,0.0,0.0,0.0,0.0,0.0,0.0,0.0,0.1704,0.1705,0.1717,0.1793,0.1823,0.1642,0.1574,0.1724,0.1605,0.1578,0.0,0.0,0.0,0.0,0.0,0.0,0.0,0.0,0.0,0.0,0.0,0.0,0.0,0.0,0.0,0.0,0.0,0.0,0.0,0.0,0.0,0.0,0.0,0.0,0.0,0.0,0.0,0.0,0.0,0.0,0.0,0.0,0.0,0.0,0.0,0.0,0.0,0.0,0.0,0.0,0.0,0.0,-0.8052,-0.8969,0.0,0.0,0.0,-1.0151,-0.9995,0.0,0.0,0.0,0.0,0.0,0.0,0.0,0.0,0.0,0.0,0.0,0.0,0.0,0.0,0.0,0.0,0.0,0.0,0.0,0.0,0.0,0.0,0.0,0.0,0.0,0.0,0.0,0.0,0.0,0.0,0.0,0.0,0.0,0.0,0.0,0.0,0.0,0.0,0.0,0.0,0.0,0.0,0.0,0.0,0.0,0.0,0.0,0.0,0.0,0.0,0.0,0.0,0.0,0.0,0.0,0.0,0.0,0.1694,0.1701,0.1716,0.1791,0.1716,0.1701,0.1694,0.1694,0.0,0.0,0.0,0.0,0.0,0.0,0.0,0.0,0.0,0.0,0.0,0.0,0.0,0.0,0.0,0.0,0.0,0.0,0.0,0.0,0.0,0.0,0.0,0.0,0.0,0.0,0.0,0.7339,0.0,0.0,0.0,0.0,0.0,0.0,0.0,0.0,0.0,0.0,0.0,0.0,0.0,0.0,-0.7468,-0.8531,-0.9279,-0.9735,0.0,0.0,-1.0183,-0.9965,-0.9774,-0.9616,0.0,0.0,0.0,0.0,0.0,0.0,0.0,0.0,0.0,0.0,0.0,0.0,0.0,0.0,0.0,0.0,0.0,0.0,0.0,0.0,0.0,0.0,0.0,0.0,0.0,0.0,0.0,0.0,0.0,0.0,0.0,0.0,0.0,0.0,0.0,0.0,0.0,0.0,0.0,0.0,0.0,0.0,0.0,0.0,0.0,0.0,0.0,0.0,0.0,0.0,0.0,0.0,0.0,0.0,0.0,0.1718,0.169,0.1704,0.1707,0.1705,0.1692,0.1718,0.1717,0.165,0.0,0.0,0.0,0.0,0.0,0.0,0.0,0.0,0.0,0.0,0.0,0.0,0.0,0.0,0.0,0.0,0.0,0.0,0.0,0.0,0.0,0.0,0.0,0.0,0.0,0.0,0.0,0.0,0.0,0.0,0.0,0.0,0.0,0.0,0.0,0.0,0.0,0.0,0.0,0.0,0.0,-0.7263,-0.8756,-0.9031,-0.9254,0.0,0.0,-0.9922,-0.988,-0.9872,-0.975,-0.9457,0.0,0.0,0.0,0.0,0.0,0.0,0.0,0.0,0.0,0.0,0.0,0.0,0.0,0.0,0.0,0.0,0.0,0.0,0.0,0.0,0.0,0.0,0.0,0.0,0.0,0.0,0.0,0.0,0.0,0.0,0.0,0.0,0.0,0.0,0.0,0.0,0.0,0.0,0.0,0.0,0.0,0.0,0.0,0.0,0.0,0.0,0.0,0.0,0.0,0.0,0.0,0.0,0.0,0.189,0.189,0.1696,0.1659,0.1729,0.166,0.1654,0.1714,0.1644,0.1628,0.0,0.0,0.0,0.0,0.0,0.0,0.0,0.0,0.0,0.0,0.0,0.0,0.0,0.0,0.0,0.0,0.0,0.0,0.0,0.0,0.0,0.0,0.0,0.0,0.0,0.0,0.0,0.0,0.7089,0.6337,0.4533,0.0,0.0,0.0,0.0,0.0,0.0,0.0,0.0,0.0,0.0,-0.8737,-0.9786,-1.0301,0.0,0.0,-1.0773,-1.0604,-0.9842,-0.9875,-0.9955,-0.975,-0.9613,0.0,0.0,0.0,0.0,0.0,0.0,0.0,0.0,0.0,0.0,0.0,0.0,0.0,0.0,0.0,0.0,0.0,0.0,0.0,0.0,0.0,0.0,0.0,0.0,0.0,0.0,0.0,0.0,0.0,0.0,0.0,0.0,0.0,0.0,0.0,0.0,0.0,0.0,0.0,0.0,0.0,0.0,0.0,0.0,0.0,0.0,0.0,0.0,0.0,0.0,0.0,0.0,0.2121,0.2121,0.1919,0.188,0.1905,0.1881,0.183,0.1903,0.1771,0.1703,0.0,0.0,0.0,0.0,0.0,0.0,0.0,0.0,0.0,0.0,0.0,0.0,0.0,0.0,0.0,0.0,0.0,0.0,0.0,0.0,0.0,0.0,0.0,0.0,0.0,0.0,0.0,0.0,0.6675,0.5741,0.3915,0.0,0.0,0.0,0.0,0.0,0.0,0.0,0.0,0.0,0.0,-0.9824,-1.0511,-1.1111,-1.147,-1.1268,-1.1378,-1.1194,-1.0319,-1.0183,-1.014,-0.9998,0.0,0.0,0.0,0.0,0.0,0.0,0.0,0.0,0.0,0.0,0.0,0.0,0.0,0.0,0.0,0.0,0.0,0.0,0.0,0.0,0.0,0.0,0.0,0.0,0.0,0.0,0.0,0.0,0.0,0.0,0.0,0.0,0.0,0.0,0.0,0.0,0.0,0.0,0.0,0.0,0.0,0.0,0.0,0.0,0.0,0.0,0.0,0.0,0.0,0.0,0.0,0.0,0.0,0.2371,0.2371,0.2371,0.2371,0.2372,0.2371,0.2369,0.237,0.2133,0.2015,0.2015,0.0,0.0,0.0,0.0,0.0,0.0,0.0,0.0,0.0,0.0,0.0,0.0,0.0,0.0,0.0,0.0,0.0,0.0,0.0,0.0,0.0,0.0,0.0,0.0,0.0,0.0,0.6856,0.5526,0.4296,0.0,0.0,0.0,0.0,0.0,0.0,0.0,0.0,0.0,0.0,-0.9636,-1.025,-1.0733,-1.1194,-1.1636,-1.185,-1.1698,-1.1491,-1.1432,-1.087,-1.0338,0.0,0.0,0.0,0.0,0.0,0.0,0.0,0.0,0.0,0.0,0.0,0.0,0.0,0.0,0.0,0.0,0.0,0.0,0.0,0.0,0.0,0.0,0.0,0.0,0.0,0.0,0.0,0.4974,0.5317,0.0,0.0,0.0,0.0,0.0,0.0,0.0,0.0,0.0,0.0,0.0,0.4912,0.3797,0.0,0.0,0.0,0.0,0.0,0.0,0.0,0.0,0.0,0.0,0.0,0.0,0.2675,0.2675,0.2522,0.2356,0.2327,0.2326,0.2313,0.2237,0.2175,0.2169,0.2169,0.0,0.0,0.0,0.0,0.0,0.0,0.0,0.0,0.0,0.0,0.0,0.0,0.0,0.0,0.0,0.0,0.0,0.0,0.0,0.0,0.0,0.0,0.0,0.0,0.0,0.7297,0.0,0.0,0.0,0.0,0.0,0.0,0.0,0.0,0.0,0.0,0.0,-0.6999,-0.9017,-0.9731,-1.0449,-1.1383,-1.1969,-1.2355,0.0,0.0,0.0,0.0,0.0,0.0,0.0,0.0,0.0,0.0,0.0,0.0,0.0,0.0,-0.7631,-0.7738,-0.7458,-0.7176,-0.7042,0.0,0.0,0.0,0.0,0.0,0.0,0.0,0.0,0.0,0.0,0.0,0.0,0.0,0.0,0.0,0.0,0.6619,0.0,0.0,0.0,0.0,0.0,0.0,0.0,0.0,0.6075,0.6111,0.6146,0.5004,0.4504,0.0,0.3527,0.3025,0.0,0.0,0.0,0.0,0.0,0.0,0.0,0.0,0.2898,0.2898,0.273,0.2606,0.2574,0.2572,0.2557,0.2528,0.2416,0.2353,0.2337,0.2285,0.2282,0.0,0.0,0.0,0.0,0.0,0.0,0.0,0.0,0.0,0.0,0.0,0.0,0.0,0.0,0.0,0.0,0.0,0.0,0.0,0.0,0.0,0.0,0.0,0.6937,0.0,0.0,0.0,0.0,0.0,0.0,0.0,0.0,0.0,-0.497,-0.6215,-0.7691,-0.9505,-1.0167,-1.0867,-1.1897,0.0,0.0,0.0,0.0,0.0,0.0,0.0,-1.1878,-1.1541,-1.108,-1.053,-0.9936,-0.9206,-0.8601,-0.8234,0.0,0.0,-0.7597,-0.7341,-0.7054,-0.6925,-0.6748,-0.664,-0.6593,-0.6479,-0.6346,0.0,0.0,0.0,0.0,0.0,0.0,0.0,0.0,0.5179,0.5686,0.0,0.6616,0.0,0.0,0.0,0.0,0.0,0.0,0.0,0.0,0.8246,0.8397,0.817,0.7118,0.6692,0.6684,0.488,0.418,0.4423,0.3626,0.0,0.0,0.0,0.0,0.0,0.0,0.3136,0.3086,0.308,0.3097,0.3094,0.3094,0.3093,0.3087,0.2803,0.2568,0.2522,0.2341,0.2365,0.2643,0.2692,0.0,0.0,0.0,0.0,0.0,0.0,0.0,0.0,0.0,0.0,0.0,0.0,0.0,0.0,0.0,0.0,0.0,0.0,0.0,0.0,0.7367,0.0,0.0,0.0,0.0,0.0,0.0,0.0,0.0,0.0,0.0,-0.5536,-0.6786,-0.833,-1.0132,0.0,0.0,0.0,0.0,-1.3195,-1.3432,-1.326,-1.3104,-1.3093,-1.2511,-1.2024,-1.198,0.0,0.0,-0.9529,-0.9265,-0.8905,-0.8376,-0.8149,-0.7869,-0.7214,-0.7146,-0.7095,-0.7051,-0.6697,-0.6428,-0.6343,-0.605,-0.5744,0.3576,0.0,0.0,0.0,0.0,0.3862,0.4379,0.4994,0.5497,0.6009,0.6443,0.6581,0.0,0.0,0.0,0.0,0.0,0.0,0.7522,0.7904,0.8062,0.8201,0.8265,0.7036,0.6667,0.7036,0.5779,0.534,0.562,0.4736,0.393,0.3228,0.0,0.0,0.0,0.0,0.3123,0.3122,0.3105,0.3075,0.3032,0.303,0.3011,0.2971,0.2863,0.2819,0.2842,0.2852,0.321,0.3962,0.4065,0.0,0.0,0.0,0.0,0.0,0.0,0.0,0.0,0.0,0.0,0.0,0.0,0.0,0.0,0.0,0.0,0.0,0.0,0.0,0.7984,0.7279,0.6497,0.0,0.0,0.0,0.0,0.0,0.0,0.0,0.0,0.0,-0.6088,-0.7911,-0.9461,0.0,0.0,-1.1909,-1.2269,-1.2754,-1.313,-1.32,0.0,0.0,0.0,-1.271,-1.2322,-1.1536,-1.0511,-0.971,-0.9433,-0.9359,-0.9056,-0.8313,-0.8135,-0.7869,-0.7269,-0.7095,-0.7007,-0.6697,-0.6473,-0.6299,-0.5949,-0.5777,-0.5688,0.3587,0.3582,0.3521,0.3492,0.3531,0.4072,0.4541,0.5002,0.5709,0.617,0.6462,0.6586,0.6554,0.6387,0.6387,0.0,0.0,0.0,0.7397,0.7778,0.7952,0.8133,0.8262,0.7509,0.739,0.7786,0.6728,0.649,0.6862,0.579,0.4981,0.4377,0.0,0.0,0.339,0.3376,0.3437,0.3576,0.3595,0.3559,0.3516,0.3515,0.3405,0.3189,0.3544,0.3652,0.356,0.4031,0.4545,0.5069,0.5213,0.5638,0.0,0.0,0.0,0.0,0.0,0.0,0.0,0.0,0.0,0.0,0.0,0.8792,0.0,0.0,0.0,0.0,0.874,0.8472,0.7944,0.7323,0.0,0.0,0.0,0.0,0.0,0.0,0.0,-0.1629,-0.373,-0.5674,-0.7192,-0.881,-1.0078,-1.0641,-1.1438,-1.2124,-1.2449,0.0,-1.2969,-1.2969,-1.2969,-1.292,-1.2835,-1.2807,-1.2467,-1.1389,-1.0507,-0.9788,-0.9539,-0.9361,-0.8997,-0.8481,-0.8145,-0.7842,-0.7337,-0.7098,-0.6922,-0.6612,-0.6473,-0.6254,-0.5908,-0.5774,-0.5688,0.3699,0.3638,0.3637,0.3588,0.3624,0.4106,0.4675,0.5226,0.5783,0.6208,0.6567,0.6619,0.65,0.6387,0.6387,0.0,0.0,0.697,0.7288,0.7565,0.7928,0.8176,0.8255,0.8252,0.8477,0.8775,0.7783,0.7627,0.8037,0.6855,0.6267,0.6219,0.4302,0.3556,0.3887,0.3774,0.3965,0.4378,0.4342,0.4344,0.4387,0.4387,0.421,0.3855,0.4654,0.4919,0.4525,0.5522,0.6098,0.599,0.6144,0.6632,0.751,0.0,0.0,0.0,0.0,0.0,0.0,0.0,0.0,0.0,0.0,0.0,0.0,0.0,0.0,0.0,0.8911,0.0,0.7988,0.7422,0.0,0.0,0.0,0.3673,0.2784,0.0724,-0.1163,-0.2559,0.0,0.0,0.0,0.0,-1.0297,-1.1145,-1.1731,-1.2273,-1.2716,-1.277,-1.2807,-1.2824,-1.2813,-1.2813,-1.2813,-1.2662,-1.2257,-1.1302,-1.0681,-1.0075,-0.96,-0.9243,-0.8908,-0.8563,-0.8156,-0.772,-0.7444,-0.7052,-0.6792,-0.6748,-0.6567,-0.6299,-0.6083,-0.5866,-0.5688,0.4313,0.4311,0.4295,0.399,0.3567,0.4085,0.459,0.5139,0.5753,0.621,0.6567,0.6619,0.6551,0.6387,0.6387,0.64,0.648,0.6935,0.7202,0.7333,0.7794,0.8026,0.8096,0.8042,0.8321,0.8775,0.8528,0.8659,0.897,0.7909,0.7259,0.7085,0.5946,0.5165,0.478,0.4377,0.4242,0.433,0.431,0.4563,0.5139,0.5137,0.5314,0.5753,0.5974,0.6021,0.5891,0.6213,0.6697,0.7262,0.7353,0.7755,0.8425,0.8405,0.0,0.0,0.0,0.0,0.0,0.0,0.0,0.0,0.0,0.884,0.8815,0.0,0.8911,0.0,0.8995,0.8688,0.8157,0.7603,0.0,0.0,0.4888,0.3784,0.2742,0.1336,-0.02,-0.1964,-0.3459,-0.5347,-0.7869,-0.9258,-1.0444,-1.1634,-1.2273,-1.2662,-1.2807,-1.2807,-1.2807,-1.2807,-1.2807,-1.2807,-1.2743,-1.2078,-1.1473,-1.1024,-1.0237,-0.9565,-0.9246,-0.8997,-0.8636,-0.8297,-0.8024,-0.7643,-0.7262,-0.6945,-0.6751,-0.6523,-0.6302,-0.6083,-0.5819,-0.5733,-0.5688,0.4925,0.4925,0.4925,0.4677,0.4359,0.4918,0.5312,0.5594,0.6136,0.6472,0.6616,0.6511,0.6449,0.6389,0.6387,0.6387,0.6437,0.6839,0.7089,0.7235,0.764,0.7892,0.7988,0.7988,0.8283,0.8772,0.8754,0.8964,0.9344,0.8578,0.8176,0.8174,0.743,0.6907,0.6574,0.5925,0.5492,0.5406,0.5714,0.6024,0.6464,0.6464,0.6549,0.6722,0.7122,0.7254,0.7034,0.7471,0.789,0.8268,0.831,0.8419,0.8692,0.8635,0.8539,0.0,0.0,0.0,0.0,0.0,0.0,0.0,0.0,0.0,0.0,0.0,0.9126,0.0,0.9208,0.0,0.8362,0.7882,0.7167,0.61,0.5074,0.3932,0.2679,0.1405,-0.0101,-0.1967,-0.3123,-0.4774,-0.7273,-0.8418,-0.9604,-1.1375,-1.1783,-1.2154,-1.2694,-1.2807,-1.2807,-1.2807,-1.2673,-1.2565,-1.2516,-1.1587,-1.0882,-1.0721,-0.9944,-0.9202,-0.8968,-0.8648,-0.8341,-0.8026,-0.7723,-0.7379,-0.703,-0.6789,-0.6567,-0.6302,-0.6083,-0.5911,-0.5733,-0.5688,-0.5688,0.5539,0.5539,0.5483,0.5483,0.5539,0.6154,0.6323,0.6179,0.6594,0.6725,0.6538,0.6433,0.6387,0.6387,0.6387,0.6387,0.6437,0.6739,0.6992,0.7238,0.7543,0.7793,0.7988,0.7988,0.8287,0.8768,0.8665,0.8891,0.9376,0.9007,0.8919,0.9203,0.8653,0.8416,0.8452,0.783,0.7302,0.6912,0.7478,0.783,0.7918,0.7921,0.7786,0.7518,0.8277,0.8484,0.8066,0.8817,0.9169,0.8932,0.889,0.8816,0.8608,0.8595,0.8562,0.0,0.8734,0.0,0.0,0.0,0.0,0.0,0.0,0.0,0.0,0.9349,0.9402,0.938,0.9451,0.9248,0.8584,0.8231,0.7577,0.6386,0.534,0.4108,0.2566,0.1211,-0.0353,-0.217,-0.3069,-0.446,-0.6842,-0.7384,-0.8452,-1.0422,-1.0738,-1.0986,-1.2021,-1.2491,-1.2683,-1.2721,-1.2501,-1.2301,-1.1996,-1.1241,-1.0579,-1.0412,-0.9705,-0.8959,-0.8679,-0.8337,-0.8027,-0.7779,-0.7413,-0.7061,-0.6836,-0.6609,-0.6343,-0.6124,-0.5908,-0.5735,-0.5688,-0.5688,-0.5688,0.6151,0.6151,0.6151,0.6151,0.6207,0.6763,0.6753,0.6275,0.6626,0.6679,0.6422,0.6398,0.6387,0.6387,0.6387,0.6387,0.6437,0.6889,0.7138,0.7235,0.769,0.7939,0.7988,0.7988,0.8287,0.8764,0.8668,0.8949,0.9567,0.9068,0.8984,0.9351,0.9165,0.8903,0.8544,0.0,0.0,0.0,0.7746,0.8097,0.8671,0.8715,0.8934,0.9419,0.9598,0.0,0.928,0.9408,0.9354,0.8991,0.8977,0.0,0.0,0.0,0.0,0.0,0.0,0.0,0.0,0.0,0.0,0.0,0.975,0.9777,0.9559,0.9738,0.9851,0.9795,0.9624,0.9436,0.9305,0.863,0.7729,0.6646,0.5454,0.4166,0.2572,0.1211,-0.0303,-0.2169,-0.3034,-0.4375,-0.6566,-0.7206,-0.7902,-0.9323,-0.9558,-0.9597,-0.9865,-1.1258,-1.2188,-1.2224,-1.2197,-1.201,-1.16,-1.1017,-1.0384,-0.9872,-0.9323,-0.8729,-0.8378,-0.8108,-0.786,-0.759,-0.7296,-0.7003,-0.6836,-0.6564,-0.6299,-0.6124,-0.5863,-0.5688,-0.5688,-0.5688,-0.5688,0.6765,0.0,0.6765,0.6765,0.0,0.7096,0.6956,0.6673,0.6773,0.6665,0.6389,0.6387,0.6387,0.6387,0.6387,0.6387,0.6437,0.6939,0.7185,0.7235,0.7739,0.7988,0.7988,0.8137,0.8382,0.8764,0.8675,0.8933,0.9458,0.8954,0.8968,0.9459,0.9358,0.9301,0.9248,0.9772,0.9641,0.889,0.889,0.9152,0.9719,0.9767,0.9933,1.0441,0.0,0.0,0.0,0.0,0.0,0.0,0.0,0.0,0.0,0.0,0.0,0.8864,0.9046,0.9197,0.9285,0.9719,0.9961,1.009,1.0446,1.0424,0.9864,0.9907,0.9998,0.993,0.9674,0.9455,0.9271,0.864,0.7791,0.6604,0.5497,0.4163,0.2549,0.1178,-0.0295,-0.2058,-0.311,-0.4292,-0.5923,-0.6498,-0.7161,-0.8225,-0.834,-0.8429,-0.9079,-1.0352,-1.1451,-1.1807,-1.1921,-1.1693,-1.1094,-1.0622,-1.0109,-0.9513,-0.8909,-0.8388,-0.7973,-0.7733,-0.7519,-0.7259,-0.7034,-0.6786,-0.6643,-0.6435,-0.6171,-0.5952,-0.5777,-0.5688,-0.5688,-0.5688,-0.5688,0.7321,0.721,0.721,0.721,0.7207,0.7188,0.7155,0.7127,0.0,0.0,0.0,0.6387,0.6387,0.6387,0.6387,0.6387,0.6437,0.6939,0.7185,0.7235,0.7736,0.7988,0.7988,0.8233,0.8478,0.8761,0.8714,0.8926,0.938,0.8898,0.8909,0.9435,0.9358,0.9568,0.9994,0.9994,1.0038,1.012,1.0125,1.0236,1.0537,1.0618,1.073,1.0835,1.0502,1.0233,0.9974,0.9781,0.9546,0.9198,0.9341,0.9241,0.8937,0.9135,0.928,0.9295,0.9671,0.9913,0.9913,1.0406,1.0717,1.0722,1.1063,1.0939,1.0081,1.0081,1.0096,1.0051,0.9772,0.9474,0.922,0.8714,0.7915,0.6735,0.5606,0.4233,0.2571,0.1191,-0.0286,-0.1999,-0.3133,-0.4118,-0.5157,-0.5699,-0.6301,-0.7071,-0.7162,-0.7403,-0.846,-0.9496,-1.0357,-1.0766,-1.0914,-1.0936,-1.0343,-1.0005,-0.9595,-0.9083,-0.8522,-0.797,-0.7599,-0.7388,-0.7147,-0.6896,-0.6711,-0.6554,-0.6357,-0.6213,-0.5994,-0.573,-0.5644,-0.5644,-0.5599,-0.5599,-0.5599,0.7875,0.721,0.721,0.721,0.7202,0.7103,0.7304,0.7598,0.6961,0.6567,0.6389,0.6387,0.6387,0.6387,0.6387,0.6387,0.6437,0.6989,0.7185,0.0,0.7736,0.7988,0.7988,0.8041,0.8336,0.8761,0.8687,0.89,0.9311,0.897,0.9025,0.9435,0.9354,0.9519,0.9994,0.9994,1.0168,1.0506,1.0506,1.0416,1.0273,1.0647,1.0746,1.057,1.0513,1.0361,1.0168,1.0121,1.0015,0.9791,0.9825,0.9765,0.9744,1.014,1.0383,1.0409,1.081,1.1064,1.1059,1.1133,1.1198,1.1198,1.1278,1.0939,1.012,1.0337,1.0455,1.0295,1.002,0.9804,0.9675,0.9051,0.8311,0.7429,0.5931,0.4421,0.2988,0.1378,-0.0285,-0.204,-0.2908,-0.3851,-0.4908,-0.535,-0.5663,-0.5919,-0.607,-0.6281,-0.7204,-0.8155,-0.8689,-0.8796,-0.9183,-0.9222,-0.8808,-0.8927,-0.8717,-0.829,-0.7912,-0.7537,-0.711,-0.7072,-0.6951,-0.6682,-0.657,-0.6461,-0.6186,-0.6127,-0.5908,-0.5552,-0.5463,-0.5371,-0.5191,-0.5146,-0.5191,0.8975,0.864,0.8585,0.8543,0.8403,0.8189,0.8232,0.8405,0.7968,0.7494,0.7036,0.6584,0.6387,0.6387,0.6387,0.6489,0.6637,0.6921,0.7183,0.7328,0.772,0.7867,0.7923,0.8294,0.8581,0.8814,0.8956,0.9164,0.9332,0.9096,0.915,0.9506,0.9619,0.9777,0.999,1.0096,1.0208,1.0374,1.0374,1.0578,1.0977,1.1018,1.1041,1.1039,1.083,1.0589,1.039,1.0379,1.0215,0.9927,1.011,1.0143,0.9933,1.0678,1.1146,1.1157,1.1932,1.2382,1.2382,1.2644,1.2772,1.2766,1.3027,1.2772,1.1869,1.1273,1.0937,1.0831,1.0401,1.0086,1.0041,0.9197,0.8385,0.7612,0.6153,0.4599,0.3129,0.1566,-0.0184,-0.1933,-0.2971,-0.3859,-0.4946,-0.536,-0.5479,-0.547,-0.528,-0.5411,-0.5961,-0.6254,-0.6876,-0.7838,-0.8219,-0.8082,-0.7619,-0.7429,-0.7248,-0.6709,-0.6656,-0.6496,-0.6235,-0.6337,-0.6511,-0.6324,-0.622,-0.6195,-0.6057,-0.5861,-0.5638,-0.5505,-0.5235,-0.5146,-0.501,-0.4921,-0.4926,0.9966,0.9794,0.976,0.9576,0.9379,0.908,0.9107,0.921,0.8927,0.8528,0.8077,0.7282,0.6833,0.6684,0.6686,0.6722,0.679,0.6945,0.7124,0.7382,0.7652,0.7814,0.7876,0.8357,0.8676,0.881,0.9137,0.9296,0.934,0.9181,0.9213,0.9458,0.9862,1.0042,0.9994,1.0126,1.0265,1.0344,1.0336,1.0692,1.1385,1.1284,1.1309,1.1378,1.1118,1.086,1.0643,1.0625,1.0513,1.0218,1.0588,1.07,1.0455,1.1391,1.2034,1.216,1.2893,1.3403,1.3516,1.3924,1.4132,1.4174,1.4475,1.4391,1.3662,1.2681,1.1966,1.1746,1.1327,1.0901,1.0521,0.9689,0.8671,0.7661,0.6201,0.4701,0.3224,0.1651,0.0,-0.1778,-0.2832,-0.3661,-0.463,-0.5163,-0.5303,-0.5084,-0.4835,-0.4789,-0.4949,-0.4768,-0.5446,-0.6534,-0.7141,-0.6954,-0.6561,-0.6277,-0.5891,-0.5441,-0.5328,-0.52,-0.4998,-0.5309,-0.5438,-0.5228,-0.5222,-0.5101,-0.5201,-0.5188,-0.4968,-0.4786,-0.4788,-0.4924,-0.4832,-0.4701,-0.4703,1.0515,0.983,0.9699,0.9346,0.9138,0.9035,0.9392,0.976,0.913,0.9171,0.962,0.892,0.8177,0.7531,0.7481,0.722,0.6775,0.6906,0.7119,0.7351,0.7606,0.7814,0.7866,0.8016,0.8333,0.8775,0.8852,0.9108,0.94,0.922,0.92,0.935,0.9936,1.0175,1.0038,1.0121,1.0428,1.0799,1.0758,1.0774,1.0897,1.1265,1.1354,1.1122,1.1116,1.1061,1.1037,1.1037,1.1037,1.1037,1.1558,1.1855,1.1887,1.2681,1.3285,1.3586,1.3669,1.3807,1.4123,1.4448,1.472,1.465,1.4754,1.4747,1.4615,1.4455,1.3993,1.3328,1.3081,1.2413,1.1386,1.073,0.9721,0.8142,0.6345,0.4643,0.3648,0.1848,0.0044,-0.1525,-0.206,-0.3001,-0.4031,-0.4409,-0.4606,-0.4764,-0.4687,-0.4624,-0.4661,-0.4481,-0.4315,-0.4788,-0.5205,-0.5513,-0.533,-0.5339,-0.5041,-0.4867,-0.4356,-0.3912,-0.3712,-0.3544,-0.3408,-0.3842,-0.3459,-0.3456,-0.3369,-0.3398,-0.3846,-0.3712,-0.4026,-0.4612,-0.4433,-0.4389,-0.4523,1.1607,1.1173,1.1042,1.0845,1.0509,1.033,1.0429,1.0659,1.0359,1.0404,1.0654,1.0355,0.9513,0.8322,0.8619,0.863,0.8379,0.8189,0.8387,0.8892,0.8726,0.8576,0.8551,0.8995,0.9065,0.8825,0.8981,0.9139,0.9384,0.9355,0.9416,0.9628,0.995,1.0085,1.0024,1.0418,1.0622,1.068,1.1044,1.1141,1.0995,1.1167,1.1188,1.1129,1.1117,1.1117,1.1155,1.1446,1.1632,1.1669,1.2439,1.2879,1.2886,1.3955,1.4607,1.4752,1.5241,1.5606,1.5717,1.6079,1.6189,1.5953,1.6166,1.6189,1.596,1.5747,1.5469,1.5053,1.4241,1.3387,1.2631,1.1847,1.0868,0.954,0.7896,0.6417,0.535,0.362,0.1909,0.0382,-0.0506,-0.1383,-0.2509,-0.3233,-0.3829,-0.4351,-0.4401,-0.4165,-0.4277,-0.4159,-0.3901,-0.3703,-0.3892,-0.4031,-0.3953,-0.3521,-0.3301,-0.3062,-0.2913,-0.2733,-0.2473,-0.283,-0.3016,-0.277,-0.2623,-0.2559,-0.2628,-0.2458,-0.2594,-0.259,-0.2996,-0.3628,-0.3494,-0.3896,-0.4342,1.2378,1.2134,1.1968,1.1761,1.142,1.1264,1.1194,1.1194,1.1194,1.1296,1.1443,1.1438,1.0895,1.0006,0.9948,0.9896,0.9806,0.9384,0.9568,1.0142,0.9675,0.949,0.9469,0.9957,1.0049,0.9702,0.9571,0.9457,0.9378,0.9507,0.9607,0.9685,0.9932,1.0051,1.0067,1.0503,1.0652,1.0587,1.1184,1.1504,1.1372,1.1521,1.1521,1.1372,1.1434,1.1583,1.1774,1.2285,1.2542,1.2586,1.3419,1.3861,1.3941,1.4936,1.5511,1.5597,1.6338,1.6774,1.6689,1.7013,1.7107,1.6885,1.7081,1.7115,1.6809,1.6569,1.6433,1.6168,1.526,1.4457,1.3601,1.2819,1.1949,1.0928,0.9356,0.7922,0.6815,0.5226,0.3517,0.2027,0.0905,-0.0041,-0.1108,-0.1907,-0.257,-0.3125,-0.325,-0.3251,-0.3409,-0.3376,-0.3295,-0.2982,-0.2866,-0.2868,-0.2865,-0.2477,-0.1807,-0.1628,-0.1809,-0.1547,-0.1276,-0.1834,-0.2003,-0.1316,-0.1554,-0.1555,-0.1193,-0.1107,-0.1546,-0.1762,-0.2157,-0.251,-0.2495,-0.3122,-0.3385,1.2616,1.2082,1.1713,1.148,1.1212,1.1247,1.1243,1.1292,1.1243,1.1487,1.1932,1.198,1.2175,1.2414,1.1326,1.0718,1.0564,1.0328,1.0273,1.0461,1.0291,1.0331,1.051,1.0683,1.1135,1.1453,1.0769,1.0018,0.9316,0.9638,0.9635,0.9451,1.0105,1.0268,1.0212,1.0391,1.0372,1.0776,1.1431,1.1802,1.2011,1.2496,1.2489,1.2114,1.2315,1.2755,1.3273,1.3687,1.3896,1.3903,1.4494,1.4832,1.4903,1.5461,1.5814,1.5874,1.6428,1.6647,1.6456,1.6704,1.6855,1.6838,1.6922,1.6834,1.6807,1.6715,1.6573,1.6324,1.6057,1.542,1.4251,1.3618,1.2778,1.1539,0.9968,0.8743,0.7813,0.6341,0.4482,0.31,0.2032,0.0949,-0.0355,-0.0667,-0.0786,-0.1061,-0.1372,-0.1723,-0.1801,-0.2155,-0.2352,-0.2273,-0.2078,-0.204,-0.2316,-0.1974,-0.1632,-0.1409,-0.0937,-0.0496,-0.0255,-0.0087,0.0,0.0133,0.0044,0.0133,0.0482,0.0217,-0.056,-0.0985,-0.1279,-0.1532,-0.1542,-0.1567,-0.191,1.3493,1.2925,1.2534,1.2296,1.2229,1.2224,1.2219,1.2224,1.2224,1.2322,1.2467,1.2521,1.2764,1.3249,1.2754,1.2422,1.2188,1.1822,1.1903,1.2264,1.1881,1.1667,1.175,1.2062,1.2106,1.1925,1.1573,1.1218,1.099,1.1242,1.1358,1.1294,1.1598,1.1787,1.1783,1.2082,1.229,1.2319,1.2685,1.2872,1.2873,1.288,1.3039,1.3462,1.3273,1.3375,1.3803,1.4307,1.4565,1.4573,1.5365,1.5806,1.5842,1.6272,1.6517,1.6508,1.6714,1.6804,1.6759,1.7171,1.7243,1.6956,1.7261,1.7243,1.6929,1.6615,1.6399,1.6235,1.5828,1.5292,1.4927,1.4396,1.3843,1.2941,1.1714,1.061,0.9769,0.831,0.6723,0.5427,0.3995,0.2504,0.1641,0.1173,0.0781,0.0234,-0.0273,-0.0391,-0.0312,-0.0625,-0.0782,-0.0352,-0.0431,-0.063,-0.0441,-0.1004,-0.1091,-0.0818,-0.0456,-0.0169,0.0087,0.022,0.0267,0.0443,0.0711,0.0877,0.0907,0.0893,0.0211,0.021,-0.0125,-0.0541,-0.0588,-0.0791,-0.1168,1.3764,1.3359,1.2975,1.2807,1.2807,1.2807,1.2807,1.2807,1.2807,1.2861,1.3007,1.3007,1.3292,1.3678,1.3732,1.3688,1.3454,1.3091,1.3199,1.3567,1.3084,1.2832,1.2875,1.3174,1.32,1.2804,1.2431,1.2156,1.1863,1.2071,1.2178,1.2194,1.2545,1.2674,1.276,1.3014,1.3184,1.3281,1.348,1.3578,1.3651,1.3535,1.3869,1.4589,1.4438,1.4394,1.4736,1.5251,1.5542,1.5613,1.6158,1.6491,1.6517,1.6839,1.7012,1.7003,1.6978,1.7038,1.7144,1.749,1.7483,1.7058,1.7348,1.7385,1.6927,1.6665,1.6447,1.6193,1.5771,1.5382,1.5139,1.4811,1.4419,1.39,1.3003,1.215,1.144,1.0013,0.8414,0.6734,0.5273,0.4064,0.332,0.293,0.246,0.1794,0.1327,0.1132,0.1287,0.0976,0.0781,0.133,0.1065,0.0995,0.1134,0.0942,0.0,0.0042,0.0085,0.0259,0.035,0.0487,0.0621,0.0796,0.092,0.1079,0.1232,0.1338,0.1369,0.1364,0.1024,0.0487,0.0245,-0.0082,-0.0287,1.3453,1.3275,1.291,1.2905,1.2953,1.2958,1.2856,1.2905,1.291,1.3152,1.3491,1.3485,1.3775,1.4202,1.4202,1.4238,1.413,1.3897,1.3842,1.3847,1.3614,1.3644,1.3795,1.3848,1.408,1.4263,1.3542,1.2624,1.1921,1.2201,1.2307,1.2246,1.2741,1.3063,1.2802,1.3051,1.3107,1.3518,1.3807,1.4001,1.4268,1.4462,1.4888,1.5594,1.5648,1.5762,1.6202,1.6586,1.6726,1.676,1.6839,1.6908,1.6874,1.7072,1.7201,1.7201,1.7201,1.7279,1.7426,1.7499,1.7449,1.7245,1.722,1.7197,1.6996,1.6908,1.6726,1.6377,1.6052,1.5691,1.5284,1.4928,1.454,1.4093,1.3484,1.2826,1.2033,1.1056,0.9497,0.7222,0.6044,0.5312,0.4693,0.438,0.4142,0.3869,0.3402,0.3012,0.301,0.254,0.2149,0.2319,0.2425,0.25,0.2754,0.2851,0.1752,0.0911,0.0825,0.0876,0.079,0.0839,0.1005,0.1174,0.1281,0.1429,0.1484,0.1582,0.1567,0.1559,0.1389,0.1312,0.0998,0.0721,0.0876,1.4546,1.4474,1.3998,1.3823,1.3817,1.3817,1.3817,1.3817,1.3817,1.3913,1.4058,1.4058,1.416,1.425,1.4298,1.4298,1.4292,1.4208,1.4177,1.4153,1.4081,1.4069,1.4158,1.4312,1.4408,1.4467,1.4215,1.3833,1.3446,1.3629,1.3844,1.3964,1.4314,1.4566,1.4482,1.4559,1.4796,1.5151,1.5061,1.5091,1.521,1.5115,1.5287,1.5726,1.5798,1.6088,1.6665,1.683,1.6908,1.6908,1.6908,1.6908,1.6934,1.7107,1.7201,1.7201,1.7358,1.7426,1.747,1.7529,1.7529,1.7426,1.7426,1.7323,1.7141,1.7132,1.7028,1.6762,1.659,1.6322,1.5732,1.5524,1.5126,1.4385,1.3891,1.3346,1.2519,1.1254,0.975,0.8304,0.7349,0.6738,0.6198,0.5893,0.5544,0.5315,0.4888,0.4652,0.4654,0.4261,0.4256,0.4629,0.4364,0.3969,0.4174,0.428,0.3606,0.2605,0.2224,0.1878,0.1664,0.156,0.1632,0.161,0.1705,0.1718,0.1804,0.1783,0.1811,0.1807,0.1735,0.1616,0.1534,0.1454,0.1415,1.5197,1.5065,1.4636,1.4389,1.4304,1.4298,1.4298,1.4298,1.4298,1.4298,1.4298,1.4298,1.4298,1.4298,1.4298,1.4298,1.4298,1.4298,1.4298,1.4298,1.4298,1.4256,1.4158,1.4235,1.4321,1.4344,1.4366,1.4269,1.4144,1.4454,1.4608,1.4734,1.5082,1.5298,1.5389,1.5431,1.5631,1.6,1.5751,1.5707,1.5755,1.5457,1.5365,1.5715,1.5804,1.6096,1.663,1.6804,1.6908,1.6908,1.6968,1.7003,1.7038,1.721,1.7314,1.7382,1.7716,1.7988,1.7988,1.8361,1.8418,1.8385,1.8341,1.8273,1.8094,1.7969,1.7808,1.7729,1.7467,1.7111,1.6719,1.636,1.6012,1.5497,1.4489,1.363,1.2783,1.1595,1.04,0.9415,0.8685,0.8042,0.7429,0.7122,0.6703,0.636,0.6054,0.586,0.5902,0.5628,0.5868,0.6045,0.5844,0.5606,0.5639,0.5573,0.54,0.4599,0.3787,0.3391,0.3044,0.2926,0.2917,0.25,0.2454,0.2167,0.217,0.2048,0.2002,0.2003,0.2081,0.1846,0.1689,0.1572,0.1493,1.5342,1.5089,1.4823,1.4539,1.4316,1.4298,1.4298,1.4298,1.4298,1.4298,1.4298,1.4298,1.4298,1.4298,1.4298,1.4298,1.4298,1.4298,1.4268,1.425,1.4226,1.4152,1.397,1.3925,1.3994,1.4126,1.4137,1.4108,1.413,1.4321,1.4524,1.4734,1.4999,1.5222,1.5389,1.5389,1.5631,1.6008,1.5782,1.5822,1.6119,1.5664,1.5399,1.5724,1.5832,1.6034,1.6351,1.6795,1.6978,1.6943,1.7107,1.726,1.7304,1.7451,1.7725,1.7828,1.8452,1.88,1.9034,1.9365,1.9759,1.9607,1.9541,1.9738,1.9333,1.9,1.8777,1.8754,1.8329,1.8022,1.7794,1.7474,1.7091,1.681,1.5349,1.4042,1.2952,1.2328,1.1583,1.0657,0.9981,0.9334,0.8423,0.8194,0.7774,0.7242,0.698,0.6903,0.6644,0.6514,0.6538,0.6657,0.6845,0.6864,0.6775,0.6835,0.6662,0.6307,0.5503,0.4927,0.4286,0.4018,0.3938,0.3548,0.3272,0.2945,0.2782,0.286,0.2704,0.2626,0.247,0.2119,0.1885,0.1806,0.1728,1.5348,1.5089,1.4823,1.4558,1.4316,1.4298,1.4298,1.4298,1.4298,1.4346,1.4298,1.4298,1.4298,1.4298,1.4346,1.4298,1.4346,1.4286,1.4177,1.4032,1.4008,1.3961,1.3835,1.3799,1.392,1.4087,1.4093,1.4088,1.413,1.4328,1.4475,1.4692,1.4957,1.5215,1.5389,1.5389,1.5673,1.6046,1.606,1.6015,1.6142,1.6047,1.5857,1.57,1.6007,1.6216,1.6386,1.7097,1.7279,1.6978,1.7339,1.7687,1.7959,1.8432,1.88,1.9056,1.9464,1.9726,1.9759,1.9879,1.9933,1.9987,2.0031,1.9792,1.9694,1.9431,1.9177,1.9039,1.8849,1.8611,1.8164,1.8016,1.7644,1.6786,1.6044,1.5305,1.4673,1.4207,1.3404,1.2345,1.1675,1.082,0.9933,0.9367,0.8988,0.8347,0.8046,0.7987,0.7782,0.7598,0.7726,0.7644,0.7753,0.7802,0.7857,0.798,0.7948,0.7826,0.7226,0.6471,0.563,0.4791,0.4725,0.4545,0.455,0.4302,0.4302,0.4377,0.3949,0.3402,0.3326,0.3169,0.243,0.2118,0.2041,1.6008,1.5594,1.5094,1.4654,1.437,1.4627,1.458,1.4394,1.4627,1.458,1.4394,1.4298,1.4484,1.4723,1.4442,1.4484,1.4669,1.432,1.4045,1.39,1.3676,1.3675,1.3711,1.3716,1.3808,1.4066,1.4088,1.4088,1.413,1.4321,1.4524,1.4699,1.4957,1.5222,1.5389,1.5431,1.5631,1.6004,1.6128,1.6178,1.6404,1.6269,1.6376,1.6359,1.6561,1.6651,1.7128,1.7731,1.7876,1.7706,1.7876,1.8172,1.8465,1.8967,1.9398,1.9617,2.0139,2.0473,2.0505,2.0634,2.0869,2.0944,2.0858,2.0826,2.0794,2.0516,2.0226,1.9998,1.9816,1.945,1.9034,1.8863,1.8433,1.7759,1.7301,1.674,1.5755,1.5163,1.4593,1.3867,1.3281,1.2734,1.1594,1.118,1.0628,1.0029,0.9545,0.9461,0.9346,0.9135,0.9093,0.919,0.8972,0.8959,0.8725,0.8667,0.852,0.8453,0.8276,0.7623,0.7031,0.5989,0.5889,0.5896,0.5857,0.5738,0.5583,0.5348,0.4916,0.4567,0.4489,0.4142,0.348,0.2937,0.2782,1.695,1.6443,1.5626,1.5016,1.476,1.5248,1.5248,1.4771,1.5248,1.5201,1.4771,1.458,1.5057,1.548,1.4946,1.481,1.5266,1.4568,1.4211,1.4045,1.3843,1.3835,1.4136,1.366,1.374,1.4046,1.4088,1.4208,1.437,1.4524,1.4768,1.5186,1.5401,1.5541,1.5914,1.5873,1.5955,1.6484,1.6648,1.687,1.7106,1.703,1.717,1.7436,1.7239,1.7571,1.8174,1.8559,1.8576,1.8667,1.86,1.871,1.8898,1.9243,1.9573,1.9857,2.0634,2.1092,2.1155,2.1651,2.2061,2.1987,2.203,2.2197,2.1925,2.1557,2.121,2.0955,2.0764,2.0227,1.9933,1.9703,1.9273,1.8731,1.8697,1.7813,1.6549,1.5869,1.5596,1.5155,1.4906,1.4506,1.3917,1.3339,1.2748,1.1945,1.1502,1.1368,1.1254,1.1091,1.1122,1.1292,1.0847,1.0217,0.9787,0.9381,0.9087,0.8875,0.8792,0.8467,0.8356,0.7688,0.7454,0.7288,0.6942,0.6626,0.6311,0.6037,0.5844,0.5535,0.5381,0.5071,0.4724,0.4261,0.399,1.7581,1.7236,1.6798,1.6394,1.6137,1.6298,1.6251,1.6109,1.6251,1.6197,1.6103,1.6062,1.6143,1.6318,1.5765,1.5464,1.5252,1.5073,1.5051,1.4862,1.4935,1.5042,1.4986,1.4159,1.3786,1.4124,1.413,1.4496,1.4985,1.5269,1.5718,1.6568,1.6609,1.7025,1.7277,1.7237,1.7642,1.7957,1.7997,1.8158,1.847,1.8501,1.8455,1.8506,1.8256,1.8527,1.913,1.9241,1.932,1.9518,1.9375,1.9243,1.9551,1.9977,2.0431,2.088,2.123,2.1632,2.1862,2.1987,2.2197,2.2154,2.2092,2.2197,2.2154,2.1632,2.1316,2.1106,2.0614,2.0205,1.9976,1.9736,1.9473,1.9208,1.8942,1.8664,1.8138,1.7672,1.7079,1.6585,1.6123,1.5623,1.4783,1.4537,1.4126,1.3778,1.3566,1.3358,1.3209,1.3024,1.2911,1.2973,1.2246,1.1558,1.1209,1.0726,1.0272,0.9933,0.9712,0.9528,0.9415,0.9041,0.8694,0.8284,0.7872,0.7557,0.7314,0.7318,0.7203,0.6738,0.6234,0.5925,0.5657,0.5351,0.5162,1.8102,1.7757,1.7252,1.6861,1.6664,1.6951,1.6911,1.673,1.6998,1.6904,1.6593,1.6395,1.6504,1.6807,1.6141,1.5663,1.5691,1.5396,1.5266,1.522,1.5335,1.5602,1.591,1.533,1.5005,1.5276,1.5352,1.5643,1.5925,1.6131,1.6535,1.722,1.7423,1.7553,1.7957,1.8037,1.8078,1.8327,1.8559,1.8789,1.9107,1.9256,1.9385,1.9411,1.9396,1.9777,2.0247,1.98,1.9952,2.0182,1.9964,1.9726,1.9955,2.0356,2.0796,2.1083,2.14,2.1506,2.1675,2.1749,2.1812,2.1956,2.1831,2.1831,2.1831,2.1474,2.1126,2.0903,2.0582,2.0226,1.9933,1.9835,1.9605,1.9341,1.9185,1.9042,1.8875,1.8506,1.81,1.7613,1.726,1.6862,1.6385,1.5953,1.592,1.5751,1.5263,1.5055,1.5182,1.4942,1.4433,1.4133,1.3419,1.2853,1.2595,1.2174,1.1681,1.1335,1.1032,1.0858,1.0714,1.0271,0.9744,0.9339,0.8932,0.8675,0.8475,0.8522,0.8365,0.7787,0.728,0.6899,0.663,0.6514,0.6329,1.8585,1.8328,1.7565,1.7154,1.7033,1.7606,1.7559,1.7138,1.7692,1.7654,1.6976,1.6532,1.7039,1.7034,1.6433,1.6367,1.6488,1.6,1.5727,1.6042,1.6203,1.6535,1.678,1.6846,1.6887,1.7066,1.6617,1.6657,1.687,1.7115,1.7391,1.7715,1.7965,1.8407,1.8439,1.8439,1.8727,1.9015,1.9134,1.9313,1.9559,1.9747,1.9956,2.0248,2.0476,2.0759,2.0896,2.0572,2.041,2.0938,2.0587,2.0336,2.0271,2.0346,2.0582,2.0603,2.0967,2.1158,2.1296,2.1296,2.138,2.1588,2.1411,2.1348,2.1474,2.1463,2.121,2.1097,2.0928,2.0952,2.0335,2.051,2.027,1.9911,1.9726,1.9572,1.944,1.9129,1.9078,1.8357,1.8169,1.7902,1.7789,1.7569,1.7682,1.7623,1.7105,1.6766,1.6831,1.6596,1.5897,1.5411,1.4724,1.4288,1.4032,1.3609,1.3078,1.28,1.2428,1.2251,1.2111,1.1749,1.1236,1.0426,1.0019,0.9798,0.9685,0.9712,0.941,0.8818,0.836,0.8008,0.7821,0.7676,0.74,1.9225,1.9154,1.8707,1.845,1.8411,1.8542,1.8488,1.8542,1.8918,1.8774,1.8075,1.8303,1.8028,1.7791,1.7629,1.7627,1.7474,1.6922,1.6917,1.7424,1.77,1.8031,1.8103,1.8327,1.8616,1.8407,1.7674,1.7269,1.7674,1.7876,1.8327,1.9173,1.9381,1.9578,1.9883,2.0157,2.0001,2.0059,2.0225,2.044,2.0712,2.0895,2.1029,2.1219,2.1229,2.1318,2.1441,2.1282,2.1188,2.145,2.1385,2.1157,2.0907,2.0599,2.0553,2.0518,2.0646,2.0839,2.1138,2.1201,2.1221,2.1253,2.1285,2.1285,2.1368,2.1474,2.1506,2.1709,2.2047,2.2313,2.1788,2.1786,2.1873,2.1539,2.1138,2.0935,2.0916,2.0871,2.0369,1.926,1.9049,1.9042,1.9023,1.8999,1.8952,1.8822,1.8456,1.8092,1.8027,1.7569,1.6848,1.644,1.6061,1.5745,1.5473,1.4988,1.4522,1.4271,1.3968,1.3744,1.3542,1.3339,1.2792,1.2191,1.149,1.1087,1.1013,1.0858,1.0453,0.9857,0.9485,0.9112,0.8832,0.8576,0.798,1.9315,1.9074,1.8899,1.8781,1.8781,1.8781,1.8854,1.8928,1.9183,1.9067,1.8841,1.8756,1.8623,1.8253,1.8021,1.799,1.7872,1.7708,1.7821,1.8371,1.862,1.8851,1.8962,1.9222,1.9262,1.9094,1.8447,1.8158,1.8647,1.8687,1.9094,1.9627,1.9902,2.0137,2.0489,2.0527,2.0644,2.078,2.0858,2.1022,2.1359,2.1502,2.1731,2.1683,2.1489,2.1481,2.1729,2.1375,2.1371,2.1762,2.2029,2.2002,2.1913,2.1831,2.1467,2.0684,2.0465,2.0625,2.1063,2.1178,2.1356,2.1877,2.1819,2.1796,2.1846,2.1951,2.2063,2.2424,2.2859,2.3196,2.2618,2.2818,2.2511,2.2099,2.1973,2.1871,2.1669,2.1885,2.1188,2.0282,2.0423,2.0495,2.0334,2.0281,2.0208,1.998,1.9696,1.9431,1.9163,1.8492,1.7754,1.7182,1.681,1.6743,1.6608,1.6437,1.6044,1.5799,1.5525,1.5269,1.4985,1.4744,1.4565,1.4227,1.3498,1.2478,1.1896,1.1594,1.1224,1.0932,1.0596,1.0222,0.982,0.9356,0.8775,1.9509,1.9104,1.9096,1.9063,1.9007,1.8945,1.9015,1.9049,1.9131,1.9097,1.8991,1.8834,1.8662,1.8458,1.8301,1.8201,1.8241,1.8273,1.8514,1.8723,1.8851,1.9042,1.9222,1.9292,1.9292,1.9253,1.9183,1.9292,1.9173,1.9173,1.9499,1.9784,1.9902,2.0137,2.0489,2.0615,2.0615,2.0654,2.0741,2.0945,2.1244,2.1578,2.1807,2.1797,2.1445,2.1605,2.227,2.2005,2.216,2.2655,2.3026,2.3166,2.322,2.3645,2.294,2.127,2.0872,2.1143,2.1521,2.178,2.2214,2.2764,2.2587,2.2638,2.2799,2.2894,2.2994,2.3492,2.4107,2.4171,2.3684,2.357,2.3298,2.2873,2.2847,2.28,2.2609,2.2587,2.2607,2.2133,2.2101,2.1712,2.1285,2.1228,2.1062,2.0698,2.0379,2.0144,1.9812,1.9257,1.8536,1.7842,1.7465,1.7512,1.761,1.7881,1.759,1.7341,1.7051,1.6775,1.6437,1.6132,1.5921,1.5587,1.4708,1.3723,1.3026,1.2588,1.2508,1.2325,1.1816,1.1212,1.052,1.0076,0.9633,2.0201,2.011,2.011,1.9932,1.9563,1.9538,1.9362,1.9161,1.9488,1.9262,1.8781,1.9011,1.8769,1.838,1.8544,1.8803,1.8984,1.9015,1.9024,1.9152,1.9152,1.9192,1.9301,1.9292,1.9381,1.945,1.9411,1.9292,1.9332,1.9332,1.9499,1.9824,1.9951,2.0147,2.0527,2.0615,2.0615,2.0595,2.0683,2.0886,2.1272,2.1693,2.1911,2.1928,2.1952,2.2211,2.3016,2.2948,2.3335,2.4247,2.4566,2.4599,2.445,2.4422,2.4165,2.3589,2.3365,2.3386,2.3355,2.3271,2.3389,2.37,2.3664,2.3644,2.3793,2.4227,2.4633,2.5399,2.5903,2.564,2.4902,2.5091,2.5011,2.4497,2.3938,2.4015,2.391,2.3412,2.3393,2.3207,2.2926,2.2376,2.1853,2.1878,2.1879,2.1453,2.1086,2.082,2.0402,1.9824,1.9574,1.8922,1.8468,1.8482,1.8545,1.8849,1.8813,1.867,1.8412,1.8118,1.7813,1.7394,1.6966,1.6507,1.5728,1.5446,1.5244,1.4846,1.4291,1.3607,1.3063,1.2061,1.1037,1.0717,1.0583,2.0456,1.9939,1.9939,1.9717,1.9384,1.9366,1.9316,1.9225,1.934,1.9277,1.9097,1.9196,1.9057,1.8812,1.8953,1.9112,1.9253,1.9332,1.9292,1.9332,1.9332,1.9332,1.9381,1.9618,1.9814,1.9883,2.0118,2.0157,1.9883,1.9539,1.9508,1.9824,1.9942,2.0137,2.0634,2.0605,2.0615,2.0799,2.1203,2.17,2.2042,2.2585,2.3069,2.308,2.3043,2.3338,2.3632,2.3888,2.4095,2.4767,2.517,2.5589,2.5635,2.5902,2.6114,2.5995,2.5886,2.5405,2.4549,2.4446,2.4601,2.4866,2.4943,2.4931,2.5052,2.5467,2.5917,2.6244,2.6517,2.6261,2.5654,2.5694,2.5197,2.4814,2.4688,2.4472,2.4477,2.4529,2.4254,2.4027,2.371,2.3015,2.2495,2.252,2.2506,2.2192,2.1812,2.1493,2.0942,2.0279,2.0166,2.0159,1.981,1.9563,1.963,1.9803,1.9672,1.953,1.9388,1.9135,1.898,1.8613,1.8176,1.8051,1.7818,1.7624,1.7472,1.6472,1.5305,1.4736,1.4279,1.3298,1.241,1.2075,1.1859,2.0691,1.9973,1.9896,1.9678,1.9322,1.9313,1.9254,1.9249,1.9231,1.9264,1.9286,1.9271,1.9311,1.9292,1.9262,1.939,1.9539,1.9539,1.9539,1.9539,1.9648,1.9726,1.9844,2.0118,2.0469,2.0469,2.0808,2.0818,2.0469,2.0187,2.0079,1.9942,2.002,2.0401,2.0789,2.1011,2.1088,2.1499,2.2209,2.2622,2.2835,2.3537,2.3902,2.4047,2.412,2.4181,2.442,2.4528,2.4636,2.524,2.5779,2.6205,2.6454,2.6815,2.7152,2.7108,2.7108,2.6703,2.5939,2.5657,2.5769,2.6038,2.6211,2.6207,2.6258,2.6687,2.6784,2.6634,2.6667,2.6373,2.5994,2.578,2.548,2.5223,2.5088,2.4741,2.4463,2.4502,2.4369,2.4022,2.3748,2.3594,2.3208,2.3188,2.311,2.2903,2.258,2.2156,2.1637,2.1032,2.1129,2.1322,2.1166,2.0919,2.0951,2.091,2.0687,2.0396,2.0289,2.0182,2.0063,1.977,1.9333,1.9377,1.94,1.9046,1.8479,1.7326,1.6271,1.5983,1.5573,1.4739,1.4016,1.3538,1.2831,2.1167,2.0702,2.0518,2.0203,1.9839,1.9848,1.9651,1.9442,1.9375,1.9356,1.939,1.9371,1.945,1.9411,1.9569,1.9775,2.0118,2.0157,2.0157,2.0352,2.0663,2.0547,2.0547,2.0731,2.1126,2.1126,2.1433,2.1395,2.1231,2.1375,2.0769,2.0098,2.0547,2.0972,2.1423,2.1718,2.2021,2.2462,2.3132,2.3379,2.3562,2.3963,2.4264,2.4253,2.4264,2.4456,2.517,2.5276,2.5511,2.6173,2.6427,2.6714,2.6952,2.7188,2.7356,2.7456,2.7623,2.7373,2.7111,2.6862,2.7103,2.7274,2.7163,2.6889,2.6785,2.7163,2.7183,2.6816,2.6807,2.6596,2.6146,2.5829,2.61,2.579,2.5685,2.5385,2.4981,2.4487,2.4344,2.3988,2.3894,2.4015,2.3972,2.3989,2.3514,2.3258,2.3047,2.2659,2.2659,2.2244,2.2396,2.2488,2.2469,2.2378,2.239,2.218,2.1796,2.1483,2.13,2.1275,2.1239,2.0855,2.018,2.0091,1.995,1.9738,1.9423,1.8385,1.7654,1.7417,1.6806,1.5666,1.4609,1.3767,1.3139,2.1441,2.1046,2.0977,2.059,2.0148,2.0525,2.0625,2.0411,2.005,1.9854,1.9893,2.0274,2.0459,2.043,2.0469,2.0586,2.0818,2.0818,2.0818,2.0847,2.1001,2.1011,2.1049,2.1357,2.1749,2.1863,2.2052,2.2203,2.2203,2.2408,2.2161,2.1745,2.1669,2.201,2.2424,2.2574,2.2809,2.3132,2.3708,2.4072,2.4373,2.5004,2.5441,2.5581,2.5569,2.5687,2.6025,2.6025,2.6267,2.6474,2.6645,2.6918,2.7201,2.7302,2.7443,2.7604,2.7841,2.8025,2.7879,2.7465,2.687,2.6485,2.6419,2.6575,2.679,2.6562,2.6924,2.6929,2.6943,2.671,2.7554,2.7533,2.7456,2.6777,2.6335,2.607,2.5548,2.497,2.4848,2.4708,2.4836,2.4964,2.4894,2.4809,2.4192,2.3616,2.3407,2.3288,2.3335,2.3335,2.3395,2.3318,2.3258,2.3047,2.3,2.2909,2.2842,2.2506,2.2201,2.217,2.1986,2.1236,2.0701,2.0612,2.0477,2.019,1.9815,1.9388,1.886,1.8308,1.7363,1.6236,1.5173,1.4105,1.3651,2.1739,2.1482,2.1662,2.1242,2.0624,2.1011,2.1203,2.1126,2.0702,2.0518,2.0547,2.1011,2.1203,2.1203,2.1203,2.1318,2.1395,2.1482,2.1482,2.1548,2.1662,2.1624,2.1738,2.2014,2.2429,2.259,2.2889,2.3075,2.315,2.3409,2.3386,2.3327,2.3342,2.3489,2.3305,2.3585,2.3658,2.3902,2.4312,2.485,2.5158,2.5723,2.6223,2.6361,2.6349,2.6349,2.6383,2.6383,2.6418,2.6589,2.6782,2.7074,2.7343,2.7597,2.7782,2.7969,2.8165,2.8443,2.8071,2.7954,2.7233,2.7117,2.6907,2.6823,2.6569,2.6418,2.6965,2.7086,2.7003,2.7197,2.8215,2.7869,2.7556,2.6841,2.7148,2.6938,2.6091,2.5439,2.5522,2.5536,2.5591,2.5508,2.5481,2.5342,2.5063,2.4538,2.4394,2.4279,2.425,2.4208,2.4121,2.4018,2.3842,2.3619,2.3365,2.3288,2.315,2.2884,2.2682,2.2782,2.2511,2.1807,2.148,2.1604,2.1316,2.0706,2.0257,1.9895,1.9435,1.8945,1.7864,1.6685,1.5659,1.471,1.4574,2.2073,2.2138,2.2633,2.2199,2.127,2.1203,2.128,2.1395,2.128,2.1203,2.1203,2.1318,2.1357,2.1395,2.151,2.1738,2.2025,2.2101,2.2101,2.2176,2.2419,2.2478,2.244,2.2628,2.2964,2.3446,2.3519,2.3629,2.4091,2.4273,2.449,2.4658,2.4587,2.46,2.4228,2.4826,2.5194,2.5229,2.5347,2.55,2.5758,2.6027,2.6236,2.6465,2.6487,2.6487,2.6679,2.6679,2.6748,2.6939,2.7284,2.7637,2.7966,2.8378,2.8496,2.8421,2.8449,2.8246,2.7799,2.8783,2.8638,2.7783,2.7189,2.7444,2.7857,2.7694,2.7163,2.7127,2.6947,2.6919,2.7173,2.7455,2.7471,2.74,2.7755,2.757,2.67,2.6215,2.6295,2.6349,2.6054,2.5837,2.5837,2.581,2.5755,2.5536,2.5425,2.5245,2.5091,2.4922,2.4753,2.4667,2.4467,2.4352,2.4105,2.3734,2.3497,2.3245,2.3204,2.3431,2.3267,2.2721,2.2552,2.2626,2.1998,2.1217,2.0828,2.0474,2.0049,1.9511,1.8262,1.7113,1.6088,1.5488,1.5498,2.2433,2.2638,2.2263,2.2204,2.2339,2.2381,2.2381,2.2392,2.2354,2.2166,2.1939,2.2166,2.2392,2.2392,2.2354,2.2429,2.2628,2.2703,2.2703,2.274,2.2953,2.2852,2.2815,2.2964,2.3272,2.353,2.3629,2.4007,2.4574,2.479,2.4957,2.5123,2.5264,2.5158,2.5004,2.5229,2.5276,2.53,2.5382,2.5523,2.5863,2.6015,2.6223,2.6555,2.6589,2.6756,2.7077,2.7064,2.7206,2.7486,2.7859,2.8163,2.8384,2.8702,2.8438,2.848,2.8533,2.8511,2.8474,2.8906,2.8511,2.7584,2.7046,2.7088,2.6694,2.6568,2.6665,2.7196,2.7236,2.7588,2.8569,2.888,2.8845,2.8319,2.8302,2.8019,2.7428,2.7225,2.7137,2.7163,2.6993,2.689,2.6837,2.6707,2.6587,2.6414,2.6281,2.5796,2.5522,2.537,2.5203,2.5203,2.5091,2.5063,2.4894,2.4567,2.4408,2.4323,2.4241,2.4268,2.3998,2.36,2.3523,2.3511,2.2604,2.1721,2.1496,2.1232,2.0705,2.0003,1.9034,1.8194,1.7381,1.6913,1.6761,2.2237,2.2433,2.1843,2.1931,2.2499,2.2695,2.2837,2.2968,2.3001,2.2767,2.2553,2.2852,2.2964,2.2964,2.3001,2.3001,2.3001,2.3001,2.3001,2.3038,2.3198,2.3187,2.3224,2.3361,2.374,2.3886,2.408,2.4381,2.4957,2.4992,2.523,2.5522,2.5561,2.5576,2.5522,2.5446,2.5312,2.537,2.5523,2.5908,2.6255,2.653,2.6837,2.7129,2.7304,2.7359,2.7479,2.7595,2.7658,2.7954,2.8142,2.8377,2.8472,2.8579,2.8376,2.8541,2.8303,2.8281,2.8345,2.8469,2.7924,2.6958,2.6615,2.6732,2.6701,2.6852,2.7041,2.7413,2.7627,2.8048,2.8722,2.9128,2.9139,2.8565,2.8512,2.8196,2.7916,2.767,2.761,2.766,2.7685,2.7685,2.7735,2.7675,2.7509,2.7316,2.7133,2.6611,2.616,2.6067,2.6,2.5973,2.5892,2.5837,2.5701,2.5398,2.5315,2.537,2.5259,2.5118,2.494,2.4586,2.4515,2.4306,2.3453,2.2769,2.2396,2.2013,2.1557,2.1003,2.0281,1.947,1.8721,1.8259,1.7933,2.157,2.1616,2.1559,2.1549,2.1726,2.2182,2.2597,2.2957,2.299,2.2964,2.3001,2.292,2.2929,2.2973,2.2984,2.3025,2.3132,2.3106,2.3187,2.3224,2.3482,2.3534,2.3624,2.3784,2.4016,2.4469,2.4731,2.4791,2.5276,2.5378,2.5656,2.5928,2.5854,2.5769,2.5632,2.5503,2.5288,2.5367,2.5685,2.6143,2.6577,2.7161,2.7552,2.7919,2.8168,2.8077,2.8021,2.7886,2.7563,2.7509,2.7535,2.7849,2.8226,2.8707,2.8739,2.849,2.7916,2.7803,2.7754,2.7899,2.7814,2.7354,2.7935,2.8356,2.8133,2.7491,2.7469,2.749,2.7631,2.7607,2.7805,2.8196,2.857,2.8474,2.8581,2.8324,2.8051,2.7915,2.79,2.7934,2.7944,2.7993,2.814,2.8155,2.8277,2.8222,2.807,2.7957,2.7545,2.7272,2.7185,2.7019,2.689,2.6642,2.6443,2.6269,2.6188,2.6242,2.6013,2.5882,2.5703,2.5655,2.558,2.5242,2.4444,2.3856,2.3523,2.3022,2.2437,2.1932,2.1676,2.0643,1.9845,1.9227,1.8893,2.1265,2.1505,2.085,2.0959,2.1614,2.2106,2.24,2.2542,2.2837,2.3001,2.299,2.2652,2.2691,2.2861,2.2886,2.3066,2.3345,2.3657,2.3815,2.39,2.3861,2.3711,2.3693,2.3732,2.3944,2.4295,2.4703,2.5168,2.5721,2.585,2.5812,2.6049,2.5807,2.5602,2.5492,2.5347,2.528,2.5363,2.569,2.6226,2.6784,2.7296,2.7872,2.8343,2.852,2.8487,2.8615,2.8299,2.8158,2.855,2.8354,2.8496,2.8805,2.8588,2.8246,2.7927,2.7679,2.76,2.7585,2.7585,2.766,2.7795,2.8187,2.8072,2.7946,2.7851,2.771,2.7785,2.782,2.7894,2.7968,2.8225,2.8427,2.8516,2.8621,2.8572,2.8365,2.8422,2.8407,2.8439,2.8424,2.8614,2.8732,2.8842,2.8958,2.9005,2.8989,2.8943,2.874,2.84,2.8149,2.7993,2.7805,2.754,2.7393,2.7225,2.7122,2.706,2.6912,2.6886,2.6876,2.6825,2.6678,2.6363,2.5871,2.5255,2.4659,2.4197,2.3812,2.3641,2.3331,2.2084,2.1001,2.0408,1.9933,2.0751,2.0915,2.0369,2.0588,2.1386,2.1989,2.234,2.2603,2.282,2.2937,2.2871,2.2584,2.2538,2.2702,2.2761,2.2877,2.3086,2.3491,2.3711,2.3781,2.4225,2.4362,2.4218,2.4121,2.4544,2.4734,2.4911,2.5232,2.5769,2.5813,2.5709,2.6013,2.5621,2.5524,2.5515,2.5533,2.5467,2.5546,2.5783,2.6264,2.68,2.7349,2.7991,2.8424,2.8569,2.8774,2.8832,2.8422,2.8469,2.8523,2.8028,2.8063,2.8355,2.8125,2.8349,2.8201,2.8301,2.8271,2.8295,2.8286,2.8213,2.8247,2.8439,2.8455,2.8414,2.8365,2.8334,2.8334,2.8319,2.8304,2.8376,2.8463,2.8511,2.8598,2.8732,2.8842,2.8904,2.8982,2.8989,2.9035,2.9134,2.9316,2.9467,2.9556,2.9579,2.9534,2.9556,2.9579,2.9361,2.9019,2.885,2.8685,2.8567,2.8384,2.8247,2.8125,2.8085,2.8094,2.8161,2.8128,2.8091,2.7987,2.785,2.7725,2.754,2.6892,2.6206,2.5751,2.5385,2.5193,2.478,2.3752,2.256,2.1622,2.1211,2.0313,2.0368,2.0291,2.0831,2.1325,2.2015,2.2616,2.3128,2.304,2.2894,2.2921,2.2731,2.2717,2.2919,2.2941,2.2986,2.3292,2.3645,2.3956,2.3513,2.4361,2.4731,2.4895,2.519,2.4888,2.5376,2.5614,2.5345,2.5381,2.5497,2.5691,2.5986,2.5761,2.5614,2.5555,2.5657,2.561,2.5534,2.597,2.6492,2.7026,2.7665,2.8325,2.8597,2.8611,2.8537,2.8046,2.7697,2.7476,2.7113,2.6919,2.7083,2.7556,2.813,2.8581,2.8811,2.8865,2.8865,2.8842,2.8842,2.8912,2.8982,2.9136,2.9097,2.9028,2.885,2.8779,2.8803,2.8787,2.8834,2.8904,2.9019,2.9088,2.9134,2.9219,2.9325,2.9371,2.9512,2.9717,2.9761,2.9913,3.0102,3.0102,3.0166,3.0246,3.0118,3.0118,3.0204,3.0075,2.9739,2.9473,2.9355,2.9104,2.895,2.8934,2.888,2.8996,2.9088,2.9095,2.898,2.867,2.8803,2.9067,2.8678,2.8269,2.8283,2.7854,2.7278,2.6742,2.6411,2.5923,2.5271,2.4316,2.3387,2.267,2.1791,2.1791,2.1916,2.2318,2.2761,2.297,2.3312,2.3762,2.3628,2.3639,2.3646,2.336,2.3236,2.3376,2.344,2.3548,2.3876,2.4075,2.4643,2.4605,2.49,2.4892,2.4766,2.4869,2.4851,2.4862,2.5065,2.5528,2.5817,2.5818,2.5681,2.5816,2.5604,2.5374,2.5403,2.553,2.5646,2.5633,2.612,2.668,2.7201,2.7582,2.8045,2.8447,2.8578,2.8533,2.8184,2.7881,2.7708,2.7463,2.7012,2.7189,2.772,2.8496,2.8912,2.9074,2.9259,2.9337,2.9337,2.9391,2.9471,2.9389,2.9448,2.9566,2.9534,2.9316,2.921,2.9255,2.9323,2.939,2.9457,2.9591,2.9717,2.9739,2.9777,2.9821,2.9859,3.0118,3.0393,3.0539,3.0699,3.072,3.072,3.076,3.0838,3.0878,3.0915,3.0935,3.0858,3.0601,3.0123,2.9908,2.9512,2.9384,2.948,2.9591,2.9695,2.9563,2.948,2.9368,2.9255,2.9377,2.9461,2.9143,2.8873,2.8912,2.885,2.8521,2.802,2.7561,2.7218,2.6623,2.6514,2.582,2.4865,2.2439,2.2439,2.2531,2.2904,2.3385,2.3514,2.3813,2.4292,2.4348,2.4374,2.4331,2.3788,2.357,2.3705,2.3766,2.3895,2.4184,2.4554,2.458,2.4732,2.5071,2.5148,2.4934,2.476,2.5037,2.5057,2.5007,2.5423,2.5982,2.5736,2.5424,2.5552,2.524,2.5272,2.53,2.5536,2.5785,2.5893,2.6363,2.6833,2.7289,2.7443,2.7459,2.7823,2.8017,2.8128,2.8115,2.7833,2.7861,2.7847,2.7643,2.8042,2.8599,2.915,2.9506,2.9812,3.0014,3.0045,2.9964,3.0038,3.0097,3.0014,3.0249,3.0582,3.0172,2.9989,3.0059,3.0118,3.0208,3.0272,3.0314,3.0435,3.0497,3.0555,3.0555,3.0576,3.0597,3.0699,3.0838,3.0898,3.0995,3.0978,3.0978,3.0978,3.1055,3.1055,3.1171,3.119,3.119,3.1232,3.0821,3.0522,3.0213,3.0086,3.0272,3.0335,3.0372,3.0166,2.9897,2.9978,3.0038,2.9924,2.9832,2.9661,2.955,2.955,2.9422,2.9219,2.8912,2.8388,2.8205,2.8021,2.7975,2.778,2.684,2.2925,2.2895,2.2925,2.3267,2.3754,2.3901,2.429,2.4761,2.4934,2.4975,2.4872,2.4154,2.3813,2.3783,2.3783,2.3783,2.3979,2.4511,2.4522,2.4611,2.4884,2.5083,2.5208,2.5231,2.5266,2.5237,2.5162,2.5183,2.5407,2.5339,2.5396,2.5286,2.5453,2.5688,2.5771,2.5975,2.6297,2.6549,2.689,2.7188,2.7207,2.7141,2.7166,2.7203,2.7233,2.7437,2.7575,2.771,2.7879,2.8076,2.8277,2.8779,2.9232,2.9689,2.9989,3.0335,3.064,3.0613,3.0677,3.1133,3.0973,3.0922,3.1333,3.1205,3.0696,3.0651,3.0712,3.0814,3.0898,3.0975,3.0995,3.1015,3.1092,3.1112,3.1114,3.1114,3.1114,3.1151,3.119,3.121,3.123,3.123,3.123,3.123,3.123,3.121,3.121,3.119,3.123,3.131,3.1179,3.1142,3.105,3.1027,3.0998,3.0918,3.0861,3.074,3.0539,3.0679,3.0716,3.0447,3.0321,3.0384,3.0284,3.0092,2.9968,2.9777,2.9445,2.9159,2.912,2.8966,2.8646,2.8458,2.8251,2.445,2.4551,2.4551,2.4622,2.4708,2.475,2.485,2.4935,2.4977,2.5005,2.4948,2.4892,2.475,2.475,2.4736,2.4679,2.4536,2.4765,2.4821,2.4934,2.4948,2.5072,2.5169,2.5254,2.5142,2.5185,2.5284,2.5341,2.5633,2.5743,2.6001,2.6402,2.6481,2.664,2.6782,2.6964,2.7108,2.7287,2.7449,2.7755,2.7765,2.773,2.773,2.7755,2.774,2.779,2.7839,2.7879,2.7889,2.8119,2.8646,2.9187,2.9651,3.007,3.0375,3.0641,3.0969,3.0969,3.1139,3.1355,3.1101,3.087,3.1056,3.0966,3.0717,3.0834,3.0898,3.1018,3.1098,3.1154,3.1173,3.1151,3.1171,3.1171,3.1171,3.1171,3.1171,3.1193,3.1252,3.1271,3.1327,3.1329,3.1332,3.1349,3.1349,3.1368,3.1368,3.1368,3.1426,3.1466,3.1524,3.1618,3.1731,3.1506,3.1274,3.1274,3.1215,3.1154,3.1095,3.1078,3.0978,3.0773,3.0692,3.0712,3.0593,3.0384,3.0284,3.0225,3.0092,2.987,2.9935,2.9826,2.9432,2.909,2.8803]}]]